[[{"header":{"parameterUnit":"m.s-1","parameterCategory":1,"la1":31.0,"la2":29.5877,"lo1":-88.7671,"lo2":-86.6584,"dy":0.0162,"dx":0.0185,"nx":115,"ny":88,"refTime":"2023-08-17T06:00:00:Z","depth":0,"parameterNumber":2,"parameterNumberName":"U-component_of_WINDS"},"data":[0.0,0.0,0.0,0.0,0.0,0.0,0.0,0.0,0.0,0.0,0.0,0.0,0.0,0.0,0.0,0.0,0.0,0.0,0.0,0.0,0.0,0.0,0.0,0.0,0.0,0.0,0.0,0.0,0.0,0.0,0.0,0.0,0.0,0.0,0.0,0.0,0.0,0.0,0.0,0.0,0.0,0.0,0.0,0.0,0.0,0.0,0.0,0.0,0.0,0.0,0.0,0.0,0.0,0.0,0.0,0.0,0.0,0.0,0.0,0.0,0.0,0.0,0.0,0.0,0.0,0.0,0.0,0.0,0.0,0.0,0.0,0.0,0.0,0.0,0.0,0.0,0.0,0.0,0.0,0.0,0.0,0.0,0.0,0.0,0.0,0.0,0.0,0.0,0.0,0.0,0.0,0.0,0.0,0.0,0.0,0.0,0.0,0.0,0.0,0.0,0.0,0.0,0.0,0.0,0.0,0.0,0.0,0.0,0.0,0.0,0.0,0.0,0.0,0.0,0.0,0.0,0.0,0.0,0.0,0.0,0.0,0.0,0.0,0.0,0.0,0.0,0.0,0.0,0.0,0.0,0.0,0.0,0.0,0.0,0.0,0.0,0.0,0.0,0.0,0.0,0.0,0.0,0.0,0.0,0.0,0.0,0.0,0.0,0.0,0.0,0.0,0.0,0.0,0.0,0.0,0.0,0.0,0.0,0.0,0.0,0.0,0.0,0.0,0.0,0.0,0.0,0.0,0.0,0.0,0.0,0.0,0.0,0.0,0.0,0.0,0.0,0.0,0.0,0.0,0.0,0.0,0.0,0.0,0.0,0.0,0.0,0.0,0.0,0.0,0.0,0.0,0.0,0.0,0.0,0.0,0.0,0.0,0.0,0.0,0.0,0.0,0.0,0.0,0.0,0.0,0.0,0.0,0.0,0.0,0.0,0.0,0.0,0.0,0.0,0.0,0.0,0.0,0.0,0.0,0.0,0.0,0.0,0.0,0.0,0.0,0.0,0.0,0.0,0.0,0.0,0.0,0.0,0.0,0.0,0.0,0.0,0.0,0.0,0.0,0.0,0.0,0.0,0.0,0.0,0.0,0.0,0.0,0.0,0.0,0.0,0.0,0.0,0.0,0.0,0.0,0.0,0.0,0.0,0.0,0.0,0.0,0.0,0.0,0.0,0.0,0.0,0.0,0.0,0.0,0.0,0.0,0.0,0.0,0.0,0.0,0.0,0.0,0.0,0.0,0.0,0.0,0.0,0.0,0.0,0.0,0.0,0.0,0.0,0.0,0.0,0.0,0.0,0.0,0.0,0.0,0.0,0.0,0.0,0.0,0.0,0.0,0.0,0.0,0.0,0.0,0.0,0.0,0.0,0.0,0.0,0.0,0.0,0.0,0.0,0.0,0.0,0.0,0.0,0.0,0.0,0.0,0.0,0.0,0.0,0.0,0.0,0.0,0.0,0.0,0.0,0.0,0.0,0.0,0.0,0.0,0.0,0.0,0.0,0.0,0.0,0.0,0.0,0.0,0.0,0.0,0.0,0.0,0.0,0.0,0.0,0.0,0.0,0.0,0.0,0.0,0.0,0.0,0.0,0.0,0.0,0.0,0.0,0.0,0.0,0.0,0.0,0.0,0.0,0.0,0.0,0.0,0.0,0.0,0.0,0.0,0.0,0.0,0.0,0.0,0.0,0.0,0.0,0.0,0.0,0.0,0.0,0.0,0.0,0.0,0.0,0.0,0.0,0.0,0.0,0.0,0.0,0.0,0.0,0.0,0.0,0.0,0.0,0.0,0.0,0.0,0.0,0.0,0.0,0.0,0.0,0.0,0.0,0.0,0.0,0.0,0.0,0.0,0.0,0.0,0.0,0.0,0.0,0.0,0.0,0.0,0.0,0.0,0.0,0.0,0.0,0.0,0.0,0.0,0.0,0.0,0.0,0.0,0.0,0.0,0.0,0.0,0.0,0.0,0.0,0.0,0.0,0.0,0.0,0.0,0.0,0.0,0.0,0.0,0.0,0.0,0.0,0.0,0.0,0.0,0.0,0.0,0.0,0.0,0.0,0.0,0.0,0.0,0.0,0.0,0.0,0.0,0.0,0.0,0.0,0.0,0.0,0.0,0.0,0.0,0.0,0.0,0.0,0.0,0.0,0.0,0.0,0.0,0.0,0.0,0.0,0.0,0.0,0.0,0.0,0.0,0.0,0.0,0.0,0.0,0.0,0.0,0.0,0.0,0.0,0.0,0.0,0.0,0.0,0.0,0.0,0.0,0.0,0.0,0.0,0.0,0.0,0.0,0.0,0.0,0.0,0.0,0.0,0.0,0.0,0.0,0.0,0.0,0.0,0.0,0.0,0.0,0.0,0.0,0.0,0.0,0.0,0.0,0.0,0.0,0.0,0.0,0.0,0.0,0.0,0.0,0.0,0.0,0.0,0.0,0.0,0.0,0.0,0.0,0.0,0.0,0.0,0.0,0.0,0.0,0.0,0.0,0.0,0.0,0.0,0.0,0.0,0.0,0.0,0.0,0.0,0.0,0.0,0.0,0.0,0.0,0.0,0.0,0.0,0.0,0.0,0.0,0.0,0.0,0.0,0.0,0.0,0.0,0.0,0.0,0.0,0.0,0.0,0.0,0.0,0.0,0.0,0.0,0.0,0.0,0.0,0.0,0.0,0.0,0.0,0.0,0.0,0.0,0.0,0.0,0.0,0.0,0.0,0.0,0.0,0.0,0.0,0.0,0.0,0.0,0.0,0.0,0.0,0.0,0.0,0.0,0.0,0.0,0.0,0.0,0.0,0.0,0.0,0.0,0.0,0.0,0.0,0.0,0.0,0.0,0.0,0.0,0.0,0.0,0.0,0.0,0.0,0.0,0.0,0.0,0.0,0.0,0.0,0.0,0.0,0.0,0.0,0.0,0.0,0.0,0.0,0.0,0.0,0.0,0.0,0.0,0.0,0.0,0.0,0.0,0.0,0.0,0.0,0.0,0.0,0.0,0.0,0.0,0.0,0.0,0.0,0.0,0.0,0.0,0.0,0.0,0.0,0.0,0.0,0.0,0.0,0.0,0.0,0.0,0.0,0.0,0.0,0.0,0.0,0.0,0.0,0.0,0.0,0.0,0.0,0.0,0.0,0.0,0.0,0.0,0.0,0.0,0.0,0.0,0.0,0.0,0.0,0.0,0.0,0.0,0.0,0.0,0.0,0.0,0.0,0.0,0.0,0.0,0.0,0.0,0.0,0.0,0.0,0.0,0.0,0.0,0.0,0.0,0.0,0.0,0.0,0.0,0.0,0.0,0.0,0.0,0.0,0.0,0.0,0.0,0.0,0.0,0.0,0.0,0.0,0.0,0.0,0.0,0.0,0.0,0.0,0.0,0.0,0.0,0.0,0.0,0.0,0.0,0.0,0.0,0.0,0.0,0.0,0.0,0.0,0.0,0.0,0.0,0.0,0.0,0.0,0.0,0.0,0.0,0.0,0.0,0.0,0.0,0.0,0.0,0.0,0.0,0.0,0.0,0.0,0.0,0.0,0.0,0.0,0.0,0.0,0.0,0.0,0.0,0.0,0.0,0.0,0.0,0.0,0.0,0.0,0.0,0.0,0.0,0.0,0.0,0.0,0.0,0.0,0.0,0.0,0.0,0.0,0.0,0.0,0.0,0.0,0.0,0.0,0.0,0.0,0.0,0.0,0.0,0.0,0.0,0.0,0.0,0.0,0.0,0.0,0.0,0.0,0.0,0.0,0.0,0.0,0.0,0.0,0.0,0.0,0.0,0.0,0.0,0.0,0.0,0.0,0.0,0.0,0.0,0.0,0.0,0.0,0.0,0.0,0.0,0.0,0.0,0.0,0.0,0.0,0.0,0.0,0.0,0.0,0.0,0.0,0.0,0.0,0.0,0.0,0.0,0.0,0.0,0.0,0.0,0.0,0.0,0.0,0.0,0.0,0.0,0.0,0.0,0.0,0.0,0.0,0.0,0.0,0.0,0.0,0.0,0.0,0.0,0.0,0.0,0.0,0.0,0.0,0.0,0.0,0.0,0.0,0.0,0.0,0.0,0.0,0.0,0.0,0.0,0.0,0.0,0.0,0.0,0.0,0.0,0.0,0.0,0.0,0.0,0.0,0.0,0.0,0.0,0.0,0.0,0.0,0.0,0.0,0.0,0.0,0.0,0.0,0.0,0.0,0.0,0.0,0.0,0.0,0.0,0.0,0.0,0.0,0.0,0.0,0.0,0.0,0.0,0.0,0.0,0.0,0.0,0.0,0.0,0.0,0.0,0.0,-2.5438,0.0,0.0,0.0,0.0,0.0,0.0,0.0,0.0,0.0,0.0,0.0,0.0,0.0,0.0,0.0,0.0,0.0,0.0,0.0,0.0,0.0,0.0,0.0,0.0,0.0,0.0,0.0,0.0,0.0,0.0,0.0,0.0,0.0,0.0,0.0,0.0,0.0,0.0,0.0,0.0,0.0,0.0,0.0,0.0,0.0,0.0,0.0,0.0,0.0,0.0,0.0,0.0,0.0,0.0,0.0,0.0,0.0,0.0,0.0,0.0,0.0,0.0,0.0,0.0,0.0,0.0,0.0,0.0,0.0,0.0,0.0,0.0,0.0,0.0,0.0,0.0,0.0,0.0,0.0,0.0,0.0,0.0,0.0,0.0,0.0,0.0,0.0,0.0,0.0,0.0,0.0,0.0,0.0,0.0,0.0,0.0,0.0,0.0,0.0,0.0,0.0,0.0,0.0,0.0,0.0,0.0,0.0,0.0,0.0,0.0,-2.5088,-2.5151,-2.5306,-2.5418,-2.5451,0.0,0.0,0.0,0.0,0.0,0.0,0.0,0.0,0.0,0.0,0.0,0.0,0.0,0.0,0.0,0.0,0.0,0.0,0.0,0.0,0.0,0.0,0.0,0.0,0.0,0.0,0.0,0.0,0.0,0.0,0.0,0.0,0.0,0.0,0.0,0.0,0.0,0.0,0.0,0.0,0.0,0.0,0.0,0.0,0.0,0.0,0.0,0.0,0.0,0.0,0.0,0.0,0.0,0.0,0.0,0.0,0.0,0.0,0.0,0.0,0.0,0.0,0.0,0.0,0.0,0.0,0.0,0.0,0.0,0.0,0.0,0.0,0.0,0.0,0.0,0.0,0.0,0.0,0.0,0.0,0.0,0.0,0.0,0.0,0.0,0.0,0.0,0.0,0.0,0.0,0.0,0.0,0.0,0.0,0.0,0.0,0.0,0.0,0.0,0.0,0.0,0.0,0.0,0.0,0.0,0.0,0.0,0.0,0.0,0.0,0.0,0.0,-2.5293,-2.5395,-2.5495,0.0,0.0,0.0,0.0,0.0,0.0,0.0,0.0,0.0,0.0,0.0,0.0,0.0,0.0,0.0,0.0,0.0,0.0,0.0,0.0,0.0,0.0,0.0,0.0,0.0,0.0,0.0,0.0,0.0,0.0,0.0,0.0,0.0,0.0,0.0,0.0,0.0,0.0,0.0,0.0,0.0,0.0,0.0,0.0,0.0,0.0,0.0,0.0,0.0,0.0,0.0,0.0,0.0,0.0,0.0,0.0,0.0,0.0,0.0,0.0,0.0,0.0,0.0,0.0,0.0,0.0,0.0,0.0,0.0,0.0,0.0,0.0,0.0,0.0,0.0,0.0,0.0,0.0,0.0,0.0,0.0,0.0,0.0,0.0,0.0,0.0,0.0,0.0,0.0,0.0,0.0,0.0,0.0,0.0,0.0,0.0,0.0,0.0,0.0,0.0,0.0,0.0,0.0,0.0,0.0,0.0,0.0,0.0,0.0,0.0,-2.4886,-2.5013,-2.5164,0.0,-2.5493,0.0,0.0,0.0,0.0,0.0,0.0,0.0,0.0,0.0,0.0,0.0,0.0,0.0,0.0,0.0,0.0,0.0,0.0,0.0,0.0,0.0,0.0,0.0,0.0,0.0,0.0,0.0,0.0,0.0,0.0,0.0,0.0,0.0,0.0,0.0,0.0,0.0,0.0,0.0,0.0,0.0,0.0,0.0,0.0,0.0,0.0,0.0,0.0,0.0,0.0,0.0,0.0,0.0,0.0,0.0,0.0,0.0,0.0,0.0,0.0,0.0,0.0,0.0,0.0,0.0,0.0,0.0,0.0,0.0,0.0,0.0,0.0,0.0,0.0,0.0,0.0,0.0,0.0,0.0,0.0,0.0,0.0,0.0,0.0,0.0,0.0,0.0,0.0,0.0,0.0,0.0,0.0,0.0,0.0,0.0,0.0,0.0,0.0,0.0,0.0,0.0,0.0,0.0,0.0,0.0,0.0,0.0,0.0,0.0,0.0,-2.4797,-2.4934,-2.5111,-2.5279,0.0,0.0,0.0,0.0,0.0,0.0,0.0,0.0,0.0,0.0,0.0,0.0,0.0,0.0,0.0,0.0,0.0,0.0,0.0,0.0,0.0,0.0,0.0,0.0,0.0,0.0,0.0,0.0,0.0,0.0,0.0,0.0,0.0,0.0,0.0,0.0,0.0,0.0,0.0,0.0,0.0,0.0,0.0,0.0,0.0,0.0,0.0,0.0,0.0,0.0,0.0,0.0,0.0,0.0,0.0,0.0,0.0,0.0,0.0,0.0,0.0,0.0,0.0,0.0,0.0,0.0,0.0,0.0,0.0,0.0,0.0,0.0,0.0,0.0,0.0,0.0,0.0,0.0,0.0,0.0,0.0,0.0,0.0,0.0,0.0,0.0,0.0,0.0,0.0,0.0,0.0,0.0,0.0,0.0,0.0,0.0,0.0,0.0,0.0,0.0,0.0,0.0,0.0,0.0,0.0,0.0,0.0,0.0,0.0,0.0,-2.4642,-2.4749,-2.4898,-2.5093,-2.5249,-2.5354,0.0,0.0,0.0,0.0,0.0,0.0,0.0,0.0,0.0,0.0,0.0,0.0,0.0,0.0,0.0,0.0,0.0,0.0,0.0,0.0,0.0,0.0,0.0,0.0,0.0,0.0,0.0,0.0,0.0,0.0,0.0,0.0,0.0,0.0,0.0,0.0,0.0,0.0,0.0,0.0,0.0,0.0,0.0,0.0,0.0,0.0,0.0,0.0,0.0,0.0,0.0,0.0,0.0,0.0,0.0,0.0,0.0,0.0,0.0,0.0,0.0,0.0,0.0,0.0,0.0,0.0,0.0,0.0,0.0,0.0,0.0,0.0,0.0,0.0,0.0,0.0,0.0,0.0,0.0,0.0,0.0,0.0,0.0,0.0,0.0,0.0,0.0,0.0,0.0,0.0,0.0,0.0,0.0,0.0,0.0,0.0,0.0,0.0,0.0,0.0,0.0,0.0,0.0,0.0,0.0,0.0,0.0,0.0,-2.4417,-2.4528,-2.4692,-2.4891,-2.5081,-2.5209,0.0,0.0,0.0,0.0,0.0,0.0,0.0,0.0,0.0,0.0,0.0,0.0,0.0,0.0,0.0,0.0,0.0,0.0,0.0,0.0,0.0,0.0,0.0,0.0,0.0,0.0,0.0,0.0,0.0,0.0,0.0,0.0,0.0,0.0,0.0,0.0,0.0,0.0,0.0,0.0,0.0,0.0,0.0,0.0,0.0,0.0,0.0,0.0,0.0,0.0,0.0,0.0,0.0,0.0,0.0,0.0,0.0,0.0,0.0,0.0,0.0,0.0,0.0,0.0,0.0,0.0,0.0,0.0,0.0,0.0,0.0,0.0,0.0,0.0,0.0,0.0,0.0,0.0,0.0,0.0,0.0,0.0,0.0,0.0,0.0,0.0,0.0,0.0,0.0,0.0,0.0,0.0,0.0,0.0,0.0,0.0,0.0,0.0,0.0,0.0,0.0,0.0,0.0,0.0,0.0,0.0,0.0,0.0,0.0,-2.4275,-2.4497,-2.466,-2.4768,-2.5019,-2.5147,0.0,0.0,0.0,0.0,0.0,0.0,0.0,0.0,0.0,0.0,0.0,0.0,0.0,0.0,0.0,0.0,0.0,0.0,0.0,0.0,0.0,0.0,0.0,0.0,0.0,0.0,0.0,0.0,0.0,0.0,0.0,0.0,0.0,0.0,0.0,0.0,0.0,0.0,0.0,0.0,0.0,0.0,0.0,0.0,0.0,0.0,0.0,0.0,0.0,0.0,0.0,0.0,0.0,0.0,0.0,0.0,0.0,0.0,0.0,0.0,0.0,0.0,0.0,0.0,0.0,0.0,0.0,0.0,0.0,0.0,0.0,0.0,0.0,0.0,0.0,0.0,0.0,0.0,0.0,0.0,0.0,0.0,0.0,0.0,0.0,0.0,0.0,0.0,0.0,0.0,0.0,0.0,0.0,0.0,0.0,0.0,0.0,0.0,0.0,0.0,0.0,0.0,0.0,0.0,0.0,0.0,0.0,0.0,0.0,-2.4154,0.0,-2.452,-2.4628,-2.4847,-2.5038,0.0,0.0,0.0,0.0,0.0,0.0,0.0,0.0,0.0,0.0,0.0,0.0,0.0,0.0,0.0,0.0,0.0,0.0,0.0,0.0,0.0,0.0,0.0,0.0,0.0,0.0,0.0,0.0,0.0,0.0,0.0,0.0,0.0,0.0,0.0,0.0,0.0,0.0,0.0,0.0,0.0,0.0,0.0,0.0,0.0,0.0,0.0,0.0,0.0,0.0,0.0,0.0,0.0,0.0,0.0,0.0,0.0,0.0,0.0,0.0,0.0,0.0,0.0,0.0,0.0,0.0,0.0,0.0,0.0,0.0,0.0,0.0,0.0,0.0,0.0,0.0,0.0,0.0,0.0,0.0,0.0,0.0,0.0,0.0,0.0,0.0,0.0,0.0,0.0,0.0,0.0,0.0,0.0,0.0,0.0,0.0,0.0,0.0,0.0,0.0,0.0,0.0,0.0,0.0,0.0,0.0,0.0,0.0,-2.3978,-2.4097,-2.4164,-2.4311,-2.4495,-2.4636,-2.4831,0.0,0.0,0.0,0.0,0.0,0.0,0.0,0.0,0.0,0.0,0.0,0.0,0.0,0.0,0.0,0.0,0.0,0.0,0.0,0.0,0.0,0.0,0.0,0.0,0.0,0.0,0.0,0.0,0.0,0.0,0.0,0.0,0.0,0.0,0.0,0.0,0.0,0.0,0.0,0.0,0.0,0.0,0.0,0.0,0.0,0.0,0.0,0.0,0.0,0.0,0.0,0.0,0.0,0.0,0.0,0.0,0.0,0.0,0.0,0.0,0.0,0.0,0.0,0.0,0.0,0.0,0.0,0.0,0.0,0.0,0.0,0.0,0.0,0.0,0.0,0.0,0.0,0.0,0.0,0.0,0.0,0.0,0.0,0.0,0.0,0.0,0.0,0.0,0.0,0.0,0.0,0.0,0.0,0.0,0.0,0.0,0.0,0.0,0.0,0.0,0.0,0.0,0.0,0.0,0.0,0.0,0.0,0.0,0.0,-2.4018,-2.4201,-2.4303,-2.4375,-2.4617,-2.4853,0.0,0.0,0.0,0.0,0.0,0.0,0.0,0.0,0.0,0.0,0.0,0.0,0.0,0.0,0.0,0.0,0.0,0.0,0.0,0.0,0.0,0.0,0.0,0.0,0.0,0.0,0.0,0.0,0.0,0.0,0.0,0.0,0.0,0.0,0.0,0.0,0.0,0.0,0.0,0.0,0.0,0.0,0.0,0.0,0.0,0.0,0.0,0.0,0.0,0.0,0.0,0.0,0.0,0.0,0.0,0.0,0.0,0.0,0.0,0.0,0.0,0.0,0.0,0.0,0.0,0.0,0.0,0.0,0.0,0.0,0.0,0.0,0.0,0.0,0.0,0.0,0.0,0.0,0.0,0.0,0.0,0.0,0.0,0.0,0.0,0.0,0.0,0.0,0.0,0.0,0.0,0.0,0.0,0.0,0.0,0.0,0.0,0.0,0.0,0.0,0.0,0.0,0.0,0.0,0.0,0.0,0.0,0.0,0.0,-2.3873,-2.4008,-2.4154,-2.431,-2.454,-2.479,-2.5097,0.0,0.0,0.0,0.0,0.0,0.0,0.0,0.0,0.0,0.0,0.0,0.0,0.0,0.0,0.0,0.0,0.0,0.0,0.0,0.0,0.0,0.0,0.0,0.0,0.0,0.0,0.0,0.0,0.0,0.0,0.0,0.0,0.0,0.0,0.0,0.0,0.0,0.0,0.0,0.0,0.0,0.0,0.0,0.0,0.0,0.0,0.0,0.0,0.0,0.0,0.0,0.0,0.0,0.0,0.0,0.0,0.0,0.0,0.0,0.0,0.0,0.0,0.0,0.0,0.0,0.0,0.0,0.0,0.0,0.0,0.0,0.0,0.0,0.0,0.0,0.0,0.0,0.0,0.0,0.0,0.0,0.0,0.0,0.0,0.0,0.0,0.0,0.0,0.0,0.0,0.0,0.0,0.0,0.0,0.0,0.0,0.0,0.0,0.0,0.0,0.0,0.0,0.0,0.0,0.0,0.0,0.0,0.0,-2.3718,-2.3696,-2.3923,-2.4351,-2.4392,-2.462,0.0,0.0,0.0,0.0,0.0,0.0,0.0,0.0,0.0,0.0,0.0,0.0,0.0,0.0,0.0,0.0,0.0,0.0,0.0,0.0,0.0,0.0,0.0,0.0,0.0,0.0,0.0,0.0,0.0,0.0,0.0,0.0,0.0,0.0,0.0,0.0,0.0,0.0,0.0,0.0,0.0,0.0,0.0,0.0,0.0,0.0,0.0,0.0,0.0,0.0,0.0,0.0,0.0,0.0,0.0,0.0,0.0,0.0,0.0,0.0,0.0,0.0,0.0,0.0,0.0,0.0,0.0,0.0,0.0,0.0,0.0,0.0,0.0,0.0,0.0,0.0,0.0,0.0,0.0,0.0,0.0,0.0,0.0,0.0,0.0,0.0,0.0,0.0,0.0,0.0,0.0,0.0,0.0,0.0,0.0,0.0,0.0,0.0,0.0,0.0,0.0,0.0,0.0,0.0,0.0,0.0,0.0,0.0,0.0,-2.3678,-2.3611,-2.3728,-2.4087,-2.4339,-2.4583,0.0,0.0,0.0,0.0,0.0,0.0,0.0,0.0,0.0,0.0,0.0,0.0,0.0,0.0,0.0,0.0,0.0,0.0,0.0,0.0,0.0,0.0,0.0,0.0,0.0,0.0,0.0,0.0,0.0,0.0,0.0,0.0,0.0,0.0,0.0,0.0,0.0,0.0,0.0,0.0,0.0,0.0,0.0,0.0,0.0,0.0,0.0,0.0,0.0,0.0,0.0,0.0,0.0,0.0,0.0,0.0,0.0,0.0,0.0,0.0,0.0,0.0,0.0,0.0,0.0,0.0,0.0,0.0,0.0,0.0,0.0,0.0,0.0,0.0,0.0,0.0,0.0,0.0,0.0,0.0,0.0,0.0,0.0,0.0,0.0,0.0,0.0,0.0,0.0,0.0,0.0,0.0,0.0,0.0,0.0,0.0,0.0,0.0,0.0,0.0,0.0,0.0,0.0,0.0,0.0,0.0,0.0,0.0,-2.3126,-2.3533,-2.3533,-2.3656,-2.3863,-2.4248,-2.4524,0.0,0.0,0.0,0.0,0.0,0.0,0.0,0.0,0.0,0.0,0.0,0.0,0.0,0.0,0.0,0.0,0.0,0.0,0.0,0.0,0.0,0.0,0.0,0.0,0.0,0.0,0.0,0.0,0.0,0.0,0.0,0.0,0.0,0.0,0.0,0.0,0.0,0.0,0.0,0.0,0.0,0.0,0.0,0.0,0.0,0.0,0.0,0.0,0.0,0.0,0.0,0.0,0.0,0.0,0.0,0.0,0.0,0.0,0.0,0.0,0.0,0.0,0.0,0.0,0.0,0.0,0.0,0.0,0.0,0.0,0.0,0.0,0.0,0.0,0.0,0.0,0.0,0.0,0.0,0.0,0.0,0.0,0.0,0.0,0.0,0.0,0.0,0.0,0.0,0.0,0.0,0.0,0.0,0.0,0.0,0.0,0.0,0.0,0.0,0.0,0.0,0.0,0.0,0.0,0.0,0.0,0.0,0.0,-2.3107,-2.3289,-2.3499,-2.3616,-2.3703,-2.4145,-2.4458,0.0,0.0,0.0,0.0,0.0,0.0,0.0,0.0,0.0,0.0,0.0,0.0,0.0,0.0,0.0,0.0,0.0,0.0,0.0,0.0,0.0,0.0,0.0,0.0,0.0,0.0,0.0,0.0,0.0,0.0,0.0,0.0,0.0,0.0,0.0,0.0,0.0,0.0,0.0,0.0,0.0,0.0,0.0,0.0,0.0,0.0,0.0,0.0,0.0,0.0,0.0,0.0,0.0,0.0,0.0,0.0,0.0,0.0,0.0,0.0,0.0,0.0,0.0,0.0,0.0,0.0,0.0,0.0,0.0,0.0,0.0,0.0,0.0,0.0,0.0,0.0,0.0,0.0,0.0,0.0,0.0,0.0,0.0,0.0,0.0,0.0,0.0,0.0,0.0,0.0,0.0,0.0,0.0,0.0,0.0,0.0,0.0,0.0,0.0,0.0,0.0,0.0,0.0,0.0,0.0,0.0,0.0,0.0,-2.3107,-2.3318,-2.3459,-2.3571,-2.37,-2.4056,-2.4266,0.0,0.0,0.0,0.0,0.0,0.0,0.0,0.0,0.0,0.0,0.0,0.0,0.0,0.0,0.0,0.0,0.0,0.0,0.0,0.0,0.0,0.0,0.0,0.0,0.0,0.0,0.0,0.0,0.0,0.0,0.0,0.0,0.0,0.0,0.0,0.0,0.0,0.0,0.0,0.0,0.0,0.0,0.0,0.0,0.0,0.0,0.0,0.0,-2.3712,0.0,0.0,0.0,0.0,0.0,0.0,0.0,0.0,0.0,0.0,0.0,0.0,0.0,0.0,0.0,0.0,0.0,0.0,0.0,0.0,0.0,0.0,0.0,0.0,0.0,0.0,0.0,0.0,0.0,0.0,0.0,0.0,0.0,0.0,0.0,0.0,0.0,0.0,0.0,0.0,0.0,0.0,0.0,0.0,0.0,0.0,0.0,0.0,0.0,0.0,0.0,0.0,0.0,0.0,0.0,0.0,0.0,0.0,0.0,-2.3082,-2.3151,-2.3441,-2.36,-2.3609,-2.3925,-2.4173,0.0,0.0,0.0,0.0,0.0,0.0,0.0,0.0,0.0,0.0,0.0,0.0,0.0,0.0,0.0,0.0,0.0,0.0,0.0,0.0,0.0,0.0,0.0,0.0,0.0,0.0,0.0,0.0,0.0,0.0,0.0,0.0,0.0,0.0,0.0,0.0,0.0,0.0,0.0,0.0,0.0,0.0,0.0,0.0,0.0,0.0,0.0,0.0,0.0,0.0,0.0,0.0,0.0,0.0,0.0,0.0,0.0,0.0,0.0,0.0,0.0,0.0,0.0,0.0,0.0,0.0,0.0,0.0,0.0,0.0,0.0,0.0,0.0,0.0,0.0,0.0,0.0,0.0,0.0,0.0,0.0,0.0,0.0,0.0,0.0,0.0,0.0,0.0,0.0,0.0,0.0,0.0,0.0,0.0,0.0,0.0,0.0,0.0,0.0,0.0,0.0,0.0,0.0,0.0,0.0,0.0,0.0,-2.3008,-2.3082,-2.307,-2.3447,-2.3623,-2.3539,-2.3831,-2.4145,-2.4505,0.0,0.0,0.0,0.0,0.0,0.0,0.0,0.0,0.0,0.0,0.0,0.0,0.0,0.0,0.0,0.0,0.0,0.0,0.0,0.0,0.0,0.0,0.0,0.0,0.0,0.0,0.0,0.0,0.0,0.0,0.0,0.0,0.0,0.0,0.0,0.0,0.0,0.0,-2.0174,-2.1484,0.0,0.0,0.0,0.0,0.0,0.0,0.0,0.0,-2.3007,0.0,0.0,0.0,0.0,0.0,0.0,0.0,0.0,0.0,0.0,0.0,0.0,0.0,0.0,0.0,0.0,0.0,0.0,0.0,0.0,0.0,0.0,0.0,0.0,0.0,0.0,0.0,0.0,0.0,0.0,0.0,0.0,0.0,0.0,0.0,0.0,0.0,0.0,0.0,0.0,0.0,0.0,0.0,0.0,0.0,0.0,0.0,0.0,0.0,0.0,0.0,0.0,0.0,0.0,0.0,0.0,-2.2881,-2.2965,-2.3107,-2.3253,-2.3448,-2.3585,-2.3649,-2.3884,-2.4174,-2.4551,0.0,0.0,0.0,0.0,0.0,0.0,0.0,0.0,0.0,0.0,0.0,0.0,0.0,0.0,0.0,0.0,0.0,0.0,0.0,0.0,0.0,0.0,0.0,0.0,0.0,0.0,0.0,0.0,0.0,0.0,0.0,0.0,0.0,0.0,0.0,0.0,0.0,0.0,0.0,-2.1188,-2.21,0.0,0.0,0.0,0.0,0.0,0.0,0.0,0.0,-2.1146,0.0,0.0,0.0,0.0,0.0,0.0,0.0,0.0,0.0,0.0,0.0,0.0,0.0,0.0,0.0,0.0,0.0,0.0,0.0,0.0,0.0,0.0,0.0,0.0,0.0,0.0,0.0,0.0,0.0,0.0,0.0,0.0,0.0,0.0,0.0,0.0,0.0,0.0,0.0,0.0,0.0,0.0,0.0,0.0,0.0,0.0,0.0,0.0,0.0,0.0,0.0,0.0,0.0,0.0,0.0,-2.2838,-2.3033,-2.3119,-2.3156,-2.3453,-2.3589,-2.3589,-2.3831,-2.4155,0.0,0.0,0.0,0.0,0.0,0.0,0.0,0.0,0.0,0.0,0.0,0.0,0.0,0.0,0.0,0.0,0.0,0.0,0.0,0.0,0.0,0.0,0.0,0.0,0.0,0.0,0.0,0.0,0.0,0.0,0.0,0.0,0.0,0.0,0.0,0.0,0.0,0.0,0.0,0.0,-2.1388,-2.1963,-2.2822,0.0,0.0,0.0,0.0,0.0,0.0,-2.2434,-2.2034,0.0,0.0,0.0,0.0,0.0,0.0,0.0,0.0,0.0,0.0,0.0,0.0,0.0,0.0,0.0,0.0,0.0,0.0,0.0,0.0,0.0,0.0,0.0,0.0,0.0,0.0,0.0,0.0,0.0,0.0,0.0,0.0,0.0,0.0,0.0,0.0,0.0,0.0,0.0,0.0,0.0,0.0,0.0,0.0,0.0,0.0,0.0,0.0,0.0,0.0,0.0,0.0,0.0,0.0,0.0,-2.2829,-2.3028,-2.3132,-2.3102,-2.3476,-2.3623,-2.3567,-2.3813,-2.4145,0.0,0.0,0.0,0.0,0.0,0.0,0.0,0.0,0.0,0.0,0.0,0.0,0.0,0.0,0.0,0.0,0.0,0.0,0.0,0.0,0.0,0.0,0.0,0.0,0.0,0.0,0.0,0.0,0.0,0.0,0.0,0.0,0.0,0.0,0.0,0.0,0.0,0.0,0.0,0.0,0.0,-2.21,-2.2784,-2.3572,0.0,0.0,0.0,0.0,-2.2762,-2.3052,0.0,0.0,0.0,0.0,0.0,0.0,0.0,0.0,0.0,0.0,0.0,0.0,0.0,0.0,0.0,0.0,0.0,0.0,0.0,0.0,0.0,0.0,0.0,0.0,0.0,0.0,0.0,0.0,0.0,0.0,0.0,0.0,0.0,0.0,0.0,0.0,0.0,0.0,0.0,0.0,0.0,0.0,0.0,0.0,0.0,0.0,0.0,0.0,0.0,0.0,0.0,0.0,0.0,0.0,0.0,0.0,-2.2893,-2.2932,-2.3107,-2.3418,-2.3505,-2.36,-2.3753,-2.3969,-2.4183,0.0,0.0,0.0,0.0,0.0,0.0,0.0,0.0,0.0,0.0,0.0,0.0,0.0,0.0,0.0,0.0,0.0,0.0,0.0,0.0,0.0,0.0,0.0,0.0,0.0,0.0,0.0,0.0,0.0,0.0,0.0,0.0,0.0,0.0,0.0,0.0,0.0,0.0,0.0,0.0,0.0,-2.2547,-2.2687,-2.3516,-2.4027,0.0,0.0,-2.3138,-2.3498,-2.2977,0.0,0.0,0.0,0.0,0.0,0.0,0.0,0.0,0.0,0.0,0.0,0.0,0.0,0.0,0.0,0.0,0.0,0.0,0.0,0.0,0.0,0.0,0.0,0.0,0.0,0.0,0.0,0.0,0.0,0.0,0.0,0.0,0.0,0.0,0.0,0.0,0.0,0.0,0.0,0.0,0.0,0.0,0.0,0.0,0.0,0.0,0.0,0.0,0.0,0.0,0.0,0.0,0.0,0.0,0.0,-2.2816,-2.2889,-2.2944,-2.3052,-2.3277,-2.3418,-2.3533,-2.3627,-2.3988,-2.422,0.0,0.0,0.0,0.0,0.0,0.0,0.0,0.0,0.0,0.0,0.0,0.0,0.0,0.0,0.0,0.0,0.0,0.0,0.0,0.0,0.0,0.0,0.0,0.0,0.0,0.0,0.0,0.0,0.0,0.0,0.0,0.0,0.0,0.0,0.0,0.0,0.0,0.0,0.0,0.0,0.0,0.0,-2.2763,-2.3505,0.0,0.0,0.0,-2.3662,-2.3696,0.0,0.0,0.0,0.0,0.0,0.0,0.0,0.0,0.0,0.0,0.0,0.0,0.0,0.0,0.0,0.0,0.0,0.0,0.0,0.0,0.0,0.0,0.0,0.0,0.0,0.0,0.0,0.0,0.0,0.0,0.0,0.0,0.0,0.0,0.0,0.0,0.0,0.0,0.0,0.0,0.0,0.0,0.0,0.0,0.0,0.0,0.0,0.0,0.0,0.0,0.0,0.0,0.0,0.0,0.0,0.0,0.0,-2.2906,-2.297,-2.3057,-2.3139,-2.3372,-2.3517,-2.3544,-2.3958,0.0,0.0,0.0,0.0,0.0,0.0,0.0,0.0,0.0,0.0,0.0,0.0,0.0,0.0,0.0,0.0,0.0,0.0,0.0,0.0,0.0,0.0,0.0,0.0,0.0,0.0,0.0,-2.2705,0.0,0.0,0.0,0.0,0.0,0.0,0.0,0.0,0.0,0.0,0.0,0.0,0.0,0.0,-2.2994,-2.3052,-2.3563,-2.3955,0.0,0.0,-2.4006,-2.3774,-2.3735,-2.3718,0.0,0.0,0.0,0.0,0.0,0.0,0.0,0.0,0.0,0.0,0.0,0.0,0.0,0.0,0.0,0.0,0.0,0.0,0.0,0.0,0.0,0.0,0.0,0.0,0.0,0.0,0.0,0.0,0.0,0.0,0.0,0.0,0.0,0.0,0.0,0.0,0.0,0.0,0.0,0.0,0.0,0.0,0.0,0.0,0.0,0.0,0.0,0.0,0.0,0.0,0.0,0.0,0.0,0.0,0.0,-2.2889,-2.297,-2.3095,-2.3277,-2.3418,-2.3562,-2.3689,-2.3949,-2.4174,0.0,0.0,0.0,0.0,0.0,0.0,0.0,0.0,0.0,0.0,0.0,0.0,0.0,0.0,0.0,0.0,0.0,0.0,0.0,0.0,0.0,0.0,0.0,0.0,0.0,0.0,0.0,0.0,0.0,0.0,0.0,0.0,0.0,0.0,0.0,0.0,0.0,0.0,0.0,0.0,0.0,-2.3602,-2.3721,-2.3785,-2.3813,0.0,0.0,-2.3816,-2.3795,-2.3735,-2.3742,-2.3845,0.0,0.0,0.0,0.0,0.0,0.0,0.0,0.0,0.0,0.0,0.0,0.0,0.0,0.0,0.0,0.0,0.0,0.0,0.0,0.0,0.0,0.0,0.0,0.0,0.0,0.0,0.0,0.0,0.0,0.0,0.0,0.0,0.0,0.0,0.0,0.0,0.0,0.0,0.0,0.0,0.0,0.0,0.0,0.0,0.0,0.0,0.0,0.0,0.0,0.0,0.0,0.0,0.0,-2.3068,-2.3628,-2.3227,-2.3348,-2.3991,-2.3697,-2.3555,-2.3689,-2.4056,-2.4248,0.0,0.0,0.0,0.0,0.0,0.0,0.0,0.0,0.0,0.0,0.0,0.0,0.0,0.0,0.0,0.0,0.0,0.0,0.0,0.0,0.0,0.0,0.0,0.0,0.0,0.0,0.0,0.0,-2.1204,-2.1014,-2.182,0.0,0.0,0.0,0.0,0.0,0.0,0.0,0.0,0.0,0.0,-2.3732,-2.38,-2.38,0.0,0.0,-2.3845,-2.3827,-2.3764,-2.3785,-2.3795,-2.3779,-2.3771,0.0,0.0,0.0,0.0,0.0,0.0,0.0,0.0,0.0,0.0,0.0,0.0,0.0,0.0,0.0,0.0,0.0,0.0,0.0,0.0,0.0,0.0,0.0,0.0,0.0,0.0,0.0,0.0,0.0,0.0,0.0,0.0,0.0,0.0,0.0,0.0,0.0,0.0,0.0,0.0,0.0,0.0,0.0,0.0,0.0,0.0,0.0,0.0,0.0,0.0,0.0,0.0,-2.3489,-2.4094,-2.3632,-2.3759,-2.4463,-2.3839,-2.3555,-2.37,-2.4036,-2.4248,0.0,0.0,0.0,0.0,0.0,0.0,0.0,0.0,0.0,0.0,0.0,0.0,0.0,0.0,0.0,0.0,0.0,0.0,0.0,0.0,0.0,0.0,0.0,0.0,0.0,0.0,0.0,0.0,-2.1256,-2.1129,-2.1747,0.0,0.0,0.0,0.0,0.0,0.0,0.0,0.0,0.0,0.0,-2.38,-2.3792,-2.3807,-2.3807,-2.3813,-2.3837,-2.3876,-2.3819,-2.3858,-2.3876,-2.3813,0.0,0.0,0.0,0.0,0.0,0.0,0.0,0.0,0.0,0.0,0.0,0.0,0.0,0.0,0.0,0.0,0.0,0.0,0.0,0.0,0.0,0.0,0.0,0.0,0.0,0.0,0.0,0.0,0.0,0.0,-2.4853,0.0,0.0,0.0,0.0,0.0,0.0,0.0,0.0,0.0,0.0,0.0,0.0,0.0,0.0,0.0,0.0,0.0,0.0,0.0,0.0,0.0,0.0,-2.4094,-2.4129,-2.4257,-2.4355,-2.4529,-2.3857,-2.3591,-2.3718,-2.3922,-2.4164,-2.449,0.0,0.0,0.0,0.0,0.0,0.0,0.0,0.0,0.0,0.0,0.0,0.0,0.0,0.0,0.0,0.0,0.0,0.0,0.0,0.0,0.0,0.0,0.0,0.0,0.0,0.0,-2.2563,-2.2494,-2.2409,0.0,0.0,0.0,0.0,0.0,0.0,0.0,0.0,0.0,0.0,-2.3779,-2.3803,-2.3797,-2.3804,-2.3807,-2.3813,-2.3806,-2.3868,-2.403,-2.3969,-2.3947,0.0,0.0,0.0,0.0,0.0,0.0,0.0,0.0,0.0,0.0,0.0,0.0,0.0,0.0,0.0,0.0,0.0,0.0,0.0,0.0,0.0,0.0,0.0,0.0,0.0,0.0,0.0,-2.7095,-2.6855,0.0,0.0,0.0,0.0,0.0,0.0,0.0,0.0,0.0,0.0,0.0,-2.6519,-2.6773,0.0,0.0,0.0,0.0,0.0,0.0,0.0,0.0,0.0,0.0,0.0,0.0,-2.5105,-2.5593,-2.5354,-2.5521,-2.6116,-2.5022,-2.448,-2.4548,-2.433,-2.4389,-2.4804,0.0,0.0,0.0,0.0,0.0,0.0,0.0,0.0,0.0,0.0,0.0,0.0,0.0,0.0,0.0,0.0,0.0,0.0,0.0,0.0,0.0,0.0,0.0,0.0,0.0,-2.3193,0.0,0.0,0.0,0.0,0.0,0.0,0.0,0.0,0.0,0.0,0.0,-2.3858,-2.3894,-2.3845,-2.3806,-2.3863,-2.3842,-2.3771,0.0,0.0,0.0,0.0,0.0,0.0,0.0,0.0,0.0,0.0,0.0,0.0,0.0,0.0,-2.2786,-2.2592,-2.247,-2.2402,-2.2402,0.0,0.0,0.0,0.0,0.0,0.0,0.0,0.0,0.0,0.0,0.0,0.0,0.0,0.0,-2.7539,0.0,-2.7459,0.0,0.0,0.0,0.0,0.0,0.0,0.0,0.0,-2.7106,-2.7072,-2.7039,-2.7072,-2.7089,0.0,-2.7089,-2.7106,0.0,0.0,0.0,0.0,0.0,0.0,0.0,0.0,-2.5931,-2.6457,-2.6227,-2.641,-2.6982,-2.5943,-2.5359,-2.5407,-2.503,-2.4888,-2.4987,-2.5201,-2.5327,0.0,0.0,0.0,0.0,0.0,0.0,0.0,0.0,0.0,0.0,0.0,0.0,0.0,0.0,0.0,0.0,0.0,0.0,0.0,0.0,0.0,0.0,0.0,-2.3599,0.0,0.0,0.0,0.0,0.0,0.0,0.0,0.0,0.0,-2.4006,-2.3937,-2.3925,-2.3917,-2.3896,-2.3876,-2.3876,0.0,0.0,0.0,0.0,0.0,0.0,0.0,-2.3711,-2.3703,-2.3779,-2.3813,-2.3792,-2.345,-2.308,-2.2794,0.0,0.0,-2.2429,-2.2357,-2.2318,-2.2318,-2.2144,-2.2041,-2.2124,-2.1297,-2.0589,0.0,0.0,0.0,0.0,0.0,0.0,0.0,0.0,-2.8437,-2.804,0.0,-2.8127,0.0,0.0,0.0,0.0,0.0,-2.7299,0.0,0.0,-2.7299,-2.7217,-2.7119,-2.725,-2.7233,-2.7119,-2.725,-2.7346,-2.7393,-2.7198,0.0,0.0,0.0,0.0,0.0,0.0,-2.6616,-2.6756,-2.6821,-2.6983,-2.7218,-2.6525,-2.6176,-2.6213,-2.5968,-2.5597,-2.5095,-2.5258,-2.539,-2.5464,-2.6249,0.0,0.0,0.0,0.0,0.0,0.0,0.0,0.0,0.0,0.0,0.0,0.0,0.0,0.0,0.0,0.0,0.0,0.0,0.0,0.0,-2.4155,0.0,0.0,0.0,0.0,0.0,0.0,0.0,0.0,0.0,0.0,-2.4006,-2.4064,-2.4016,-2.3827,0.0,0.0,0.0,0.0,-2.3896,-2.3896,-2.3837,-2.3855,-2.3976,-2.3821,-2.3721,-2.371,0.0,0.0,-2.3616,-2.3212,-2.2837,-2.2569,-2.2206,-2.207,-2.2567,-2.2514,-2.2436,-2.2436,-2.215,-2.2062,-2.2232,-2.0894,-1.9762,-3.0196,0.0,0.0,0.0,0.0,-2.9179,-2.9179,-2.9179,-2.9179,-2.9075,-2.8903,-2.9092,0.0,0.0,0.0,0.0,0.0,0.0,-2.7315,-2.7315,-2.7315,-2.7283,-2.725,-2.7282,-2.7313,-2.7312,-2.7345,-2.7407,-2.7467,-2.7419,-2.7388,-2.7388,0.0,0.0,0.0,0.0,-2.7518,-2.7688,-2.7852,-2.7973,-2.8052,-2.741,-2.7017,-2.6859,-2.6761,-2.6518,-2.6082,-2.6165,-2.6241,-2.6332,-2.6556,0.0,0.0,0.0,0.0,0.0,0.0,0.0,0.0,0.0,0.0,0.0,0.0,0.0,0.0,0.0,0.0,0.0,0.0,0.0,-2.4211,-2.4118,-2.4014,0.0,0.0,0.0,0.0,0.0,0.0,0.0,0.0,0.0,-2.4151,-2.4084,-2.3986,0.0,0.0,-2.3896,-2.3816,-2.3816,-2.3827,-2.3845,-2.3803,0.0,-2.385,-2.3765,-2.3711,-2.3721,-2.3743,-2.3765,-2.3739,-2.3283,-2.286,-2.2797,-2.2358,-2.2027,-2.2139,-2.2101,-2.2015,-2.1969,-2.1542,-2.1192,-2.1158,-2.0047,-1.9027,-3.2101,-3.0853,-2.9903,-2.9696,-2.9972,-2.9972,-2.9972,-2.9972,-2.9972,-2.9817,-2.9541,-2.9834,-2.9799,-2.9472,-2.9058,0.0,0.0,0.0,-2.7778,-2.7761,-2.7499,-2.7374,-2.7392,-2.7376,-2.739,-2.7438,-2.7436,-2.7483,-2.7524,-2.7542,-2.7602,-2.7692,0.0,0.0,-2.7864,-2.7936,-2.8049,-2.8205,-2.8327,-2.8419,-2.8471,-2.8166,-2.7889,-2.7698,-2.7621,-2.7388,-2.7033,-2.7075,-2.7127,-2.7166,-2.7517,-2.7829,0.0,0.0,0.0,0.0,0.0,0.0,0.0,0.0,0.0,0.0,0.0,-2.5243,-2.5306,0.0,0.0,0.0,-2.4881,-2.4756,-2.4495,-2.4391,0.0,0.0,0.0,0.0,0.0,0.0,0.0,-2.3646,-2.398,-2.4247,-2.417,-2.4103,-2.4034,-2.3896,-2.3937,-2.3937,-2.3865,0.0,-2.3847,-2.3806,-2.38,-2.3804,-2.3804,-2.3732,-2.3718,-2.3718,-2.3743,-2.3815,-2.3789,-2.3359,-2.2977,-2.2848,-2.2439,-2.2061,-2.2013,-2.1709,-2.1437,-2.1437,-2.1119,-2.0764,-2.048,-1.9516,-1.8729,-3.399,-3.2935,-3.0784,-3.0248,-3.0783,-3.08,-3.0783,-3.0783,-3.0783,-3.0368,-2.9748,-3.0455,-3.0352,-2.9592,-2.9592,0.0,-2.9489,-2.8865,-2.8604,-2.8568,-2.7969,-2.767,-2.767,-2.7687,-2.765,-2.7616,-2.7598,-2.7611,-2.7617,-2.7615,-2.7766,-2.7996,-2.7908,-2.7936,-2.8109,-2.8191,-2.8268,-2.8406,-2.8406,-2.8484,-2.8637,-2.8706,-2.8724,-2.8717,-2.8517,-2.8256,-2.7936,-2.7975,-2.7999,-2.8029,-2.8777,-2.8919,-2.8346,0.0,0.0,0.0,0.0,0.0,0.0,0.0,0.0,0.0,0.0,0.0,0.0,0.0,0.0,0.0,-2.5151,0.0,-2.4999,-2.4889,0.0,0.0,0.0,-2.43,-2.4264,-2.4353,-2.4373,-2.4266,0.0,0.0,-2.4152,-2.418,-2.417,-2.4036,-2.4056,-2.4064,-2.3935,-2.3955,-2.3955,-2.3816,-2.38,-2.3804,-2.3797,-2.3765,-2.3732,-2.3754,-2.3765,-2.3825,-2.3775,-2.3406,-2.3074,-2.2952,-2.2514,-2.2132,-2.1943,-2.139,-2.0893,-2.0743,-2.0679,-2.0495,-1.9846,-1.9156,-1.8639,-3.4439,-3.3167,-3.3126,-3.2515,-3.1616,-3.1634,-3.1598,-3.1616,-3.156,-3.142,-3.1265,-3.1455,-3.1147,-3.0491,-3.0438,-3.0162,-2.9725,-2.9502,-2.9432,-2.9463,-2.9339,-2.9251,-2.9269,-2.9269,-2.8987,-2.851,-2.8493,-2.8209,-2.7707,-2.7839,-2.7996,-2.8164,-2.8232,-2.8286,-2.8327,-2.834,-2.8419,-2.8549,-2.8549,-2.8676,-2.8971,-2.9027,-2.9263,-2.9588,-2.9592,-2.9332,-2.8814,-2.8821,-2.8846,-2.8898,-2.9086,-2.9437,-2.9986,-2.9424,0.0,0.0,0.0,0.0,0.0,0.0,0.0,0.0,0.0,-2.5394,-2.5461,0.0,-2.5198,0.0,-2.5138,-2.5049,-2.4936,-2.4929,0.0,0.0,-2.457,-2.4556,-2.4791,-2.4618,-2.4528,-2.4655,-2.4599,-2.4498,-2.4339,-2.4348,-2.4293,-2.4173,-2.4114,-2.4044,-2.3865,-2.3868,-2.3896,-2.3816,-2.3813,-2.3803,-2.3803,-2.3824,-2.3873,-2.3925,-2.3894,-2.3884,-2.3865,-2.3445,-2.3091,-2.3012,-2.2611,-2.2104,-2.1525,-2.1221,-2.0664,-1.9672,-1.9319,-1.9265,-1.9064,-1.8507,-1.8042,-3.5444,-3.4341,-3.4392,-3.3711,-3.2577,-3.2486,-3.2223,-3.1912,-3.1857,-3.1839,-3.1839,-3.1928,-3.174,-3.1376,-3.1341,-3.1133,-3.0819,-3.0454,-3.0349,-3.0364,-3.0065,-2.9942,-2.9942,-2.9942,-2.9731,-2.9376,-2.9453,-2.9253,-2.8876,-2.9053,-2.923,-2.9353,-2.944,-2.9508,-2.9507,-2.8845,-2.8536,-2.865,-2.8761,-2.8959,-2.9266,-2.9307,-2.956,-3.0056,-3.0041,-2.9904,-2.9682,-2.9665,-2.9723,-2.9771,-2.981,-3.0059,-3.0576,-2.9862,-2.9418,0.0,0.0,0.0,0.0,0.0,0.0,0.0,0.0,0.0,0.0,0.0,-2.5264,-2.5248,-2.5238,-2.5185,-2.505,-2.5049,-2.505,-2.4936,-2.484,-2.4823,-2.4996,-2.4832,-2.473,-2.4798,-2.4726,-2.4658,-2.4507,-2.4444,-2.4372,-2.4284,-2.4247,-2.4134,-2.3999,-2.3969,-2.3947,-2.3896,-2.3827,-2.3795,-2.3795,-2.3865,-2.3888,-2.3907,-2.3845,-2.3764,-2.375,-2.3359,-2.2998,-2.2973,-2.241,-2.1796,-2.1355,-2.0675,-1.9962,-1.9265,-1.8698,-1.8454,-1.8373,-1.8087,-1.7867,-3.651,-3.5679,-3.5053,-3.4283,-3.3386,-3.322,-3.2676,-3.193,-3.193,-3.1912,-3.1912,-3.2055,-3.209,-3.209,-3.209,-3.2126,-3.2109,-3.1533,-3.1252,-3.1217,-3.067,-3.0404,-3.0419,-3.0437,-3.0366,-3.0293,-3.0415,-3.0422,-3.0348,-3.0547,-3.0679,-3.0808,-3.0822,-3.0892,-3.0944,-2.9621,-2.8898,-2.8901,-2.9037,-2.9237,-2.9533,-2.9533,-2.979,-3.0266,-3.014,-3.0168,-3.0385,-3.04,-3.0433,-3.0514,-3.0579,-3.0647,-3.069,-2.9988,-2.9595,0.0,-2.8884,0.0,0.0,0.0,0.0,0.0,0.0,0.0,0.0,-2.546,-2.5432,-2.5452,-2.551,-2.5553,-2.5548,-2.5524,-2.5497,-2.544,-2.5418,-2.5387,-2.5339,-2.5313,-2.5291,-2.5163,-2.5149,-2.5065,-2.4853,-2.4678,-2.4598,-2.4435,-2.4374,-2.4321,-2.4238,-2.4163,-2.4075,-2.4044,-2.3917,-2.3865,-2.3876,-2.3907,-2.3917,-2.3847,-2.3724,-2.3617,-2.362,-2.3218,-2.2889,-2.2807,-2.2117,-2.1408,-2.1272,-2.0077,-1.9132,-1.8916,-1.8427,-1.8018,-1.7924,-1.7912,-1.7922,-3.6531,-3.5773,-3.5593,-3.4718,-3.3475,-3.3384,-3.2876,-3.2144,-3.209,-3.2002,-3.1912,-3.2037,-3.209,-3.209,-3.209,-3.2196,-3.2336,-3.2092,-3.2057,-3.216,-3.2037,-3.2034,-3.2114,-3.2114,-3.1877,-3.1418,-3.1428,-3.1123,-3.0564,-3.0675,-3.0779,-3.079,-3.092,-3.0998,-3.1061,0.0,0.0,0.0,-2.9466,-2.9367,-2.9713,-2.9799,-2.9977,-3.0279,-3.026,0.0,-3.0381,-3.0392,-3.0449,-3.0559,-3.0597,0.0,0.0,0.0,0.0,0.0,0.0,0.0,0.0,0.0,0.0,0.0,-2.7478,-2.6354,-2.5651,-2.5482,-2.5674,-2.6285,-2.6347,-2.6629,-2.724,-2.7313,-2.7278,-2.723,-2.7147,-2.7101,-2.7044,-2.7015,-2.7005,-2.699,-2.6983,-2.6635,-2.5814,-2.5769,-2.5432,-2.4622,-2.4522,-2.4505,-2.4446,-2.4303,-2.4182,-2.4152,-2.4084,-2.4064,-2.4132,-2.4074,-2.4064,-2.4084,-2.3876,-2.3682,-2.3617,-2.3242,-2.2902,-2.2854,-2.2082,-2.1152,-2.055,-1.9701,-1.8905,-1.8335,-1.8107,-1.8,-1.7989,-1.7972,-1.8005,-3.6761,0.0,-3.5929,-3.5123,0.0,-3.3633,-3.3002,-3.2284,-3.2179,-3.2109,-3.2055,-3.2179,-3.2249,-3.2249,-3.2249,-3.2301,-3.2406,-3.2336,-3.2319,-3.2406,-3.2473,-3.254,-3.2588,-3.2705,-3.2588,-3.2293,-3.2355,-3.2204,-3.1876,-3.2007,-3.2137,-3.2246,-3.2315,-3.2248,-3.1973,-3.1249,-3.0729,-3.0357,-2.9817,-2.9653,-2.984,-2.9985,-3.0128,-3.0292,-3.0298,0.0,0.0,0.0,0.0,0.0,0.0,0.0,0.0,0.0,0.0,-3.0694,-3.07,-3.0675,-3.0583,-3.0176,-2.9765,-2.9264,-2.8101,-2.7068,-2.6293,-2.6516,-2.6841,-2.72,-2.7237,-2.7385,-2.7746,-2.7806,-2.7776,-2.7708,-2.7663,-2.7611,-2.7568,-2.7519,-2.7345,-2.6985,-2.6868,-2.6517,-2.5626,-2.5476,-2.528,-2.474,-2.4621,-2.459,-2.4541,-2.4375,-2.4238,-2.4199,-2.417,-2.4075,-2.3986,-2.4016,-2.3966,-2.3831,-2.3631,-2.3497,-2.3429,-2.3072,-2.2699,-2.2301,-2.1514,-2.0654,-1.9899,-1.9172,-1.8586,-1.8233,-1.8176,-1.8159,-1.8048,-1.8042,-1.8117,-3.6989,-3.6937,-3.6145,-3.5372,-3.4635,-3.3845,-3.3161,-3.2581,0.0,0.0,0.0,-3.2319,-3.2371,-3.2371,-3.2388,-3.2406,-3.2406,-3.2406,-3.2405,-3.2422,-3.2539,-3.2639,-3.2705,-3.285,-3.2979,-3.3039,-3.3101,-3.3193,-3.325,-3.3401,-3.3573,-3.3793,-3.3852,-3.358,-3.292,-3.1653,-3.084,-3.0528,-3.0113,-2.991,-2.995,-3.0114,-3.0235,-3.0304,-3.0297,-3.0352,-3.0422,-3.0476,-3.0554,-3.0592,-3.0665,-3.0694,-3.0728,-3.0768,-3.0761,-3.0707,-3.0665,-3.0613,-3.05,-3.054,-3.0168,-2.926,-2.8671,-2.7997,-2.7171,-2.7644,-2.8028,-2.814,-2.813,-2.8156,-2.822,-2.8247,-2.8217,-2.8166,-2.8134,-2.8127,-2.8079,-2.7992,-2.7742,-2.6918,-2.6821,-2.6299,-2.5446,-2.5213,-2.4952,-2.4787,-2.466,-2.4566,-2.4524,-2.4393,-2.4303,-2.4228,-2.4171,-2.4075,-2.3847,-2.3865,-2.3824,-2.3587,-2.3435,-2.3301,-2.318,-2.2952,-2.2509,-2.1863,-2.1013,-2.0287,-1.9509,-1.8839,-1.8322,-1.8215,-1.8294,-1.8318,-1.8081,-1.8074,-1.8142,-3.6989,-3.6937,-3.6145,-3.5372,-3.4635,-3.3863,-3.3459,-3.3283,-3.2652,-3.2301,-3.2197,-3.2336,-3.2319,-3.2249,-3.2354,-3.2406,-3.2406,-3.2406,-3.2474,-3.2573,-3.2589,-3.2736,-3.3024,-3.3055,-3.3253,-3.3559,-3.3433,-3.3549,-3.3842,-3.3792,-3.3865,-3.4124,-3.4201,-3.3866,-3.317,-3.2495,-3.1787,-3.1004,-3.0272,-2.9984,-3.0161,-3.0253,-3.0286,-3.0304,-3.0358,-3.0422,-3.0479,-3.0545,-3.0573,-3.0613,-3.066,-3.0736,-3.0779,-3.074,-3.0705,-3.0698,-3.0586,-3.0521,-3.049,-3.0449,-3.0078,-2.9331,-2.9712,-2.9436,-2.7992,-2.7883,-2.8251,-2.8994,-2.9033,-2.9266,-2.9849,-2.9883,-2.9819,-2.9778,-2.9775,-2.9746,-2.9644,-2.9596,-2.9224,-2.8379,-2.8445,-2.772,-2.6219,-2.5899,-2.5488,-2.4845,-2.4588,-2.4515,-2.4303,-2.4348,-2.4384,-2.4247,-2.4135,-2.4039,-2.3868,-2.3845,-2.3785,-2.3771,-2.3553,-2.3435,-2.3377,-2.3105,-2.2635,-2.196,-2.1126,-2.0392,-1.9629,-1.8971,-1.8435,-1.8156,-1.8166,-1.8103,-1.7872,-1.7922,-1.7977,-3.6989,-3.6954,-3.6601,-3.6004,-3.5214,-3.4038,-3.3494,-3.3477,-3.3161,-3.2967,-3.2914,-3.3072,-3.2844,-3.2336,-3.2456,-3.2473,-3.2423,-3.2557,-3.2669,-3.2781,-3.3065,-3.3258,-3.3433,-3.3518,-3.3694,-3.3842,-3.378,-3.3855,-3.4086,-3.4037,-3.416,-3.4398,-3.4141,-3.3658,-3.2929,-3.2256,-3.1941,-3.1992,-3.0708,-3.0118,-3.0241,-3.028,-3.0298,-3.0367,-3.0394,-3.0433,-3.0481,-3.0554,-3.0613,-3.0653,-3.0707,-3.0769,-3.0784,-3.0761,-3.0745,-3.07,-3.0594,-3.0543,-3.049,-3.0425,-3.0192,-2.9854,-3.0107,-3.0011,-2.9267,-2.9209,-2.9388,-2.9789,-2.98,-2.9931,-3.0266,-3.0273,-3.0246,-3.0213,-2.9758,-2.9653,-3.0023,-2.9708,-2.9096,-2.8313,-2.8055,-2.7335,-2.5633,-2.5344,-2.5142,-2.4576,-2.4471,-2.4367,-2.418,-2.4247,-2.4294,-2.4134,-2.4057,-2.3939,-2.3735,-2.3742,-2.3657,-2.3468,-2.3394,-2.3354,-2.3271,-2.2869,-2.2201,-2.1434,-2.0679,-1.9836,-1.899,-1.861,-1.8284,-1.8046,-1.8044,-1.798,-1.7788,-1.7709,-1.7766,-3.6989,-3.6989,-3.6989,-3.6589,-3.582,-3.4464,-3.3988,-3.4147,-3.42,-3.4182,-3.4058,-3.3899,-3.33,-3.2458,-3.2606,-3.2639,-3.2574,-3.2797,-3.2999,-3.3115,-3.3504,-3.3711,-3.3773,-3.3941,-3.4023,-3.4043,-3.4049,-3.4167,-3.4316,-3.434,-3.4472,-3.4678,-3.4308,-3.3743,-3.3005,-3.2198,-3.2029,-3.2391,-3.1191,-3.0541,-3.0593,-3.0791,-3.0745,-3.0416,-3.0598,-3.0623,-3.0545,-3.0577,-3.0641,-3.0691,-3.0759,-3.08,-3.0792,-3.0781,-3.0742,-3.0681,-3.062,-3.055,-3.0465,-3.0358,-3.0311,-3.0312,-3.0226,-3.018,-3.0174,-3.0215,-3.0228,-3.0248,-3.0222,-3.0235,-3.0221,-3.0182,-3.0161,-3.0066,-2.9515,-2.9395,-2.9867,-2.9444,-2.8719,-2.7925,-2.7615,-2.6968,-2.5635,-2.512,-2.5009,-2.4754,-2.4506,-2.4401,-2.4177,-2.4112,-2.4054,-2.3976,-2.3937,-2.3837,-2.3573,-2.3573,-2.3531,-2.3229,-2.3289,-2.3324,-2.3165,-2.2605,-2.182,-2.1094,-2.0309,-1.9471,-1.8464,-1.8208,-1.8135,-1.7905,-1.7938,-1.7915,-1.7663,-1.7569,-1.7587,-3.7007,-3.6989,-3.7009,-3.6762,-3.6274,-3.5418,-3.5418,-3.606,-3.6305,-3.6202,-3.5651,-3.4429,-3.3335,-3.2527,-3.2882,-3.2986,-3.289,-3.3196,-3.3425,-3.3588,-3.3675,-3.38,-3.3985,-3.3998,-3.4099,-3.4257,-3.4221,-3.4386,-3.4718,-3.4732,-3.4851,-3.5124,-3.5089,-3.4647,-3.3861,-3.3062,-3.2357,-3.1663,-3.1513,-3.1476,-3.1533,-3.2263,-3.1949,-3.0444,-3.1185,-3.1267,-3.0685,-3.06,-3.0634,-3.0691,-3.0759,-3.0776,-3.0739,-3.0712,-3.0681,-3.0601,-3.055,-3.0486,-3.0422,-3.0346,-3.0305,-3.0312,-3.0226,-3.0183,-3.0125,-3.0068,-3.0053,-3.0095,-3.017,-3.0122,-2.9981,-3.003,-3.0007,-2.982,-2.9618,-2.9632,-2.9585,-2.9597,-2.9193,-2.8339,-2.7937,-2.7809,-2.6632,-2.6283,-2.6042,-2.5064,-2.4785,-2.4525,-2.4018,-2.3871,-2.385,-2.3779,-2.3789,-2.375,-2.3616,-2.3533,-2.351,-2.3459,-2.3459,-2.3436,-2.3283,-2.3011,-2.2546,-2.1173,-2.0447,-1.9652,-1.8687,-1.8101,-1.8033,-1.7828,-1.7789,-1.7766,-1.7581,-1.7515,-1.7529,-3.7241,-3.73,-3.73,-3.7362,-3.7268,-3.6544,-3.6415,-3.6754,-3.6855,-3.6586,-3.6103,-3.5933,-3.5047,-3.3591,-3.3502,-3.3382,-3.3299,-3.3584,-3.3823,-3.3948,-3.4099,-3.4239,-3.434,-3.4351,-3.445,-3.4572,-3.458,-3.4708,-3.4955,-3.5019,-3.485,-3.459,-3.4985,-3.4848,-3.4045,-3.3707,-3.3614,-3.3796,-3.3325,-3.3096,-3.3115,-3.3019,-3.2646,-3.2079,-3.2334,-3.2149,-3.1472,-3.1362,-3.1188,-3.0809,-3.0791,-3.0783,-3.0762,-3.0725,-3.0672,-3.0581,-3.0506,-3.0431,-3.0408,-3.0349,-3.028,-3.0234,-3.0192,-3.0128,-3.0095,-2.9967,-2.9874,-2.9891,-2.9958,-2.9977,-2.9915,-2.9904,-2.9867,-2.9676,-2.9256,-2.8939,-2.8902,-2.8444,-2.7805,-2.7017,-2.6791,-2.645,-2.5624,-2.5273,-2.4989,-2.4506,-2.4366,-2.4226,-2.3847,-2.381,-2.38,-2.3761,-2.3789,-2.3765,-2.3656,-2.3607,-2.3562,-2.3517,-2.3383,-2.3277,-2.3188,-2.2604,-2.191,-2.1271,-2.0437,-1.9654,-1.8796,-1.8166,-1.7872,-1.7709,-1.7622,-1.7592,-1.7498,-1.7482,-1.7493,-3.7431,-3.756,-3.7667,-3.7911,-3.8211,-3.7676,-3.745,-3.7512,-3.7543,-3.7262,-3.6787,-3.7312,-3.6776,-3.5433,-3.4789,-3.4338,-3.4069,-3.4338,-3.4525,-3.4574,-3.4581,-3.455,-3.4612,-3.4645,-3.4716,-3.4788,-3.4849,-3.4974,-3.5108,-3.5168,-3.4912,-3.4545,-3.499,-3.4986,-3.4416,-3.4223,-3.4405,-3.4887,-3.4415,-3.4148,-3.4115,-3.3876,-3.3483,-3.3109,-3.3318,-3.3074,-3.2298,-3.2272,-3.1942,-3.1205,-3.1168,-3.1036,-3.0776,-3.0728,-3.0645,-3.0544,-3.0451,-3.0398,-3.0354,-3.0311,-3.026,-3.02,-3.0123,-3.0083,-3.0057,-2.991,-2.9773,-2.9719,-2.9764,-2.9777,-2.975,-2.975,-2.9706,-2.957,-2.897,-2.8624,-2.8559,-2.7951,-2.7503,-2.6832,-2.6786,-2.5931,-2.5143,-2.4886,-2.478,-2.4416,-2.4275,-2.3997,-2.3807,-2.371,-2.3707,-2.3635,-2.3598,-2.3605,-2.3594,-2.3533,-2.3499,-2.3372,-2.318,-2.3052,-2.3015,-2.2295,-2.1672,-2.1354,-2.0204,-1.9298,-1.8763,-1.822,-1.7709,-1.7576,-1.751,-1.7522,-1.7522,-1.7512,-1.7419,-3.7542,-3.7685,-3.8079,-3.8418,-3.8685,-3.8671,-3.8682,-3.8641,-3.8873,-3.8769,-3.8372,-3.8141,-3.7923,-3.766,-3.6879,-3.6066,-3.5354,-3.5533,-3.5719,-3.5721,-3.5052,-3.465,-3.4612,-3.4718,-3.4807,-3.4839,-3.4983,-3.5119,-3.5193,-3.5182,-3.5226,-3.5246,-3.5273,-3.5289,-3.5097,-3.4508,-3.4152,-3.4312,-3.4308,-3.425,-3.4346,-3.5021,-3.4635,-3.346,-3.391,-3.397,-3.3253,-3.3188,-3.2827,-3.2048,-3.1941,-3.1581,-3.0828,-3.0697,-3.0614,-3.0432,-3.0414,-3.0367,-3.0317,-3.0241,-3.02,-3.0197,-3.0072,-3.0014,-2.9999,-2.9866,-2.9764,-2.9692,-2.9608,-2.9522,-2.9471,-2.9551,-2.9532,-2.9359,-2.9238,-2.9092,-2.8997,-2.8747,-2.8886,-2.8504,-2.7797,-2.703,-2.6387,-2.6348,-2.5717,-2.5172,-2.4954,-2.4526,-2.3694,-2.3502,-2.3429,-2.3277,-2.3188,-2.3206,-2.3348,-2.3354,-2.3199,-2.3077,-2.3033,-2.2893,-2.2816,-2.2604,-2.2091,-2.1498,-2.053,-1.966,-1.8843,-1.8209,-1.7697,-1.7489,-1.75,-1.75,-1.7429,-1.7536,-1.7391,-3.8229,-3.8402,-3.8744,-3.8984,-3.9147,-3.9175,-3.9215,-3.9242,-3.9309,-3.9309,-3.9227,-3.9088,-3.8727,-3.8209,-3.8453,-3.7785,-3.6526,-3.659,-3.6655,-3.6641,-3.6429,-3.6037,-3.5528,-3.5632,-3.541,-3.505,-3.5066,-3.5136,-3.5201,-3.5234,-3.5277,-3.5293,-3.5339,-3.535,-3.5314,-3.5139,-3.5,-3.5008,-3.5034,-3.5052,-3.5073,-3.5416,-3.5305,-3.4889,-3.5107,-3.4898,-3.4058,-3.3579,-3.2928,-3.2136,-3.1532,-3.1053,-3.0737,-3.0618,-3.0535,-3.0428,-3.0352,-3.0317,-3.0241,-3.0214,-3.0159,-3.0121,-3.0053,-2.9983,-2.9926,-2.9851,-2.9746,-2.9608,-2.954,-2.9461,-2.9378,-2.9429,-2.9421,-2.9326,-2.9272,-2.9004,-2.8485,-2.8312,-2.8096,-2.7567,-2.7181,-2.6855,-2.6494,-2.5943,-2.5368,-2.4919,-2.4334,-2.3773,-2.3413,-2.3248,-2.3206,-2.3145,-2.3109,-2.3072,-2.294,-2.3065,-2.304,-2.294,-2.2855,-2.2699,-2.2592,-2.2487,-2.2027,-2.181,-2.0948,-1.9973,-1.9127,-1.8106,-1.7622,-1.7425,-1.742,-1.7349,-1.7301,-1.7313,-1.7137,-3.8763,-3.8994,-3.9256,-3.9367,-3.9431,-3.9451,-3.9495,-3.9533,-3.9533,-3.9571,-3.9608,-3.9608,-3.9251,-3.8863,-3.9345,-3.9045,-3.7937,-3.7655,-3.7497,-3.7525,-3.737,-3.699,-3.656,-3.6585,-3.6255,-3.5549,-3.524,-3.5176,-3.5226,-3.5273,-3.5316,-3.5331,-3.5364,-3.54,-3.5448,-3.5488,-3.5502,-3.5541,-3.5527,-3.555,-3.5607,-3.5653,-3.5689,-3.5775,-3.5825,-3.5558,-3.497,-3.4419,-3.3626,-3.2602,-3.1875,-3.1266,-3.0704,-3.0515,-3.0453,-3.0369,-3.0342,-3.026,-3.02,-3.0178,-3.0147,-3.0061,-3.0007,-2.9932,-2.9868,-2.9799,-2.9664,-2.9541,-2.9471,-2.9419,-2.9283,-2.9222,-2.9222,-2.9251,-2.924,-2.8986,-2.839,-2.8198,-2.7718,-2.7027,-2.6799,-2.6599,-2.6195,-2.54,-2.4895,-2.4653,-2.3839,-2.3241,-2.3025,-2.2968,-2.291,-2.2859,-2.2825,-2.2734,-2.2646,-2.2685,-2.2738,-2.2646,-2.2646,-2.2515,-2.2432,-2.2296,-2.2127,-2.193,-2.125,-2.0284,-1.9261,-1.8149,-1.7628,-1.7358,-1.7224,-1.7126,-1.7105,-1.7043,-1.6908,-3.9091,-3.9373,-3.9527,-3.9527,-3.9508,-3.9571,-3.9577,-3.9608,-3.9608,-3.9608,-3.9608,-3.962,-3.9545,-3.9564,-3.9588,-3.9526,-3.9276,-3.8637,-3.8402,-3.8418,-3.784,-3.7518,-3.7421,-3.7443,-3.6938,-3.6081,-3.5572,-3.5304,-3.5312,-3.5312,-3.5342,-3.5372,-3.5393,-3.5435,-3.5483,-3.5509,-3.5547,-3.5584,-3.5593,-3.5588,-3.5618,-3.5718,-3.578,-3.5817,-3.5853,-3.5869,-3.5817,-3.5721,-3.4838,-3.3509,-3.3132,-3.2336,-3.0774,-3.0446,-3.0369,-3.0316,-3.0299,-3.026,-3.0192,-3.0147,-3.0076,-3.0007,-2.994,-2.9874,-2.9808,-2.9719,-2.9636,-2.9511,-2.9421,-2.9315,-2.9123,-2.8943,-2.8913,-2.9134,-2.906,-2.8959,-2.8913,-2.8755,-2.818,-2.7225,-2.6994,-2.6595,-2.5857,-2.5203,-2.4745,-2.4513,-2.377,-2.3022,-2.2773,-2.2699,-2.2592,-2.2419,-2.2432,-2.2474,-2.2394,-2.2327,-2.2341,-2.2324,-2.238,-2.2338,-2.2352,-2.2268,-2.2026,-2.1748,-2.0441,-1.9454,-1.8649,-1.7663,-1.7338,-1.7101,-1.7014,-1.6926,-1.6892,-1.6853,-1.6841,-3.9406,-3.9533,-3.9514,-3.9546,-3.9571,-3.9577,-3.9608,-3.9608,-3.9608,-3.9608,-3.9614,-3.9649,-3.9637,-3.965,-3.9738,-3.9754,-3.964,-3.9452,-3.9381,-3.9286,-3.9229,-3.8857,-3.8356,-3.7889,-3.6941,-3.5783,-3.5422,-3.5308,-3.5331,-3.535,-3.5372,-3.5393,-3.5442,-3.5483,-3.5496,-3.5534,-3.5589,-3.5604,-3.5637,-3.5693,-3.5742,-3.579,-3.5825,-3.5873,-3.5849,-3.5856,-3.5858,-3.5341,-3.4472,-3.3366,-3.2679,-3.1759,-3.0708,-3.0411,-3.0365,-3.031,-3.0311,-3.0246,-3.0138,-3.0121,-3.0042,-2.9929,-2.9874,-2.9808,-2.9738,-2.9617,-2.9539,-2.9431,-2.9399,-2.9294,-2.9078,-2.8855,-2.8712,-2.8718,-2.8621,-2.8534,-2.8507,-2.836,-2.8103,-2.7848,-2.7732,-2.7589,-2.7126,-2.6149,-2.5059,-2.4848,-2.3755,-2.2738,-2.2527,-2.2422,-2.246,-2.2324,-2.231,-2.2234,-2.2225,-2.2197,-2.2166,-2.2152,-2.2152,-2.2197,-2.2225,-2.2104,-2.1891,-2.1133,-1.9804,-1.8766,-1.7941,-1.7383,-1.7061,-1.686,-1.6773,-1.6725,-1.6672,-1.6646,-1.6607,-3.9915,-4.0403,-3.9802,-3.9915,-4.0403,-4.0209,-4.004,-4.0059,-4.0108,-3.9927,-3.9682,-3.9665,-3.9689,-3.9672,-3.9777,-3.9804,-3.9792,-3.9892,-3.9922,-3.987,-4.0015,-3.9794,-3.9204,-3.8237,-3.7515,-3.666,-3.5775,-3.5519,-3.5798,-3.5559,-3.5434,-3.5462,-3.5489,-3.5515,-3.554,-3.5581,-3.5621,-3.5634,-3.5703,-3.5752,-3.5818,-3.5829,-3.5862,-3.5889,-3.5877,-3.5864,-3.582,-3.5284,-3.4458,-3.3281,-3.208,-3.1057,-3.045,-3.0365,-3.0329,-3.0286,-3.0247,-3.0213,-3.0101,-3.0072,-3.0007,-2.9924,-2.9832,-2.9783,-2.9683,-2.954,-2.9361,-2.9304,-2.9138,-2.8973,-2.8749,-2.8502,-2.8311,-2.8139,-2.8206,-2.8139,-2.8047,-2.7982,-2.7883,-2.7776,-2.7754,-2.78,-2.7458,-2.6384,-2.5307,-2.4931,-2.3691,-2.2363,-2.217,-2.1976,-2.1959,-2.1918,-2.1817,-2.1866,-2.2073,-2.208,-2.202,-2.1991,-2.1961,-2.2005,-2.2034,-2.1823,-2.1587,-2.0506,-1.9252,-1.8413,-1.7593,-1.7113,-1.676,-1.6659,-1.6528,-1.6477,-1.6409,-1.6371,-1.6315,-4.0628,-4.1723,-4.0384,-4.0628,-4.1704,-4.1167,-4.0823,-4.0798,-4.0878,-4.0426,-3.9775,-3.972,-3.9717,-3.9717,-3.9792,-3.9859,-3.9922,-4.0057,-4.0108,-4.0098,-4.0128,-4.0053,-3.9734,-3.8648,-3.8235,-3.8224,-3.6623,-3.6058,-3.6503,-3.5986,-3.5527,-3.5509,-3.5522,-3.554,-3.5585,-3.5593,-3.5664,-3.5704,-3.5751,-3.5803,-3.5817,-3.5857,-3.5898,-3.5894,-3.5882,-3.5859,-3.5784,-3.5485,-3.4727,-3.3222,-3.1631,-3.0716,-3.0421,-3.0342,-3.0292,-3.0227,-3.0206,-3.0157,-3.0091,-3.0046,-2.9972,-2.9897,-2.9798,-2.9746,-2.9598,-2.9332,-2.9141,-2.9078,-2.8785,-2.8515,-2.8331,-2.8073,-2.7803,-2.76,-2.7815,-2.7869,-2.7716,-2.7672,-2.76,-2.7421,-2.733,-2.733,-2.7305,-2.5996,-2.5192,-2.4672,-2.3615,-2.2436,-2.1674,-2.1458,-2.1305,-2.1275,-2.129,-2.1556,-2.1764,-2.1783,-2.1721,-2.1676,-2.1646,-2.1648,-2.1525,-2.1245,-2.0799,-1.972,-1.8847,-1.8031,-1.7334,-1.6828,-1.6517,-1.6382,-1.6289,-1.6222,-1.6271,-1.632,-1.6294,-4.161,-4.1929,-4.1535,-4.161,-4.198,-4.1839,-4.1493,-4.1003,-4.0995,-4.0608,-3.9932,-3.9826,-3.9837,-3.9878,-4.0057,-4.0117,-4.0087,-4.0177,-4.0243,-4.0243,-4.0252,-3.9897,-3.95,-3.9021,-3.8586,-3.8243,-3.7575,-3.7094,-3.6778,-3.6516,-3.6125,-3.5585,-3.5589,-3.5585,-3.5593,-3.5684,-3.5737,-3.5775,-3.5778,-3.5811,-3.5868,-3.5836,-3.5845,-3.5886,-3.5858,-3.58,-3.5645,-3.4977,-3.4152,-3.3105,-3.202,-3.1058,-3.0475,-3.0336,-3.0292,-3.026,-3.0166,-3.0101,-3.0076,-3.0022,-2.9964,-2.988,-2.9645,-2.9463,-2.933,-2.9075,-2.8915,-2.8833,-2.8639,-2.8433,-2.8282,-2.7993,-2.7674,-2.7421,-2.7513,-2.7542,-2.7452,-2.7423,-2.7376,-2.7315,-2.7315,-2.7315,-2.7006,-2.6057,-2.5011,-2.4645,-2.3576,-2.2197,-2.1407,-2.1273,-2.1284,-2.0931,-2.0901,-2.1199,-2.1398,-2.1431,-2.1416,-2.1354,-2.1277,-2.1151,-2.0843,-2.0361,-1.971,-1.884,-1.8313,-1.7572,-1.6957,-1.6394,-1.6253,-1.6487,-1.6382,-1.6491,-1.6569,-1.6617,-1.6546,-4.2399,-4.2994,-4.2352,-4.2491,-4.3062,-4.2926,-4.2363,-4.1713,-4.1628,-4.0969,-4.0119,-3.9973,-3.9965,-3.9986,-4.0147,-4.0206,-4.0187,-4.0271,-4.0307,-4.0325,-4.0334,-4.0065,-3.9642,-3.9352,-3.9076,-3.8946,-3.8293,-3.7733,-3.7306,-3.7006,-3.6395,-3.5755,-3.5621,-3.5653,-3.5684,-3.5757,-3.5801,-3.583,-3.5822,-3.5807,-3.5851,-3.5812,-3.5834,-3.5837,-3.5798,-3.5716,-3.5543,-3.505,-3.4334,-3.3351,-3.2287,-3.1263,-3.0484,-3.0292,-3.0253,-3.0207,-3.0138,-3.0057,-2.9948,-2.9899,-2.9786,-2.9644,-2.9375,-2.922,-2.9079,-2.8857,-2.8682,-2.8639,-2.8443,-2.8233,-2.8031,-2.7763,-2.7511,-2.7345,-2.7315,-2.7315,-2.7315,-2.733,-2.7315,-2.7315,-2.7315,-2.7315,-2.728,-2.5937,-2.5156,-2.4523,-2.3349,-2.2065,-2.1042,-2.1216,-2.1172,-2.077,-2.0586,-2.0859,-2.1054,-2.1071,-2.0991,-2.0958,-2.0926,-2.0794,-2.0367,-1.983,-1.9515,-1.8889,-1.8005,-1.7345,-1.7038,-1.6872,-1.7089,-1.7181,-1.6938,-1.6849,-1.6985,-1.6849,-1.6772,-4.3144,-4.4411,-4.302,-4.3316,-4.4449,-4.4075,-4.3232,-4.2523,-4.2438,-4.1537,-4.0252,-4.0057,-4.0087,-4.0118,-4.0157,-4.0206,-4.0307,-4.0325,-4.0351,-4.0388,-4.0424,-4.0309,-4.0166,-3.9761,-3.9804,-4.0023,-3.8936,-3.8444,-3.8125,-3.7552,-3.6725,-3.614,-3.5896,-3.5796,-3.5794,-3.5801,-3.5823,-3.5853,-3.5829,-3.5806,-3.5812,-3.5801,-3.5808,-3.5759,-3.57,-3.5621,-3.5544,-3.5368,-3.4937,-3.3852,-3.2487,-3.1412,-3.0541,-3.024,-3.018,-3.0135,-3.0072,-2.9929,-2.9734,-2.9681,-2.9523,-2.9314,-2.9075,-2.8918,-2.8832,-2.8601,-2.8471,-2.8453,-2.8174,-2.7965,-2.7716,-2.7467,-2.7313,-2.7218,-2.7218,-2.7234,-2.7202,-2.725,-2.7315,-2.7299,-2.7299,-2.725,-2.6855,-2.6035,-2.4919,-2.4735,-2.3518,-2.2359,-2.154,-2.1469,-2.1101,-2.0431,-2.0416,-2.0528,-2.0654,-2.0745,-2.0628,-2.051,-2.051,-2.0396,-2.0065,-1.9724,-1.9661,-1.921,-1.8346,-1.7961,-1.7884,-1.7884,-1.7897,-1.7696,-1.7316,-1.7411,-1.753,-1.7186,-1.6987,-4.425,-4.4602,-4.4321,-4.4417,-4.482,-4.4782,-4.3946,-4.2585,-4.2599,-4.1708,-4.0462,-4.0118,-4.0148,-4.0252,-4.0252,-4.0317,-4.0377,-4.043,-4.0466,-4.0474,-4.0487,-4.0476,-4.0438,-4.0246,-4.0369,-4.0431,-4.0263,-3.9721,-3.9187,-3.8767,-3.8164,-3.6876,-3.6619,-3.6454,-3.5933,-3.5846,-3.5808,-3.5814,-3.5802,-3.58,-3.5798,-3.5794,-3.5763,-3.5712,-3.5601,-3.5544,-3.5515,-3.5468,-3.4979,-3.4069,-3.3057,-3.1865,-3.0694,-3.0303,-3.0235,-3.0087,-2.9913,-2.9753,-2.9608,-2.9415,-2.9222,-2.9016,-2.8802,-2.8584,-2.8388,-2.834,-2.8277,-2.825,-2.8099,-2.7882,-2.7569,-2.739,-2.7169,-2.6973,-2.6908,-2.6775,-2.6556,-2.6908,-2.7202,-2.7185,-2.7006,-2.6908,-2.684,-2.5782,-2.5029,-2.473,-2.3852,-2.2719,-2.2195,-2.1817,-2.1207,-2.0523,-2.0458,-2.0567,-2.0456,-2.051,-2.0409,-2.0162,-2.0081,-1.9901,-1.9573,-1.9316,-1.9166,-1.8972,-1.8684,-1.8483,-1.846,-1.8182,-1.8066,-1.7863,-1.7748,-1.7861,-1.7853,-1.7502,-1.7384,-4.4912,-4.5363,-4.5048,-4.4919,-4.5003,-4.5117,-4.4238,-4.2893,-4.2694,-4.1799,-4.0549,-4.0225,-4.0243,-4.0353,-4.0342,-4.0394,-4.0496,-4.0549,-4.0591,-4.0583,-4.0569,-4.0539,-4.0561,-4.0571,-4.0607,-4.06,-4.0603,-4.0224,-3.9694,-3.947,-3.8849,-3.7662,-3.7288,-3.6879,-3.6388,-3.6012,-3.5833,-3.5793,-3.58,-3.5784,-3.5767,-3.5746,-3.5698,-3.564,-3.5532,-3.5496,-3.5449,-3.5415,-3.4923,-3.4108,-3.3243,-3.2239,-3.1101,-3.0758,-3.0521,-3.0013,-2.9786,-2.9485,-2.9266,-2.9064,-2.8872,-2.8694,-2.8527,-2.8391,-2.8273,-2.8223,-2.8196,-2.8182,-2.8095,-2.7911,-2.7478,-2.7166,-2.6923,-2.6708,-2.6624,-2.647,-2.6263,-2.6487,-2.6691,-2.6607,-2.6402,-2.6333,-2.5977,-2.5371,-2.4918,-2.4532,-2.3785,-2.2732,-2.2331,-2.1929,-2.1494,-2.0984,-2.076,-2.0619,-2.0387,-2.0304,-2.0237,-1.9932,-1.9632,-1.9343,-1.8979,-1.8744,-1.8526,-1.8484,-1.8546,-1.8942,-1.8877,-1.8587,-1.8367,-1.8382,-1.8357,-1.8325,-1.823,-1.8008,-1.7977,-4.5243,-4.5994,-4.5361,-4.5114,-4.5129,-4.5063,-4.4188,-4.2928,-4.2651,-4.1676,-4.0528,-4.0316,-4.0351,-4.0411,-4.0436,-4.05,-4.0596,-4.0649,-4.0668,-4.0635,-4.0635,-4.0635,-4.0642,-4.0693,-4.0707,-4.0655,-4.0706,-4.0318,-3.9968,-3.9718,-3.9453,-3.8521,-3.7705,-3.7259,-3.6969,-3.6315,-3.584,-3.5793,-3.5781,-3.5752,-3.5717,-3.5684,-3.5626,-3.554,-3.5502,-3.5456,-3.542,-3.5326,-3.5025,-3.4213,-3.342,-3.2595,-3.1867,-3.1157,-3.0742,-2.9672,-2.9504,-2.9227,-2.8918,-2.8718,-2.8583,-2.8367,-2.8327,-2.83,-2.8259,-2.8223,-2.8196,-2.8122,-2.8039,-2.7789,-2.735,-2.6971,-2.6641,-2.6418,-2.6331,-2.6209,-2.6013,-2.5943,-2.5906,-2.5928,-2.591,-2.5872,-2.5631,-2.5173,-2.4751,-2.4296,-2.3562,-2.2978,-2.2615,-2.2294,-2.2019,-2.1633,-2.143,-2.0625,-2.0301,-1.9643,-1.9622,-1.9435,-1.909,-1.8563,-1.8197,-1.8034,-1.7924,-1.8327,-1.8532,-1.8862,-1.9074,-1.8891,-1.879,-1.8912,-1.875,-1.8494,-1.8446,-1.8489,-1.8442,-4.5019,-4.527,-4.5148,-4.5159,-4.5131,-4.4541,-4.3711,-4.2785,-4.2135,-4.1255,-4.0421,-4.0351,-4.0465,-4.0533,-4.0549,-4.0616,-4.0693,-4.0715,-4.0699,-4.0675,-4.0687,-4.0713,-4.0766,-4.0822,-4.0855,-4.0839,-4.0818,-4.0684,-4.0625,-4.0637,-4.0156,-3.9414,-3.8611,-3.7937,-3.7226,-3.6322,-3.5929,-3.5914,-3.5804,-3.5704,-3.5684,-3.5632,-3.5583,-3.5496,-3.5449,-3.542,-3.5383,-3.5289,-3.5149,-3.4964,-3.4584,-3.3857,-3.2732,-3.1157,-3.0039,-2.9507,-2.924,-2.9017,-2.8676,-2.8487,-2.8349,-2.8246,-2.8223,-2.8241,-2.8209,-2.8182,-2.814,-2.7993,-2.7713,-2.7411,-2.7301,-2.6774,-2.6383,-2.6154,-2.6028,-2.583,-2.5416,-2.5301,-2.5403,-2.554,-2.5503,-2.5406,-2.5144,-2.4946,-2.4645,-2.4418,-2.4057,-2.3689,-2.3465,-2.3266,-2.3062,-2.2605,-2.2135,-2.1124,-2.017,-1.9291,-1.8793,-1.8659,-1.8246,-1.7482,-1.7198,-1.7202,-1.7318,-1.7371,-1.7954,-1.8499,-1.8709,-1.8887,-1.8906,-1.8822,-1.8683,-1.8542,-1.8484,-1.8439,-1.84,-4.5339,-4.5764,-4.5363,-4.5235,-4.5154,-4.441,-4.3579,-4.2766,-4.1991,-4.1198,-4.0665,-4.05,-4.0589,-4.0672,-4.0688,-4.0756,-4.0839,-4.0842,-4.0833,-4.0829,-4.0803,-4.0824,-4.0859,-4.0933,-4.0952,-4.094,-4.0928,-4.0919,-4.095,-4.094,-4.0712,-4.0303,-3.9511,-3.8845,-3.8227,-3.7191,-3.6547,-3.6328,-3.5964,-3.5678,-3.5643,-3.5584,-3.5515,-3.5449,-3.5374,-3.5342,-3.5273,-3.5105,-3.4953,-3.4728,-3.417,-3.3601,-3.2709,-3.1593,-3.0217,-2.9727,-2.9448,-2.9033,-2.8585,-2.8353,-2.8273,-2.8209,-2.8196,-2.8196,-2.8168,-2.8126,-2.7979,-2.7698,-2.7474,-2.7051,-2.674,-2.6419,-2.61,-2.5862,-2.5805,-2.5546,-2.5162,-2.5025,-2.5072,-2.5157,-2.4922,-2.4799,-2.4759,-2.4603,-2.4492,-2.4421,-2.4359,-2.4198,-2.4051,-2.3741,-2.3406,-2.2677,-2.1976,-2.1076,-2.0065,-1.9291,-1.8417,-1.8104,-1.7721,-1.6951,-1.6387,-1.6491,-1.6172,-1.5932,-1.6721,-1.8093,-1.8438,-1.8655,-1.8674,-1.8716,-1.86,-1.8517,-1.8425,-1.8366,-1.8268,-4.5584,-4.6194,-4.5373,-4.5059,-4.4897,-4.3981,-4.3197,-4.2517,-4.1773,-4.1116,-4.0662,-4.0629,-4.0718,-4.0829,-4.0871,-4.0912,-4.0986,-4.0983,-4.0967,-4.0942,-4.0928,-4.0911,-4.0947,-4.0989,-4.1005,-4.101,-4.1012,-4.103,-4.1023,-4.1007,-4.0994,-4.0564,-3.9995,-3.9579,-3.9174,-3.749,-3.7138,-3.673,-3.6146,-3.5676,-3.5579,-3.5508,-3.5453,-3.5372,-3.5335,-3.5254,-3.5086,-3.4925,-3.4715,-3.4379,-3.3799,-3.3136,-3.275,-3.2036,-3.1232,-3.0509,-3.0189,-2.9493,-2.8865,-2.8591,-2.8518,-2.8231,-2.8213,-2.8182,-2.8085,-2.794,-2.7701,-2.735,-2.7003,-2.6741,-2.6351,-2.6031,-2.5844,-2.5694,-2.5597,-2.5467,-2.5143,-2.4946,-2.4766,-2.467,-2.4343,-2.4323,-2.439,-2.4266,-2.4156,-2.4073,-2.4009,-2.3861,-2.3687,-2.3419,-2.3017,-2.2272,-2.1547,-2.0774,-1.9996,-1.9424,-1.8588,-1.7928,-1.7555,-1.6941,-1.6326,-1.5886,-1.5717,-1.5934,-1.6658,-1.7892,-1.8157,-1.8394,-1.8528,-1.8595,-1.8517,-1.84,-1.8214,-1.8055,-1.7935,-4.5354,-4.5373,-4.4513,-4.419,-4.4,-4.2623,-4.1942,-4.1803,-4.1108,-4.0713,-4.0628,-4.0731,-4.0855,-4.0961,-4.1031,-4.1035,-4.1014,-4.1002,-4.1,-4.097,-4.0973,-4.0986,-4.1013,-4.1051,-4.1067,-4.1084,-4.107,-4.1098,-4.1071,-4.1033,-4.0996,-4.0716,-3.9736,-3.8948,-3.9542,-3.7618,-3.6297,-3.6648,-3.6072,-3.5579,-3.5508,-3.5453,-3.5372,-3.5308,-3.5254,-3.5122,-3.486,-3.4676,-3.4518,-3.4235,-3.3913,-3.3637,-3.3506,-3.3158,-3.2457,-3.1685,-3.0941,-3.0216,-2.9465,-2.9179,-2.8915,-2.8463,-2.8235,-2.8126,-2.7911,-2.7597,-2.7334,-2.7319,-2.6757,-2.635,-2.6122,-2.5864,-2.5675,-2.5616,-2.5597,-2.5371,-2.5064,-2.4795,-2.465,-2.4302,-2.4051,-2.4114,-2.4219,-2.403,-2.3839,-2.3754,-2.3646,-2.3501,-2.3282,-2.3039,-2.2848,-2.2192,-2.1591,-2.0827,-2.0267,-1.9649,-1.8969,-1.8087,-1.7644,-1.7216,-1.687,-1.6561,-1.6684,-1.6996,-1.7464,-1.7358,-1.7342,-1.7652,-1.8224,-1.842,-1.8327,-1.8135,-1.7922,-1.776,-1.7537,-4.4163,-4.4526,-4.3694,-4.336,-4.3263,-4.2236,-4.179,-4.1651,-4.1035,-4.0761,-4.0829,-4.0879,-4.0972,-4.1044,-4.1103,-4.1087,-4.1047,-4.105,-4.1053,-4.103,-4.1055,-4.1052,-4.1065,-4.1091,-4.1115,-4.1103,-4.1113,-4.1098,-4.1095,-4.1046,-4.0986,-4.0843,-4.0205,-3.9966,-3.9904,-3.8131,-3.7537,-3.7154,-3.6318,-3.5526,-3.5446,-3.5369,-3.5246,-3.5075,-3.5044,-3.4841,-3.4574,-3.4274,-3.4147,-3.3917,-3.3698,-3.3524,-3.3419,-3.3175,-3.2793,-3.2563,-3.2176,-3.1359,-3.0222,-2.9751,-2.929,-2.8827,-2.8383,-2.7911,-2.7569,-2.718,-2.6807,-2.6573,-2.6297,-2.6066,-2.5903,-2.5696,-2.5654,-2.5597,-2.5597,-2.5204,-2.4914,-2.4699,-2.4441,-2.4084,-2.3739,-2.3803,-2.3861,-2.376,-2.3588,-2.3458,-2.3348,-2.3216,-2.2971,-2.2665,-2.2483,-2.2271,-2.1682,-2.1061,-2.0564,-2.0054,-1.9545,-1.8824,-1.8391,-1.8026,-1.7787,-1.7656,-1.7538,-1.7244,-1.7164,-1.6973,-1.6661,-1.7254,-1.8185,-1.8208,-1.8095,-1.7821,-1.7537,-1.711,-1.6913,-4.297,-4.3515,-4.2848,-4.2586,-4.2593,-4.193,-4.1603,-4.1531,-4.1082,-4.0906,-4.0983,-4.1018,-4.1052,-4.1088,-4.1112,-4.1094,-4.1113,-4.1111,-4.1105,-4.1099,-4.1112,-4.1106,-4.1097,-4.1107,-4.11,-4.1108,-4.1064,-4.1081,-4.1046,-4.0999,-4.0941,-4.0937,-4.0354,-4.0311,-3.9923,-3.8581,-3.7469,-3.6967,-3.6007,-3.5429,-3.5278,-3.5215,-3.5015,-3.4841,-3.4695,-3.454,-3.4188,-3.3981,-3.3839,-3.3638,-3.3477,-3.3337,-3.3262,-3.3104,-3.2977,-3.2838,-3.2699,-3.2214,-3.122,-3.054,-2.9854,-2.9133,-2.8317,-2.7446,-2.7085,-2.6725,-2.6469,-2.6136,-2.5956,-2.5789,-2.5656,-2.5616,-2.5597,-2.5597,-2.5597,-2.5127,-2.4704,-2.4522,-2.4277,-2.3937,-2.361,-2.3304,-2.337,-2.3436,-2.3348,-2.3172,-2.3038,-2.2926,-2.2678,-2.2379,-2.2314,-2.2215,-2.1971,-2.1431,-2.1,-2.0506,-1.9986,-1.9587,-1.9175,-1.8843,-1.8657,-1.8241,-1.7936,-1.7565,-1.7176,-1.7029,-1.699,-1.7571,-1.8089,-1.7855,-1.7632,-1.7413,-1.7102,-1.6659,-1.6371,-4.2022,-4.2114,-4.1942,-4.195,-4.1997,-4.1221,-4.0893,-4.0995,-4.0991,-4.0989,-4.1012,-4.1064,-4.1092,-4.1113,-4.1113,-4.1111,-4.1108,-4.1102,-4.1115,-4.1108,-4.1099,-4.1109,-4.1096,-4.1106,-4.1095,-4.1087,-4.1032,-4.1007,-4.098,-4.0893,-4.0878,-4.0811,-4.0331,-3.9783,-3.9097,-3.8074,-3.6761,-3.6213,-3.5501,-3.5273,-3.5094,-3.4953,-3.4774,-3.451,-3.4401,-3.4235,-3.3867,-3.3781,-3.3671,-3.3481,-3.3352,-3.3214,-3.3137,-3.3044,-3.2963,-3.2932,-3.2836,-3.2441,-3.1884,-3.1328,-3.051,-2.9156,-2.7894,-2.706,-2.6877,-2.6329,-2.6063,-2.5954,-2.5805,-2.5675,-2.5616,-2.5597,-2.5597,-2.5578,-2.5483,-2.5088,-2.4679,-2.4343,-2.411,-2.3803,-2.3436,-2.3061,-2.2859,-2.2926,-2.2934,-2.2777,-2.264,-2.254,-2.2472,-2.224,-2.224,-2.2175,-2.2189,-2.1879,-2.1485,-2.1058,-2.079,-2.0423,-2.0001,-1.9739,-1.952,-1.9043,-1.8481,-1.8026,-1.7692,-1.7483,-1.7201,-1.7251,-1.7267,-1.7274,-1.7157,-1.6955,-1.668,-1.6293,-1.6066,-4.1262,-4.1321,-4.1304,-4.1281,-4.1243,-4.103,-4.0926,-4.0944,-4.1011,-4.107,-4.1066,-4.1093,-4.1113,-4.1111,-4.1108,-4.1102,-4.1116,-4.1109,-4.1099,-4.1111,-4.1103,-4.1113,-4.1081,-4.1061,-4.1023,-4.1022,-4.098,-4.0921,-4.0878,-4.0809,-4.0792,-4.0607,-4.0281,-3.9883,-3.9051,-3.7616,-3.6393,-3.5643,-3.5289,-3.5058,-3.4988,-3.4696,-3.4467,-3.4225,-3.4056,-3.3899,-3.3662,-3.3564,-3.3459,-3.3349,-3.3244,-3.3135,-3.3024,-3.2963,-3.29,-3.2818,-3.2672,-3.242,-3.216,-3.1631,-3.0584,-2.9196,-2.7877,-2.7037,-2.6861,-2.625,-2.5854,-2.571,-2.5691,-2.5597,-2.5597,-2.5597,-2.5597,-2.554,-2.5314,-2.495,-2.4578,-2.4194,-2.3736,-2.3348,-2.2994,-2.2632,-2.2495,-2.2402,-2.2426,-2.2365,-2.2263,-2.2194,-2.2194,-2.2194,-2.2194,-2.2194,-2.2194,-2.21,-2.1736,-2.163,-2.1543,-2.1114,-2.0674,-2.031,-1.9919,-1.9687,-1.9123,-1.867,-1.7974,-1.7475,-1.6999,-1.6592,-1.652,-1.6697,-1.6693,-1.6565,-1.6262,-1.5935,-1.5881,-4.0914,-4.0975,-4.1013,-4.0972,-4.0901,-4.0989,-4.1025,-4.1033,-4.1065,-4.1108,-4.1113,-4.1113,-4.111,-4.1103,-4.1116,-4.1108,-4.1101,-4.1111,-4.11,-4.1113,-4.1108,-4.1095,-4.1055,-4.1032,-4.0988,-4.0971,-4.0903,-4.0839,-4.0818,-4.0763,-4.0713,-4.0648,-4.0475,-3.9899,-3.8709,-3.7245,-3.5955,-3.5372,-3.5034,-3.4775,-3.4696,-3.4445,-3.4141,-3.3941,-3.3778,-3.3648,-3.3488,-3.3404,-3.3349,-3.3229,-3.3152,-3.3075,-3.2963,-3.2834,-3.2737,-3.2588,-3.2386,-3.2091,-3.1794,-3.1167,-3.0334,-2.9285,-2.8187,-2.7455,-2.688,-2.633,-2.6059,-2.5635,-2.5616,-2.5613,-2.5594,-2.5467,-2.5355,-2.5224,-2.491,-2.4553,-2.4209,-2.3815,-2.3319,-2.2881,-2.2586,-2.2426,-2.2333,-2.2263,-2.2221,-2.2221,-2.224,-2.2194,-2.2194,-2.2194,-2.2194,-2.2194,-2.2194,-2.2077,-2.1945,-2.1643,-2.1339,-2.0899,-2.0522,-2.0316,-2.0011,-1.9769,-1.9328,-1.8584,-1.792,-1.7311,-1.6909,-1.6567,-1.6365,-1.6265,-1.6231,-1.6197,-1.6088,-1.5859,-1.5836,-4.109,-4.1097,-4.1097,-4.1093,-4.1064,-4.1094,-4.1097,-4.1094,-4.11,-4.111,-4.1113,-4.1107,-4.1117,-4.1109,-4.1101,-4.1111,-4.11,-4.1115,-4.1106,-4.1092,-4.1084,-4.1046,-4.1015,-4.0984,-4.0935,-4.0878,-4.0812,-4.0781,-4.0751,-4.0614,-4.0576,-4.0388,-4.0064,-3.9472,-3.808,-3.6181,-3.5103,-3.4841,-3.4699,-3.4405,-3.4235,-3.408,-3.3842,-3.3671,-3.3563,-3.3433,-3.3364,-3.3307,-3.3247,-3.3119,-3.2961,-3.2898,-3.285,-3.2488,-3.2335,-3.2266,-3.1914,-3.1547,-3.1133,-3.0453,-3.0015,-2.9635,-2.8665,-2.7863,-2.7095,-2.6652,-2.6409,-2.5969,-2.5775,-2.5659,-2.548,-2.5227,-2.5075,-2.4819,-2.4513,-2.4209,-2.3852,-2.3523,-2.3038,-2.2737,-2.254,-2.2356,-2.2263,-2.218,-2.21,-2.21,-2.218,-2.2142,-2.2058,-2.1871,-2.1778,-2.1662,-2.1601,-2.1554,-2.1387,-2.1372,-2.1104,-2.0684,-2.0283,-1.9952,-1.9734,-1.943,-1.8952,-1.8416,-1.8053,-1.763,-1.711,-1.6594,-1.6334,-1.6059,-1.5959,-1.5903,-1.5814,-1.5748,-1.5659,-4.1112,-4.1099,-4.1106,-4.1106,-4.1103,-4.1104,-4.1106,-4.1109,-4.1112,-4.1113,-4.1107,-4.1116,-4.1108,-4.1097,-4.1107,-4.1113,-4.1103,-4.11,-4.1089,-4.1029,-4.1025,-4.0996,-4.0935,-4.0864,-4.0833,-4.0815,-4.0764,-4.0566,-4.0399,-4.0353,-4.0185,-3.9966,-3.9485,-3.879,-3.8004,-3.6642,-3.5557,-3.5273,-3.4738,-3.4164,-3.4006,-3.381,-3.3633,-3.3495,-3.3408,-3.3337,-3.3262,-3.3232,-3.3137,-3.3011,-3.2834,-3.2638,-3.2521,-3.2144,-3.1931,-3.1823,-3.1528,-3.1106,-3.0784,-3.0392,-3.0264,-2.9836,-2.926,-2.8522,-2.8217,-2.7632,-2.7077,-2.6435,-2.6115,-2.5844,-2.5277,-2.5068,-2.4843,-2.4472,-2.4177,-2.3909,-2.3573,-2.3253,-2.291,-2.2729,-2.2532,-2.237,-2.2254,-2.1857,-2.1703,-2.1731,-2.1749,-2.1611,-2.148,-2.1167,-2.0974,-2.0801,-2.0715,-2.077,-2.0746,-2.0624,-2.0519,-2.0156,-1.9721,-1.9344,-1.9146,-1.9119,-1.9008,-1.8702,-1.8351,-1.7977,-1.7303,-1.6656,-1.6152,-1.5874,-1.5671,-1.5647,-1.5691,-1.5513,-1.53,-4.1102,-4.1105,-4.111,-4.1112,-4.1112,-4.1111,-4.1112,-4.1113,-4.1111,-4.1104,-4.1116,-4.1108,-4.1115,-4.1103,-4.1113,-4.11,-4.1106,-4.1075,-4.1065,-4.0988,-4.0906,-4.0829,-4.0726,-4.0655,-4.0511,-4.0514,-4.0431,-4.0273,-4.011,-4.0034,-3.9853,-3.9479,-3.89,-3.8757,-3.8107,-3.7072,-3.5839,-3.5373,-3.4678,-3.4171,-3.3872,-3.3583,-3.3437,-3.3396,-3.3304,-3.3214,-3.3186,-3.3122,-3.3042,-3.2866,-3.2605,-3.2317,-3.2162,-3.1823,-3.1547,-3.1376,-3.1103,-3.072,-3.0468,-3.0363,-3.026,-3.0222,-2.965,-2.9251,-2.8902,-2.8141,-2.727,-2.6679,-2.6398,-2.5667,-2.4916,-2.4726,-2.4359,-2.4009,-2.3754,-2.348,-2.3326,-2.3,-2.2865,-2.2706,-2.2523,-2.2361,-2.2063,-2.1633,-2.126,-2.1277,-2.1318,-2.1052,-2.0762,-2.0452,-2.0172,-2.0064,-1.9903,-1.9898,-1.9864,-1.9771,-1.9649,-1.9567,-1.9291,-1.9013,-1.9013,-1.9066,-1.9013,-1.9013,-1.8648,-1.8178,-1.7351,-1.6692,-1.589,-1.5426,-1.5221,-1.53,-1.5513,-1.5289,-1.4971,-4.1109,-4.1111,-4.1112,-4.1113,-4.1112,-4.1113,-4.1113,-4.1111,-4.1103,-4.1114,-4.1108,-4.1117,-4.11,-4.11,-4.1114,-4.1103,-4.1055,-4.1007,-4.0956,-4.0893,-4.0738,-4.0591,-4.0422,-4.0287,-4.0206,-4.0034,-3.9955,-4.0023,-3.9861,-3.9668,-3.9494,-3.93,-3.9,-3.8822,-3.8243,-3.7498,-3.6361,-3.574,-3.4907,-3.4396,-3.3931,-3.3491,-3.337,-3.3307,-3.3229,-3.3119,-3.3042,-3.2948,-3.29,-3.2705,-3.242,-3.2266,-3.1967,-3.149,-3.1223,-3.0965,-3.0634,-3.0443,-3.0274,-3.0231,-3.0189,-3.0167,-2.993,-2.9491,-2.8963,-2.8307,-2.7423,-2.6472,-2.5848,-2.5098,-2.442,-2.4091,-2.3745,-2.3458,-2.3231,-2.3075,-2.2986,-2.2865,-2.2812,-2.2675,-2.2491,-2.2222,-2.1728,-2.1254,-2.0769,-2.0558,-2.042,-1.9856,-1.9608,-1.9531,-1.9337,-1.9409,-1.9248,-1.9048,-1.9051,-1.9233,-1.9242,-1.9279,-1.9225,-1.9013,-1.9013,-1.8987,-1.9013,-1.8975,-1.8912,-1.8343,-1.7298,-1.6279,-1.5314,-1.4971,-1.48,-1.4835,-1.5006,-1.488,-1.4617,-4.1111,-4.1112,-4.1113,-4.1112,-4.1111,-4.1105,-4.1101,-4.1102,-4.1109,-4.1099,-4.1117,-4.1118,-4.11,-4.1114,-4.1039,-4.1038,-4.096,-4.0864,-4.0762,-4.0642,-4.0477,-4.0315,-4.0161,-4.0043,-3.9956,-3.9894,-3.984,-3.9728,-3.9561,-3.9326,-3.9119,-3.8946,-3.8869,-3.8725,-3.8484,-3.8093,-3.7281,-3.6437,-3.5481,-3.4715,-3.4162,-3.3707,-3.3503,-3.328,-3.3104,-3.3011,-3.2932,-3.2621,-3.2521,-3.2403,-3.1805,-3.1471,-3.1395,-3.0965,-3.0675,-3.0593,-3.0443,-3.0338,-3.021,-3.0103,-3.006,-2.9935,-2.9623,-2.9422,-2.8975,-2.8373,-2.7491,-2.6494,-2.5643,-2.5026,-2.4299,-2.3819,-2.3459,-2.3179,-2.2992,-2.291,-2.2843,-2.2752,-2.2638,-2.2254,-2.2105,-2.1722,-2.1234,-2.082,-2.0327,-1.9954,-1.9555,-1.9103,-1.8714,-1.8693,-1.8639,-1.8734,-1.8621,-1.8456,-1.8871,-1.9096,-1.9077,-1.9042,-1.9013,-1.8987,-1.8907,-1.8907,-1.8987,-1.8749,-1.8286,-1.7721,-1.7012,-1.5954,-1.4759,-1.4568,-1.4444,-1.4444,-1.4444,-1.4339,-1.4176,-4.1113,-4.1113,-4.1112,-4.111,-4.1104,-4.1111,-4.1104,-4.1103,-4.1111,-4.1105,-4.1118,-4.1092,-4.1055,-4.1032,-4.0952,-4.0883,-4.0849,-4.068,-4.0551,-4.0385,-4.017,-4.0015,-3.9875,-3.9738,-3.9611,-3.9595,-3.9543,-3.9389,-3.9245,-3.9045,-3.8837,-3.8698,-3.864,-3.8578,-3.8442,-3.8287,-3.8077,-3.7301,-3.6435,-3.5395,-3.4609,-3.4024,-3.3674,-3.317,-3.2961,-3.2786,-3.267,-3.2266,-3.2091,-3.2003,-3.1376,-3.1106,-3.1044,-3.0736,-3.038,-3.0295,-3.0231,-3.0146,-3.006,-3.0011,-2.9989,-2.9739,-2.9201,-2.886,-2.8607,-2.8116,-2.7342,-2.6519,-2.5817,-2.5129,-2.4357,-2.3659,-2.331,-2.2976,-2.2894,-2.2812,-2.2706,-2.2623,-2.2263,-2.1779,-2.142,-2.1055,-2.0664,-2.0278,-2.0014,-1.9834,-1.9673,-1.9458,-1.8869,-1.8419,-1.8282,-1.8209,-1.8055,-1.7885,-1.8452,-1.8982,-1.8867,-1.8903,-1.9013,-1.896,-1.8842,-1.8741,-1.8732,-1.8148,-1.741,-1.6809,-1.6203,-1.52,-1.4238,-1.4097,-1.3907,-1.3787,-1.3787,-1.3847,-1.3634,-4.1152,-4.1111,-4.1111,-4.1104,-4.1108,-4.1115,-4.1105,-4.1111,-4.1081,-4.1078,-4.1067,-4.1016,-4.098,-4.092,-4.0773,-4.0686,-4.0604,-4.0446,-4.0285,-4.0142,-3.9906,-3.972,-3.9566,-3.937,-3.9318,-3.9156,-3.9078,-3.9115,-3.8993,-3.8837,-3.8667,-3.851,-3.851,-3.8462,-3.8401,-3.8354,-3.8105,-3.7602,-3.687,-3.5961,-3.4864,-3.4297,-3.3827,-3.3023,-3.257,-3.2266,-3.2162,-3.1914,-3.164,-3.1528,-3.13,-3.1024,-3.0821,-3.0634,-3.0295,-3.0124,-3.006,-2.9995,-2.9968,-2.994,-2.982,-2.9472,-2.8838,-2.8404,-2.8112,-2.7481,-2.6674,-2.6303,-2.5636,-2.492,-2.4177,-2.3823,-2.351,-2.3252,-2.3091,-2.2928,-2.2743,-2.2582,-2.2232,-2.1795,-2.1441,-2.1069,-2.0733,-2.045,-2.0451,-2.0053,-1.9961,-1.9897,-1.9518,-1.8832,-1.8573,-1.8363,-1.8214,-1.8296,-1.8611,-1.8982,-1.8718,-1.8716,-1.8845,-1.8575,-1.8174,-1.824,-1.844,-1.7663,-1.6811,-1.5957,-1.5202,-1.4405,-1.3851,-1.3587,-1.3358,-1.3075,-1.3075,-1.333,-1.3296,-4.1111,-4.1108,-4.1101,-4.1109,-4.1115,-4.1115,-4.1103,-4.1095,-4.0933,-4.0929,-4.0983,-4.0909,-4.082,-4.0738,-4.0538,-4.0453,-4.04,-4.0173,-4.0015,-3.9834,-3.9637,-3.9489,-3.9331,-3.9178,-3.9078,-3.9021,-3.8968,-3.8866,-3.8762,-3.8637,-3.8541,-3.843,-3.8415,-3.8401,-3.8236,-3.8186,-3.7863,-3.7313,-3.6532,-3.5788,-3.4827,-3.3636,-3.2776,-3.2351,-3.2003,-3.1896,-3.1732,-3.1488,-3.13,-3.1164,-3.0781,-3.0551,-3.0384,-3.0295,-3.0167,-3.0055,-2.9951,-2.9864,-2.9814,-2.9726,-2.956,-2.9173,-2.8615,-2.8157,-2.7516,-2.6588,-2.6039,-2.584,-2.5496,-2.481,-2.4268,-2.4051,-2.3757,-2.354,-2.3291,-2.307,-2.2824,-2.2472,-2.2193,-2.1878,-2.1518,-2.1203,-2.0894,-2.0775,-2.0808,-2.0826,-2.0852,-2.0794,-2.0622,-2.0153,-1.9924,-1.965,-1.9105,-1.9111,-1.9267,-1.9078,-1.8863,-1.8479,-1.8453,-1.8064,-1.7545,-1.7423,-1.7389,-1.6948,-1.6233,-1.5429,-1.4685,-1.4084,-1.3581,-1.3327,-1.3133,-1.2959,-1.2905,-1.3066,-1.3012,-4.0776,-4.1083,-4.1109,-4.1113,-4.1093,-4.1007,-4.0956,-4.0929,-4.0751,-4.0696,-4.0729,-4.0647,-4.0591,-4.0511,-4.0312,-4.0192,-4.0138,-3.987,-3.9705,-3.9549,-3.9439,-3.9279,-3.9124,-3.9031,-3.8993,-3.8954,-3.8837,-3.8735,-3.8578,-3.8512,-3.843,-3.8368,-3.8336,-3.8203,-3.7982,-3.7661,-3.718,-3.6381,-3.5652,-3.4818,-3.4217,-3.3248,-3.2511,-3.2124,-3.1661,-3.1511,-3.1319,-3.1064,-3.0902,-3.0801,-3.0551,-3.0338,-3.021,-3.0124,-3.006,-2.9924,-2.9754,-2.9582,-2.9515,-2.9341,-2.912,-2.8693,-2.795,-2.7306,-2.745,-2.6659,-2.6272,-2.6112,-2.6276,-2.573,-2.5226,-2.496,-2.4306,-2.3912,-2.3642,-2.3361,-2.275,-2.2128,-2.1923,-2.1706,-2.1473,-2.1407,-2.1188,-2.1174,-2.1179,-2.1029,-2.1166,-2.1165,-2.1072,-2.0991,-2.0925,-2.0665,-1.9957,-1.9851,-2.0079,-1.9646,-1.9086,-1.866,-1.8091,-1.774,-1.7311,-1.6719,-1.6272,-1.6066,-1.5666,-1.4946,-1.426,-1.3827,-1.3598,-1.3391,-1.318,-1.2974,-1.292,-1.2865,-1.2656,-4.0162,-4.0854,-4.0894,-4.0964,-4.1023,-4.0852,-4.0771,-4.0754,-4.0558,-4.0315,-4.0185,-4.0241,-4.0321,-4.0227,-4.0024,-3.9922,-3.9791,-3.9609,-3.9446,-3.935,-3.9272,-3.9142,-3.9031,-3.895,-3.8862,-3.8792,-3.8686,-3.8562,-3.8401,-3.8368,-3.832,-3.8272,-3.8121,-3.7966,-3.7417,-3.6826,-3.6326,-3.5573,-3.4662,-3.3386,-3.2962,-3.2786,-3.2251,-3.1721,-3.1283,-3.1044,-3.0885,-3.076,-3.0531,-3.0485,-3.0401,-3.0081,-2.9848,-2.9738,-2.9611,-2.9493,-2.9189,-2.9028,-2.8935,-2.8685,-2.8432,-2.7981,-2.7131,-2.6871,-2.707,-2.6886,-2.6517,-2.6442,-2.6605,-2.646,-2.5981,-2.5401,-2.4725,-2.4112,-2.3812,-2.3638,-2.2843,-2.2112,-2.1929,-2.1788,-2.176,-2.1719,-2.1591,-2.1591,-2.1503,-2.1365,-2.1276,-2.1186,-2.1131,-2.1057,-2.0984,-2.0746,-2.0261,-2.037,-2.0626,-1.9993,-1.9131,-1.8302,-1.7693,-1.7416,-1.7048,-1.6306,-1.5788,-1.5555,-1.5056,-1.4629,-1.4215,-1.3831,-1.3623,-1.3533,-1.334,-1.3174,-1.3064,-1.2886,-1.2364,-3.921,-3.9883,-3.9882,-4.022,-4.0673,-4.0628,-4.0649,-4.0591,-4.0311,-3.9846,-3.9337,-3.9637,-3.9899,-3.9955,-3.9713,-3.9592,-3.9592,-3.9414,-3.9311,-3.9237,-3.9147,-3.9021,-3.8925,-3.8822,-3.867,-3.8544,-3.8483,-3.8403,-3.8153,-3.8154,-3.8189,-3.8122,-3.7739,-3.7578,-3.7433,-3.6765,-3.5976,-3.5077,-3.4093,-3.2989,-3.2261,-3.1927,-3.1399,-3.0998,-3.0736,-3.0634,-3.0593,-3.0551,-3.051,-3.0447,-3.0258,-2.9788,-2.9409,-2.9189,-2.9097,-2.8873,-2.8591,-2.8496,-2.8352,-2.8183,-2.7972,-2.7675,-2.7051,-2.7009,-2.7052,-2.6901,-2.6605,-2.644,-2.6512,-2.6353,-2.5914,-2.5313,-2.4691,-2.4075,-2.3634,-2.3686,-2.3332,-2.2936,-2.2694,-2.2636,-2.2606,-2.2372,-2.2039,-2.2056,-2.207,-2.1923,-2.1764,-2.1638,-2.1052,-2.1028,-2.0991,-2.068,-2.0378,-2.0336,-2.0308,-1.9785,-1.8992,-1.8048,-1.7206,-1.6788,-1.6313,-1.5798,-1.5368,-1.5311,-1.5083,-1.4692,-1.4287,-1.3944,-1.3854,-1.378,-1.3581,-1.3412,-1.3259,-1.2779,-1.2104]},{"header":{"parameterUnit":"m.s-1","parameterCategory":1,"la1":31.0,"la2":29.5877,"lo1":-88.7671,"lo2":-86.6584,"dy":0.0162,"dx":0.0185,"nx":115,"ny":88,"refTime":"2023-08-17T06:00:00:Z","depth":0,"parameterNumber":3,"parameterNumberName":"V-component_of_WINDS"},"data":[0.0,0.0,0.0,0.0,0.0,0.0,0.0,0.0,0.0,0.0,0.0,0.0,0.0,0.0,0.0,0.0,0.0,0.0,0.0,0.0,0.0,0.0,0.0,0.0,0.0,0.0,0.0,0.0,0.0,0.0,0.0,0.0,0.0,0.0,0.0,0.0,0.0,0.0,0.0,0.0,0.0,0.0,0.0,0.0,0.0,0.0,0.0,0.0,0.0,0.0,0.0,0.0,0.0,0.0,0.0,0.0,0.0,0.0,0.0,0.0,0.0,0.0,0.0,0.0,0.0,0.0,0.0,0.0,0.0,0.0,0.0,0.0,0.0,0.0,0.0,0.0,0.0,0.0,0.0,0.0,0.0,0.0,0.0,0.0,0.0,0.0,0.0,0.0,0.0,0.0,0.0,0.0,0.0,0.0,0.0,0.0,0.0,0.0,0.0,0.0,0.0,0.0,0.0,0.0,0.0,0.0,0.0,0.0,0.0,0.0,0.0,0.0,0.0,0.0,0.0,0.0,0.0,0.0,0.0,0.0,0.0,0.0,0.0,0.0,0.0,0.0,0.0,0.0,0.0,0.0,0.0,0.0,0.0,0.0,0.0,0.0,0.0,0.0,0.0,0.0,0.0,0.0,0.0,0.0,0.0,0.0,0.0,0.0,0.0,0.0,0.0,0.0,0.0,0.0,0.0,0.0,0.0,0.0,0.0,0.0,0.0,0.0,0.0,0.0,0.0,0.0,0.0,0.0,0.0,0.0,0.0,0.0,0.0,0.0,0.0,0.0,0.0,0.0,0.0,0.0,0.0,0.0,0.0,0.0,0.0,0.0,0.0,0.0,0.0,0.0,0.0,0.0,0.0,0.0,0.0,0.0,0.0,0.0,0.0,0.0,0.0,0.0,0.0,0.0,0.0,0.0,0.0,0.0,0.0,0.0,0.0,0.0,0.0,0.0,0.0,0.0,0.0,0.0,0.0,0.0,0.0,0.0,0.0,0.0,0.0,0.0,0.0,0.0,0.0,0.0,0.0,0.0,0.0,0.0,0.0,0.0,0.0,0.0,0.0,0.0,0.0,0.0,0.0,0.0,0.0,0.0,0.0,0.0,0.0,0.0,0.0,0.0,0.0,0.0,0.0,0.0,0.0,0.0,0.0,0.0,0.0,0.0,0.0,0.0,0.0,0.0,0.0,0.0,0.0,0.0,0.0,0.0,0.0,0.0,0.0,0.0,0.0,0.0,0.0,0.0,0.0,0.0,0.0,0.0,0.0,0.0,0.0,0.0,0.0,0.0,0.0,0.0,0.0,0.0,0.0,0.0,0.0,0.0,0.0,0.0,0.0,0.0,0.0,0.0,0.0,0.0,0.0,0.0,0.0,0.0,0.0,0.0,0.0,0.0,0.0,0.0,0.0,0.0,0.0,0.0,0.0,0.0,0.0,0.0,0.0,0.0,0.0,0.0,0.0,0.0,0.0,0.0,0.0,0.0,0.0,0.0,0.0,0.0,0.0,0.0,0.0,0.0,0.0,0.0,0.0,0.0,0.0,0.0,0.0,0.0,0.0,0.0,0.0,0.0,0.0,0.0,0.0,0.0,0.0,0.0,0.0,0.0,0.0,0.0,0.0,0.0,0.0,0.0,0.0,0.0,0.0,0.0,0.0,0.0,0.0,0.0,0.0,0.0,0.0,0.0,0.0,0.0,0.0,0.0,0.0,0.0,0.0,0.0,0.0,0.0,0.0,0.0,0.0,0.0,0.0,0.0,0.0,0.0,0.0,0.0,0.0,0.0,0.0,0.0,0.0,0.0,0.0,0.0,0.0,0.0,0.0,0.0,0.0,0.0,0.0,0.0,0.0,0.0,0.0,0.0,0.0,0.0,0.0,0.0,0.0,0.0,0.0,0.0,0.0,0.0,0.0,0.0,0.0,0.0,0.0,0.0,0.0,0.0,0.0,0.0,0.0,0.0,0.0,0.0,0.0,0.0,0.0,0.0,0.0,0.0,0.0,0.0,0.0,0.0,0.0,0.0,0.0,0.0,0.0,0.0,0.0,0.0,0.0,0.0,0.0,0.0,0.0,0.0,0.0,0.0,0.0,0.0,0.0,0.0,0.0,0.0,0.0,0.0,0.0,0.0,0.0,0.0,0.0,0.0,0.0,0.0,0.0,0.0,0.0,0.0,0.0,0.0,0.0,0.0,0.0,0.0,0.0,0.0,0.0,0.0,0.0,0.0,0.0,0.0,0.0,0.0,0.0,0.0,0.0,0.0,0.0,0.0,0.0,0.0,0.0,0.0,0.0,0.0,0.0,0.0,0.0,0.0,0.0,0.0,0.0,0.0,0.0,0.0,0.0,0.0,0.0,0.0,0.0,0.0,0.0,0.0,0.0,0.0,0.0,0.0,0.0,0.0,0.0,0.0,0.0,0.0,0.0,0.0,0.0,0.0,0.0,0.0,0.0,0.0,0.0,0.0,0.0,0.0,0.0,0.0,0.0,0.0,0.0,0.0,0.0,0.0,0.0,0.0,0.0,0.0,0.0,0.0,0.0,0.0,0.0,0.0,0.0,0.0,0.0,0.0,0.0,0.0,0.0,0.0,0.0,0.0,0.0,0.0,0.0,0.0,0.0,0.0,0.0,0.0,0.0,0.0,0.0,0.0,0.0,0.0,0.0,0.0,0.0,0.0,0.0,0.0,0.0,0.0,0.0,0.0,0.0,0.0,0.0,0.0,0.0,0.0,0.0,0.0,0.0,0.0,0.0,0.0,0.0,0.0,0.0,0.0,0.0,0.0,0.0,0.0,0.0,0.0,0.0,0.0,0.0,0.0,0.0,0.0,0.0,0.0,0.0,0.0,0.0,0.0,0.0,0.0,0.0,0.0,0.0,0.0,0.0,0.0,0.0,0.0,0.0,0.0,0.0,0.0,0.0,0.0,0.0,0.0,0.0,0.0,0.0,0.0,0.0,0.0,0.0,0.0,0.0,0.0,0.0,0.0,0.0,0.0,0.0,0.0,0.0,0.0,0.0,0.0,0.0,0.0,0.0,0.0,0.0,0.0,0.0,0.0,0.0,0.0,0.0,0.0,0.0,0.0,0.0,0.0,0.0,0.0,0.0,0.0,0.0,0.0,0.0,0.0,0.0,0.0,0.0,0.0,0.0,0.0,0.0,0.0,0.0,0.0,0.0,0.0,0.0,0.0,0.0,0.0,0.0,0.0,0.0,0.0,0.0,0.0,0.0,0.0,0.0,0.0,0.0,0.0,0.0,0.0,0.0,0.0,0.0,0.0,0.0,0.0,0.0,0.0,0.0,0.0,0.0,0.0,0.0,0.0,0.0,0.0,0.0,0.0,0.0,0.0,0.0,0.0,0.0,0.0,0.0,0.0,0.0,0.0,0.0,0.0,0.0,0.0,0.0,0.0,0.0,0.0,0.0,0.0,0.0,0.0,0.0,0.0,0.0,0.0,0.0,0.0,0.0,0.0,0.0,0.0,0.0,0.0,0.0,0.0,0.0,0.0,0.0,0.0,0.0,0.0,0.0,0.0,0.0,0.0,0.0,0.0,0.0,0.0,0.0,0.0,0.0,0.0,0.0,0.0,0.0,0.0,0.0,0.0,0.0,0.0,0.0,0.0,0.0,0.0,0.0,0.0,0.0,0.0,0.0,0.0,0.0,0.0,0.0,0.0,0.0,0.0,0.0,0.0,0.0,0.0,0.0,0.0,0.0,0.0,0.0,0.0,0.0,0.0,0.0,0.0,0.0,0.0,0.0,0.0,0.0,0.0,0.0,0.0,0.0,0.0,0.0,0.0,0.0,0.0,0.0,0.0,0.0,0.0,0.0,0.0,0.0,0.0,0.0,0.0,0.0,0.0,0.0,0.0,0.0,0.0,0.0,0.0,0.0,0.0,0.0,0.0,0.0,0.0,0.0,0.0,0.0,0.0,0.0,0.0,0.0,0.0,0.0,0.0,0.0,0.0,0.0,0.0,0.0,0.0,0.0,0.0,0.0,0.0,0.0,0.0,0.0,0.0,0.0,0.0,0.0,0.0,0.0,0.0,0.0,0.0,0.0,0.0,0.0,0.0,0.0,0.0,0.0,0.0,0.0,0.0,0.0,0.0,0.0,0.0,0.0,0.0,0.0,0.0,0.0,0.0,0.0,0.0,0.0,0.0,0.0,0.0,0.0,0.0,0.0,0.0,0.0,0.0,0.0,0.0,0.0,0.0,0.0,0.0,0.0,0.0,0.0,0.0,0.0,0.0,0.0,0.0,0.0,0.0,0.0,0.0,-0.2926,0.0,0.0,0.0,0.0,0.0,0.0,0.0,0.0,0.0,0.0,0.0,0.0,0.0,0.0,0.0,0.0,0.0,0.0,0.0,0.0,0.0,0.0,0.0,0.0,0.0,0.0,0.0,0.0,0.0,0.0,0.0,0.0,0.0,0.0,0.0,0.0,0.0,0.0,0.0,0.0,0.0,0.0,0.0,0.0,0.0,0.0,0.0,0.0,0.0,0.0,0.0,0.0,0.0,0.0,0.0,0.0,0.0,0.0,0.0,0.0,0.0,0.0,0.0,0.0,0.0,0.0,0.0,0.0,0.0,0.0,0.0,0.0,0.0,0.0,0.0,0.0,0.0,0.0,0.0,0.0,0.0,0.0,0.0,0.0,0.0,0.0,0.0,0.0,0.0,0.0,0.0,0.0,0.0,0.0,0.0,0.0,0.0,0.0,0.0,0.0,0.0,0.0,0.0,0.0,0.0,0.0,0.0,0.0,0.0,0.0,-0.5677,-0.5203,-0.415,-0.3403,-0.2984,0.0,0.0,0.0,0.0,0.0,0.0,0.0,0.0,0.0,0.0,0.0,0.0,0.0,0.0,0.0,0.0,0.0,0.0,0.0,0.0,0.0,0.0,0.0,0.0,0.0,0.0,0.0,0.0,0.0,0.0,0.0,0.0,0.0,0.0,0.0,0.0,0.0,0.0,0.0,0.0,0.0,0.0,0.0,0.0,0.0,0.0,0.0,0.0,0.0,0.0,0.0,0.0,0.0,0.0,0.0,0.0,0.0,0.0,0.0,0.0,0.0,0.0,0.0,0.0,0.0,0.0,0.0,0.0,0.0,0.0,0.0,0.0,0.0,0.0,0.0,0.0,0.0,0.0,0.0,0.0,0.0,0.0,0.0,0.0,0.0,0.0,0.0,0.0,0.0,0.0,0.0,0.0,0.0,0.0,0.0,0.0,0.0,0.0,0.0,0.0,0.0,0.0,0.0,0.0,0.0,0.0,0.0,0.0,0.0,0.0,0.0,0.0,-0.4346,-0.3569,-0.2764,0.0,0.0,0.0,0.0,0.0,0.0,0.0,0.0,0.0,0.0,0.0,0.0,0.0,0.0,0.0,0.0,0.0,0.0,0.0,0.0,0.0,0.0,0.0,0.0,0.0,0.0,0.0,0.0,0.0,0.0,0.0,0.0,0.0,0.0,0.0,0.0,0.0,0.0,0.0,0.0,0.0,0.0,0.0,0.0,0.0,0.0,0.0,0.0,0.0,0.0,0.0,0.0,0.0,0.0,0.0,0.0,0.0,0.0,0.0,0.0,0.0,0.0,0.0,0.0,0.0,0.0,0.0,0.0,0.0,0.0,0.0,0.0,0.0,0.0,0.0,0.0,0.0,0.0,0.0,0.0,0.0,0.0,0.0,0.0,0.0,0.0,0.0,0.0,0.0,0.0,0.0,0.0,0.0,0.0,0.0,0.0,0.0,0.0,0.0,0.0,0.0,0.0,0.0,0.0,0.0,0.0,0.0,0.0,0.0,0.0,-0.6349,-0.5746,-0.5234,0.0,-0.2961,0.0,0.0,0.0,0.0,0.0,0.0,0.0,0.0,0.0,0.0,0.0,0.0,0.0,0.0,0.0,0.0,0.0,0.0,0.0,0.0,0.0,0.0,0.0,0.0,0.0,0.0,0.0,0.0,0.0,0.0,0.0,0.0,0.0,0.0,0.0,0.0,0.0,0.0,0.0,0.0,0.0,0.0,0.0,0.0,0.0,0.0,0.0,0.0,0.0,0.0,0.0,0.0,0.0,0.0,0.0,0.0,0.0,0.0,0.0,0.0,0.0,0.0,0.0,0.0,0.0,0.0,0.0,0.0,0.0,0.0,0.0,0.0,0.0,0.0,0.0,0.0,0.0,0.0,0.0,0.0,0.0,0.0,0.0,0.0,0.0,0.0,0.0,0.0,0.0,0.0,0.0,0.0,0.0,0.0,0.0,0.0,0.0,0.0,0.0,0.0,0.0,0.0,0.0,0.0,0.0,0.0,0.0,0.0,0.0,0.0,-0.6615,-0.6159,-0.5395,-0.4429,0.0,0.0,0.0,0.0,0.0,0.0,0.0,0.0,0.0,0.0,0.0,0.0,0.0,0.0,0.0,0.0,0.0,0.0,0.0,0.0,0.0,0.0,0.0,0.0,0.0,0.0,0.0,0.0,0.0,0.0,0.0,0.0,0.0,0.0,0.0,0.0,0.0,0.0,0.0,0.0,0.0,0.0,0.0,0.0,0.0,0.0,0.0,0.0,0.0,0.0,0.0,0.0,0.0,0.0,0.0,0.0,0.0,0.0,0.0,0.0,0.0,0.0,0.0,0.0,0.0,0.0,0.0,0.0,0.0,0.0,0.0,0.0,0.0,0.0,0.0,0.0,0.0,0.0,0.0,0.0,0.0,0.0,0.0,0.0,0.0,0.0,0.0,0.0,0.0,0.0,0.0,0.0,0.0,0.0,0.0,0.0,0.0,0.0,0.0,0.0,0.0,0.0,0.0,0.0,0.0,0.0,0.0,0.0,0.0,0.0,-0.7241,-0.6864,-0.6381,-0.5477,-0.4594,-0.3846,0.0,0.0,0.0,0.0,0.0,0.0,0.0,0.0,0.0,0.0,0.0,0.0,0.0,0.0,0.0,0.0,0.0,0.0,0.0,0.0,0.0,0.0,0.0,0.0,0.0,0.0,0.0,0.0,0.0,0.0,0.0,0.0,0.0,0.0,0.0,0.0,0.0,0.0,0.0,0.0,0.0,0.0,0.0,0.0,0.0,0.0,0.0,0.0,0.0,0.0,0.0,0.0,0.0,0.0,0.0,0.0,0.0,0.0,0.0,0.0,0.0,0.0,0.0,0.0,0.0,0.0,0.0,0.0,0.0,0.0,0.0,0.0,0.0,0.0,0.0,0.0,0.0,0.0,0.0,0.0,0.0,0.0,0.0,0.0,0.0,0.0,0.0,0.0,0.0,0.0,0.0,0.0,0.0,0.0,0.0,0.0,0.0,0.0,0.0,0.0,0.0,0.0,0.0,0.0,0.0,0.0,0.0,0.0,-0.7904,-0.7616,-0.7139,-0.6408,-0.5532,-0.5014,0.0,0.0,0.0,0.0,0.0,0.0,0.0,0.0,0.0,0.0,0.0,0.0,0.0,0.0,0.0,0.0,0.0,0.0,0.0,0.0,0.0,0.0,0.0,0.0,0.0,0.0,0.0,0.0,0.0,0.0,0.0,0.0,0.0,0.0,0.0,0.0,0.0,0.0,0.0,0.0,0.0,0.0,0.0,0.0,0.0,0.0,0.0,0.0,0.0,0.0,0.0,0.0,0.0,0.0,0.0,0.0,0.0,0.0,0.0,0.0,0.0,0.0,0.0,0.0,0.0,0.0,0.0,0.0,0.0,0.0,0.0,0.0,0.0,0.0,0.0,0.0,0.0,0.0,0.0,0.0,0.0,0.0,0.0,0.0,0.0,0.0,0.0,0.0,0.0,0.0,0.0,0.0,0.0,0.0,0.0,0.0,0.0,0.0,0.0,0.0,0.0,0.0,0.0,0.0,0.0,0.0,0.0,0.0,0.0,-0.8329,-0.7783,-0.7246,-0.6723,-0.5891,-0.5317,0.0,0.0,0.0,0.0,0.0,0.0,0.0,0.0,0.0,0.0,0.0,0.0,0.0,0.0,0.0,0.0,0.0,0.0,0.0,0.0,0.0,0.0,0.0,0.0,0.0,0.0,0.0,0.0,0.0,0.0,0.0,0.0,0.0,0.0,0.0,0.0,0.0,0.0,0.0,0.0,0.0,0.0,0.0,0.0,0.0,0.0,0.0,0.0,0.0,0.0,0.0,0.0,0.0,0.0,0.0,0.0,0.0,0.0,0.0,0.0,0.0,0.0,0.0,0.0,0.0,0.0,0.0,0.0,0.0,0.0,0.0,0.0,0.0,0.0,0.0,0.0,0.0,0.0,0.0,0.0,0.0,0.0,0.0,0.0,0.0,0.0,0.0,0.0,0.0,0.0,0.0,0.0,0.0,0.0,0.0,0.0,0.0,0.0,0.0,0.0,0.0,0.0,0.0,0.0,0.0,0.0,0.0,0.0,0.0,-0.8672,0.0,-0.7643,-0.7149,-0.6426,-0.5723,0.0,0.0,0.0,0.0,0.0,0.0,0.0,0.0,0.0,0.0,0.0,0.0,0.0,0.0,0.0,0.0,0.0,0.0,0.0,0.0,0.0,0.0,0.0,0.0,0.0,0.0,0.0,0.0,0.0,0.0,0.0,0.0,0.0,0.0,0.0,0.0,0.0,0.0,0.0,0.0,0.0,0.0,0.0,0.0,0.0,0.0,0.0,0.0,0.0,0.0,0.0,0.0,0.0,0.0,0.0,0.0,0.0,0.0,0.0,0.0,0.0,0.0,0.0,0.0,0.0,0.0,0.0,0.0,0.0,0.0,0.0,0.0,0.0,0.0,0.0,0.0,0.0,0.0,0.0,0.0,0.0,0.0,0.0,0.0,0.0,0.0,0.0,0.0,0.0,0.0,0.0,0.0,0.0,0.0,0.0,0.0,0.0,0.0,0.0,0.0,0.0,0.0,0.0,0.0,0.0,0.0,0.0,0.0,-0.9204,-0.883,-0.8646,-0.8282,-0.7723,-0.7122,-0.6249,0.0,0.0,0.0,0.0,0.0,0.0,0.0,0.0,0.0,0.0,0.0,0.0,0.0,0.0,0.0,0.0,0.0,0.0,0.0,0.0,0.0,0.0,0.0,0.0,0.0,0.0,0.0,0.0,0.0,0.0,0.0,0.0,0.0,0.0,0.0,0.0,0.0,0.0,0.0,0.0,0.0,0.0,0.0,0.0,0.0,0.0,0.0,0.0,0.0,0.0,0.0,0.0,0.0,0.0,0.0,0.0,0.0,0.0,0.0,0.0,0.0,0.0,0.0,0.0,0.0,0.0,0.0,0.0,0.0,0.0,0.0,0.0,0.0,0.0,0.0,0.0,0.0,0.0,0.0,0.0,0.0,0.0,0.0,0.0,0.0,0.0,0.0,0.0,0.0,0.0,0.0,0.0,0.0,0.0,0.0,0.0,0.0,0.0,0.0,0.0,0.0,0.0,0.0,0.0,0.0,0.0,0.0,0.0,0.0,-0.9099,-0.8659,-0.8368,-0.8156,-0.7117,-0.6081,0.0,0.0,0.0,0.0,0.0,0.0,0.0,0.0,0.0,0.0,0.0,0.0,0.0,0.0,0.0,0.0,0.0,0.0,0.0,0.0,0.0,0.0,0.0,0.0,0.0,0.0,0.0,0.0,0.0,0.0,0.0,0.0,0.0,0.0,0.0,0.0,0.0,0.0,0.0,0.0,0.0,0.0,0.0,0.0,0.0,0.0,0.0,0.0,0.0,0.0,0.0,0.0,0.0,0.0,0.0,0.0,0.0,0.0,0.0,0.0,0.0,0.0,0.0,0.0,0.0,0.0,0.0,0.0,0.0,0.0,0.0,0.0,0.0,0.0,0.0,0.0,0.0,0.0,0.0,0.0,0.0,0.0,0.0,0.0,0.0,0.0,0.0,0.0,0.0,0.0,0.0,0.0,0.0,0.0,0.0,0.0,0.0,0.0,0.0,0.0,0.0,0.0,0.0,0.0,0.0,0.0,0.0,0.0,0.0,-0.9524,-0.9126,-0.8672,-0.8164,-0.7444,-0.6411,-0.5078,0.0,0.0,0.0,0.0,0.0,0.0,0.0,0.0,0.0,0.0,0.0,0.0,0.0,0.0,0.0,0.0,0.0,0.0,0.0,0.0,0.0,0.0,0.0,0.0,0.0,0.0,0.0,0.0,0.0,0.0,0.0,0.0,0.0,0.0,0.0,0.0,0.0,0.0,0.0,0.0,0.0,0.0,0.0,0.0,0.0,0.0,0.0,0.0,0.0,0.0,0.0,0.0,0.0,0.0,0.0,0.0,0.0,0.0,0.0,0.0,0.0,0.0,0.0,0.0,0.0,0.0,0.0,0.0,0.0,0.0,0.0,0.0,0.0,0.0,0.0,0.0,0.0,0.0,0.0,0.0,0.0,0.0,0.0,0.0,0.0,0.0,0.0,0.0,0.0,0.0,0.0,0.0,0.0,0.0,0.0,0.0,0.0,0.0,0.0,0.0,0.0,0.0,0.0,0.0,0.0,0.0,0.0,0.0,-1.0007,-0.9906,-0.9183,-0.7853,-0.8043,-0.7176,0.0,0.0,0.0,0.0,0.0,0.0,0.0,0.0,0.0,0.0,0.0,0.0,0.0,0.0,0.0,0.0,0.0,0.0,0.0,0.0,0.0,0.0,0.0,0.0,0.0,0.0,0.0,0.0,0.0,0.0,0.0,0.0,0.0,0.0,0.0,0.0,0.0,0.0,0.0,0.0,0.0,0.0,0.0,0.0,0.0,0.0,0.0,0.0,0.0,0.0,0.0,0.0,0.0,0.0,0.0,0.0,0.0,0.0,0.0,0.0,0.0,0.0,0.0,0.0,0.0,0.0,0.0,0.0,0.0,0.0,0.0,0.0,0.0,0.0,0.0,0.0,0.0,0.0,0.0,0.0,0.0,0.0,0.0,0.0,0.0,0.0,0.0,0.0,0.0,0.0,0.0,0.0,0.0,0.0,0.0,0.0,0.0,0.0,0.0,0.0,0.0,0.0,0.0,0.0,0.0,0.0,0.0,0.0,0.0,-1.0051,-1.0205,-0.9829,-0.8856,-0.8262,-0.7369,0.0,0.0,0.0,0.0,0.0,0.0,0.0,0.0,0.0,0.0,0.0,0.0,0.0,0.0,0.0,0.0,0.0,0.0,0.0,0.0,0.0,0.0,0.0,0.0,0.0,0.0,0.0,0.0,0.0,0.0,0.0,0.0,0.0,0.0,0.0,0.0,0.0,0.0,0.0,0.0,0.0,0.0,0.0,0.0,0.0,0.0,0.0,0.0,0.0,0.0,0.0,0.0,0.0,0.0,0.0,0.0,0.0,0.0,0.0,0.0,0.0,0.0,0.0,0.0,0.0,0.0,0.0,0.0,0.0,0.0,0.0,0.0,0.0,0.0,0.0,0.0,0.0,0.0,0.0,0.0,0.0,0.0,0.0,0.0,0.0,0.0,0.0,0.0,0.0,0.0,0.0,0.0,0.0,0.0,0.0,0.0,0.0,0.0,0.0,0.0,0.0,0.0,0.0,0.0,0.0,0.0,0.0,0.0,-1.1217,-1.0385,-1.0385,-1.0102,-0.955,-0.8468,-0.7498,0.0,0.0,0.0,0.0,0.0,0.0,0.0,0.0,0.0,0.0,0.0,0.0,0.0,0.0,0.0,0.0,0.0,0.0,0.0,0.0,0.0,0.0,0.0,0.0,0.0,0.0,0.0,0.0,0.0,0.0,0.0,0.0,0.0,0.0,0.0,0.0,0.0,0.0,0.0,0.0,0.0,0.0,0.0,0.0,0.0,0.0,0.0,0.0,0.0,0.0,0.0,0.0,0.0,0.0,0.0,0.0,0.0,0.0,0.0,0.0,0.0,0.0,0.0,0.0,0.0,0.0,0.0,0.0,0.0,0.0,0.0,0.0,0.0,0.0,0.0,0.0,0.0,0.0,0.0,0.0,0.0,0.0,0.0,0.0,0.0,0.0,0.0,0.0,0.0,0.0,0.0,0.0,0.0,0.0,0.0,0.0,0.0,0.0,0.0,0.0,0.0,0.0,0.0,0.0,0.0,0.0,0.0,0.0,-1.1301,-1.0922,-1.0462,-1.0146,-0.994,-0.8699,-0.7711,0.0,0.0,0.0,0.0,0.0,0.0,0.0,0.0,0.0,0.0,0.0,0.0,0.0,0.0,0.0,0.0,0.0,0.0,0.0,0.0,0.0,0.0,0.0,0.0,0.0,0.0,0.0,0.0,0.0,0.0,0.0,0.0,0.0,0.0,0.0,0.0,0.0,0.0,0.0,0.0,0.0,0.0,0.0,0.0,0.0,0.0,0.0,0.0,0.0,0.0,0.0,0.0,0.0,0.0,0.0,0.0,0.0,0.0,0.0,0.0,0.0,0.0,0.0,0.0,0.0,0.0,0.0,0.0,0.0,0.0,0.0,0.0,0.0,0.0,0.0,0.0,0.0,0.0,0.0,0.0,0.0,0.0,0.0,0.0,0.0,0.0,0.0,0.0,0.0,0.0,0.0,0.0,0.0,0.0,0.0,0.0,0.0,0.0,0.0,0.0,0.0,0.0,0.0,0.0,0.0,0.0,0.0,0.0,-1.1301,-1.0905,-1.0598,-1.0249,-0.9847,-0.9054,-0.8474,0.0,0.0,0.0,0.0,0.0,0.0,0.0,0.0,0.0,0.0,0.0,0.0,0.0,0.0,0.0,0.0,0.0,0.0,0.0,0.0,0.0,0.0,0.0,0.0,0.0,0.0,0.0,0.0,0.0,0.0,0.0,0.0,0.0,0.0,0.0,0.0,0.0,0.0,0.0,0.0,0.0,0.0,0.0,0.0,0.0,0.0,0.0,0.0,0.9611,0.0,0.0,0.0,0.0,0.0,0.0,0.0,0.0,0.0,0.0,0.0,0.0,0.0,0.0,0.0,0.0,0.0,0.0,0.0,0.0,0.0,0.0,0.0,0.0,0.0,0.0,0.0,0.0,0.0,0.0,0.0,0.0,0.0,0.0,0.0,0.0,0.0,0.0,0.0,0.0,0.0,0.0,0.0,0.0,0.0,0.0,0.0,0.0,0.0,0.0,0.0,0.0,0.0,0.0,0.0,0.0,0.0,0.0,0.0,-1.1352,-1.1167,-1.059,-1.0231,-1.0113,-0.9394,-0.8679,0.0,0.0,0.0,0.0,0.0,0.0,0.0,0.0,0.0,0.0,0.0,0.0,0.0,0.0,0.0,0.0,0.0,0.0,0.0,0.0,0.0,0.0,0.0,0.0,0.0,0.0,0.0,0.0,0.0,0.0,0.0,0.0,0.0,0.0,0.0,0.0,0.0,0.0,0.0,0.0,0.0,0.0,0.0,0.0,0.0,0.0,0.0,0.0,0.0,0.0,0.0,0.0,0.0,0.0,0.0,0.0,0.0,0.0,0.0,0.0,0.0,0.0,0.0,0.0,0.0,0.0,0.0,0.0,0.0,0.0,0.0,0.0,0.0,0.0,0.0,0.0,0.0,0.0,0.0,0.0,0.0,0.0,0.0,0.0,0.0,0.0,0.0,0.0,0.0,0.0,0.0,0.0,0.0,0.0,0.0,0.0,0.0,0.0,0.0,0.0,0.0,0.0,0.0,0.0,0.0,0.0,0.0,-1.1502,-1.1352,-1.1377,-1.0531,-1.018,-1.0419,-0.9629,-0.8639,-0.7492,0.0,0.0,0.0,0.0,0.0,0.0,0.0,0.0,0.0,0.0,0.0,0.0,0.0,0.0,0.0,0.0,0.0,0.0,0.0,0.0,0.0,0.0,0.0,0.0,0.0,0.0,0.0,0.0,0.0,0.0,0.0,0.0,0.0,0.0,0.0,0.0,0.0,0.0,0.8356,0.8817,0.0,0.0,0.0,0.0,0.0,0.0,0.0,0.0,0.953,0.0,0.0,0.0,0.0,0.0,0.0,0.0,0.0,0.0,0.0,0.0,0.0,0.0,0.0,0.0,0.0,0.0,0.0,0.0,0.0,0.0,0.0,0.0,0.0,0.0,0.0,0.0,0.0,0.0,0.0,0.0,0.0,0.0,0.0,0.0,0.0,0.0,0.0,0.0,0.0,0.0,0.0,0.0,0.0,0.0,0.0,0.0,0.0,0.0,0.0,0.0,0.0,0.0,0.0,0.0,0.0,-1.1753,-1.1544,-1.1301,-1.0998,-1.0624,-1.0316,-1.0069,-0.9498,-0.856,-0.7272,0.0,0.0,0.0,0.0,0.0,0.0,0.0,0.0,0.0,0.0,0.0,0.0,0.0,0.0,0.0,0.0,0.0,0.0,0.0,0.0,0.0,0.0,0.0,0.0,0.0,0.0,0.0,0.0,0.0,0.0,0.0,0.0,0.0,0.0,0.0,0.0,0.0,0.0,0.0,0.8133,0.8428,0.0,0.0,0.0,0.0,0.0,0.0,0.0,0.0,0.8867,0.0,0.0,0.0,0.0,0.0,0.0,0.0,0.0,0.0,0.0,0.0,0.0,0.0,0.0,0.0,0.0,0.0,0.0,0.0,0.0,0.0,0.0,0.0,0.0,0.0,0.0,0.0,0.0,0.0,0.0,0.0,0.0,0.0,0.0,0.0,0.0,0.0,0.0,0.0,0.0,0.0,0.0,0.0,0.0,0.0,0.0,0.0,0.0,0.0,0.0,0.0,0.0,0.0,0.0,0.0,-1.1794,-1.1452,-1.1276,-1.12,-1.0565,-1.0257,-1.0257,-0.9629,-0.8613,0.0,0.0,0.0,0.0,0.0,0.0,0.0,0.0,0.0,0.0,0.0,0.0,0.0,0.0,0.0,0.0,0.0,0.0,0.0,0.0,0.0,0.0,0.0,0.0,0.0,0.0,0.0,0.0,0.0,0.0,0.0,0.0,0.0,0.0,0.0,0.0,0.0,0.0,0.0,0.0,0.8103,0.8239,0.8335,0.0,0.0,0.0,0.0,0.0,0.0,0.9581,0.9523,0.0,0.0,0.0,0.0,0.0,0.0,0.0,0.0,0.0,0.0,0.0,0.0,0.0,0.0,0.0,0.0,0.0,0.0,0.0,0.0,0.0,0.0,0.0,0.0,0.0,0.0,0.0,0.0,0.0,0.0,0.0,0.0,0.0,0.0,0.0,0.0,0.0,0.0,0.0,0.0,0.0,0.0,0.0,0.0,0.0,0.0,0.0,0.0,0.0,0.0,0.0,0.0,0.0,0.0,0.0,-1.1852,-1.1418,-1.1251,-1.1267,-1.0514,-1.018,-1.0308,-0.9621,-0.8639,0.0,0.0,0.0,0.0,0.0,0.0,0.0,0.0,0.0,0.0,0.0,0.0,0.0,0.0,0.0,0.0,0.0,0.0,0.0,0.0,0.0,0.0,0.0,0.0,0.0,0.0,0.0,0.0,0.0,0.0,0.0,0.0,0.0,0.0,0.0,0.0,0.0,0.0,0.0,0.0,0.0,0.8428,0.8661,0.8842,0.0,0.0,0.0,0.0,0.9809,1.0023,0.0,0.0,0.0,0.0,0.0,0.0,0.0,0.0,0.0,0.0,0.0,0.0,0.0,0.0,0.0,0.0,0.0,0.0,0.0,0.0,0.0,0.0,0.0,0.0,0.0,0.0,0.0,0.0,0.0,0.0,0.0,0.0,0.0,0.0,0.0,0.0,0.0,0.0,0.0,0.0,0.0,0.0,0.0,0.0,0.0,0.0,0.0,0.0,0.0,0.0,0.0,0.0,0.0,0.0,0.0,0.0,-1.1728,-1.1653,-1.1301,-1.0641,-1.0496,-1.0231,-0.9718,-0.9171,-0.8534,0.0,0.0,0.0,0.0,0.0,0.0,0.0,0.0,0.0,0.0,0.0,0.0,0.0,0.0,0.0,0.0,0.0,0.0,0.0,0.0,0.0,0.0,0.0,0.0,0.0,0.0,0.0,0.0,0.0,0.0,0.0,0.0,0.0,0.0,0.0,0.0,0.0,0.0,0.0,0.0,0.0,0.9053,0.8965,0.888,0.9073,0.0,0.0,0.894,0.9823,0.9901,0.0,0.0,0.0,0.0,0.0,0.0,0.0,0.0,0.0,0.0,0.0,0.0,0.0,0.0,0.0,0.0,0.0,0.0,0.0,0.0,0.0,0.0,0.0,0.0,0.0,0.0,0.0,0.0,0.0,0.0,0.0,0.0,0.0,0.0,0.0,0.0,0.0,0.0,0.0,0.0,0.0,0.0,0.0,0.0,0.0,0.0,0.0,0.0,0.0,0.0,0.0,0.0,0.0,0.0,0.0,-1.1877,-1.1694,-1.1628,-1.1368,-1.0947,-1.0641,-1.0385,-1.012,-0.9178,-0.8428,0.0,0.0,0.0,0.0,0.0,0.0,0.0,0.0,0.0,0.0,0.0,0.0,0.0,0.0,0.0,0.0,0.0,0.0,0.0,0.0,0.0,0.0,0.0,0.0,0.0,0.0,0.0,0.0,0.0,0.0,0.0,0.0,0.0,0.0,0.0,0.0,0.0,0.0,0.0,0.0,0.0,0.0,0.888,0.8964,0.0,0.0,0.0,0.8935,0.9755,0.0,0.0,0.0,0.0,0.0,0.0,0.0,0.0,0.0,0.0,0.0,0.0,0.0,0.0,0.0,0.0,0.0,0.0,0.0,0.0,0.0,0.0,0.0,0.0,0.0,0.0,0.0,0.0,0.0,0.0,0.0,0.0,0.0,0.0,0.0,0.0,0.0,0.0,0.0,0.0,0.0,0.0,0.0,0.0,0.0,0.0,0.0,0.0,0.0,0.0,0.0,0.0,0.0,0.0,0.0,0.0,0.0,-1.1703,-1.1578,-1.1402,-1.1192,-1.0744,-1.047,-1.036,-0.9256,0.0,0.0,0.0,0.0,0.0,0.0,0.0,0.0,0.0,0.0,0.0,0.0,0.0,0.0,0.0,0.0,0.0,0.0,0.0,0.0,0.0,0.0,0.0,0.0,0.0,0.0,0.0,0.8973,0.0,0.0,0.0,0.0,0.0,0.0,0.0,0.0,0.0,0.0,0.0,0.0,0.0,0.0,0.9145,0.9051,0.9193,0.9316,0.0,0.0,0.9185,0.9666,0.971,0.9855,0.0,0.0,0.0,0.0,0.0,0.0,0.0,0.0,0.0,0.0,0.0,0.0,0.0,0.0,0.0,0.0,0.0,0.0,0.0,0.0,0.0,0.0,0.0,0.0,0.0,0.0,0.0,0.0,0.0,0.0,0.0,0.0,0.0,0.0,0.0,0.0,0.0,0.0,0.0,0.0,0.0,0.0,0.0,0.0,0.0,0.0,0.0,0.0,0.0,0.0,0.0,0.0,0.0,0.0,0.0,-1.1694,-1.1578,-1.1326,-1.0947,-1.0641,-1.0368,-1.0025,-0.9223,-0.856,0.0,0.0,0.0,0.0,0.0,0.0,0.0,0.0,0.0,0.0,0.0,0.0,0.0,0.0,0.0,0.0,0.0,0.0,0.0,0.0,0.0,0.0,0.0,0.0,0.0,0.0,0.0,0.0,0.0,0.0,0.0,0.0,0.0,0.0,0.0,0.0,0.0,0.0,0.0,0.0,0.0,1.0079,0.9795,0.964,0.9621,0.0,0.0,0.9562,0.9614,0.971,0.9744,0.9543,0.0,0.0,0.0,0.0,0.0,0.0,0.0,0.0,0.0,0.0,0.0,0.0,0.0,0.0,0.0,0.0,0.0,0.0,0.0,0.0,0.0,0.0,0.0,0.0,0.0,0.0,0.0,0.0,0.0,0.0,0.0,0.0,0.0,0.0,0.0,0.0,0.0,0.0,0.0,0.0,0.0,0.0,0.0,0.0,0.0,0.0,0.0,0.0,0.0,0.0,0.0,0.0,0.0,-1.1944,-1.2007,-1.1675,-1.1387,-1.1219,-1.0737,-1.0334,-1.0025,-0.9054,-0.8408,0.0,0.0,0.0,0.0,0.0,0.0,0.0,0.0,0.0,0.0,0.0,0.0,0.0,0.0,0.0,0.0,0.0,0.0,0.0,0.0,0.0,0.0,0.0,0.0,0.0,0.0,0.0,0.0,0.8675,0.8624,0.8871,0.0,0.0,0.0,0.0,0.0,0.0,0.0,0.0,0.0,0.0,0.9921,0.9706,0.9706,0.0,0.0,0.9543,0.9536,0.9692,0.964,0.9614,0.9758,0.9725,0.0,0.0,0.0,0.0,0.0,0.0,0.0,0.0,0.0,0.0,0.0,0.0,0.0,0.0,0.0,0.0,0.0,0.0,0.0,0.0,0.0,0.0,0.0,0.0,0.0,0.0,0.0,0.0,0.0,0.0,0.0,0.0,0.0,0.0,0.0,0.0,0.0,0.0,0.0,0.0,0.0,0.0,0.0,0.0,0.0,0.0,0.0,0.0,0.0,0.0,0.0,0.0,-1.2065,-1.2211,-1.1782,-1.1524,-1.1407,-1.0801,-1.0334,-0.9999,-0.9106,-0.8408,0.0,0.0,0.0,0.0,0.0,0.0,0.0,0.0,0.0,0.0,0.0,0.0,0.0,0.0,0.0,0.0,0.0,0.0,0.0,0.0,0.0,0.0,0.0,0.0,0.0,0.0,0.0,0.0,0.8805,0.8806,0.8897,0.0,0.0,0.0,0.0,0.0,0.0,0.0,0.0,0.0,0.0,0.9706,0.9673,0.974,0.974,0.9621,0.951,0.9465,0.9503,0.9458,0.9465,0.9621,0.0,0.0,0.0,0.0,0.0,0.0,0.0,0.0,0.0,0.0,0.0,0.0,0.0,0.0,0.0,0.0,0.0,0.0,0.0,0.0,0.0,0.0,0.0,0.0,0.0,0.0,0.0,0.0,0.0,0.0,-1.3741,0.0,0.0,0.0,0.0,0.0,0.0,0.0,0.0,0.0,0.0,0.0,0.0,0.0,0.0,0.0,0.0,0.0,0.0,0.0,0.0,0.0,0.0,-1.2211,-1.2228,-1.1929,-1.1682,-1.1405,-1.0809,-1.035,-1.0007,-0.9453,-0.8587,-0.7341,0.0,0.0,0.0,0.0,0.0,0.0,0.0,0.0,0.0,0.0,0.0,0.0,0.0,0.0,0.0,0.0,0.0,0.0,0.0,0.0,0.0,0.0,0.0,0.0,0.0,0.0,0.9375,0.949,0.9541,0.0,0.0,0.0,0.0,0.0,0.0,0.0,0.0,0.0,0.0,0.9758,0.9647,0.9766,0.9799,0.974,0.9621,0.9588,0.9432,0.8955,0.9171,0.9283,0.0,0.0,0.0,0.0,0.0,0.0,0.0,0.0,0.0,0.0,0.0,0.0,0.0,0.0,0.0,0.0,0.0,0.0,0.0,0.0,0.0,0.0,0.0,0.0,0.0,0.0,0.0,-1.4483,-1.4392,0.0,0.0,0.0,0.0,0.0,0.0,0.0,0.0,0.0,0.0,0.0,-1.5003,-1.5109,0.0,0.0,0.0,0.0,0.0,0.0,0.0,0.0,0.0,0.0,0.0,0.0,-1.2723,-1.297,-1.2263,-1.1867,-1.1833,-1.0977,-1.036,-1.0043,-0.9157,-0.7925,-0.6357,0.0,0.0,0.0,0.0,0.0,0.0,0.0,0.0,0.0,0.0,0.0,0.0,0.0,0.0,0.0,0.0,0.0,0.0,0.0,0.0,0.0,0.0,0.0,0.0,0.0,0.9488,0.0,0.0,0.0,0.0,0.0,0.0,0.0,0.0,0.0,0.0,0.0,0.9458,0.9472,0.9543,0.9588,0.955,0.9603,0.9725,0.0,0.0,0.0,0.0,0.0,0.0,0.0,0.0,0.0,0.0,0.0,0.0,0.0,0.0,1.1893,1.2298,1.252,1.2642,1.2642,0.0,0.0,0.0,0.0,0.0,0.0,0.0,0.0,0.0,0.0,0.0,0.0,0.0,0.0,-1.4604,0.0,-1.4754,0.0,0.0,0.0,0.0,0.0,0.0,0.0,0.0,-1.4832,-1.4852,-1.4872,-1.4852,-1.4862,0.0,-1.4862,-1.4832,0.0,0.0,0.0,0.0,0.0,0.0,0.0,0.0,-1.3035,-1.3119,-1.2475,-1.2036,-1.1907,-1.1112,-1.0536,-1.0265,-0.8833,-0.7372,-0.5855,-0.4956,-0.438,0.0,0.0,0.0,0.0,0.0,0.0,0.0,0.0,0.0,0.0,0.0,0.0,0.0,0.0,0.0,0.0,0.0,0.0,0.0,0.0,0.0,0.0,0.0,0.9475,0.0,0.0,0.0,0.0,0.0,0.0,0.0,0.0,0.0,0.9185,0.9309,0.9394,0.9361,0.9413,0.9465,0.9465,0.0,0.0,0.0,0.0,0.0,0.0,0.0,0.9973,0.994,0.9758,0.9621,0.9673,1.0379,1.1133,1.1708,0.0,0.0,1.2593,1.2681,1.2788,1.2788,1.3011,1.3146,1.2967,1.2639,1.234,0.0,0.0,0.0,0.0,0.0,0.0,0.0,0.0,-1.512,-1.4909,0.0,-1.4955,0.0,0.0,0.0,0.0,0.0,-1.4515,0.0,0.0,-1.4515,-1.4586,-1.4686,-1.4565,-1.4556,-1.4686,-1.4565,-1.4426,-1.4336,-1.4538,0.0,0.0,0.0,0.0,0.0,0.0,-1.3017,-1.2726,-1.2543,-1.2191,-1.1658,-1.1191,-1.0809,-1.0458,-0.8563,-0.6949,-0.5822,-0.4967,-0.4363,-0.4033,-0.3806,0.0,0.0,0.0,0.0,0.0,0.0,0.0,0.0,0.0,0.0,0.0,0.0,0.0,0.0,0.0,0.0,0.0,0.0,0.0,0.0,0.8554,0.0,0.0,0.0,0.0,0.0,0.0,0.0,0.0,0.0,0.0,0.9185,0.9087,0.9159,0.9536,0.0,0.0,0.0,0.0,0.9413,0.9413,0.951,0.9517,0.9263,0.9655,0.9947,0.9821,0.0,0.0,1.0146,1.0947,1.1667,1.2095,1.2788,1.3098,1.2221,1.232,1.2501,1.2501,1.2885,1.2996,1.2546,1.2246,1.1933,-1.6056,0.0,0.0,0.0,0.0,-1.5515,-1.5515,-1.5556,-1.5515,-1.546,-1.5368,-1.5469,0.0,0.0,0.0,0.0,0.0,0.0,-1.4485,-1.4485,-1.4485,-1.4545,-1.4565,-1.4506,-1.4446,-1.4407,-1.4387,-1.4267,-1.4109,-1.416,-1.4219,-1.4219,0.0,0.0,0.0,0.0,-1.3126,-1.2764,-1.2401,-1.2127,-1.1943,-1.1249,-1.0168,-0.8792,-0.7927,-0.6827,-0.5425,-0.4908,-0.448,-0.4171,-0.3998,0.0,0.0,0.0,0.0,0.0,0.0,0.0,0.0,0.0,0.0,0.0,0.0,0.0,0.0,0.0,0.0,0.0,0.0,0.0,0.8455,0.86,0.883,0.0,0.0,0.0,0.0,0.0,0.0,0.0,0.0,0.0,0.891,0.9035,0.9237,0.0,0.0,0.9413,0.9562,0.9562,0.9536,0.9543,0.9647,0.0,0.9636,0.9844,0.9973,0.9947,0.9895,0.9844,0.9803,1.0703,1.1491,1.1616,1.2521,1.317,1.2943,1.3084,1.3228,1.3266,1.3104,1.2891,1.2682,1.2105,1.1489,-1.6755,-1.6276,-1.5858,-1.579,-1.5936,-1.5936,-1.5936,-1.5936,-1.5936,-1.5854,-1.5707,-1.5863,-1.5845,-1.567,-1.545,0.0,0.0,0.0,-1.4653,-1.4644,-1.4429,-1.4288,-1.4297,-1.4327,-1.4258,-1.4207,-1.4169,-1.4079,-1.3911,-1.392,-1.3799,-1.3619,0.0,0.0,-1.3216,-1.3064,-1.282,-1.2521,-1.2243,-1.2027,-1.1903,-1.1308,-0.9945,-0.7779,-0.7692,-0.6892,-0.5255,-0.4926,-0.4631,-0.4272,-0.4174,-0.3787,0.0,0.0,0.0,0.0,0.0,0.0,0.0,0.0,0.0,0.0,0.0,0.4736,0.4719,0.0,0.0,0.0,0.629,0.6691,0.746,0.7661,0.0,0.0,0.0,0.0,0.0,0.0,0.0,0.8055,0.8345,0.8646,0.8857,0.8982,0.9166,0.9413,0.9309,0.9309,0.9491,0.0,0.9484,0.9588,0.9706,0.9799,0.9799,0.9921,1.0007,1.0007,0.9895,0.9773,0.9732,1.0584,1.13,1.1516,1.2374,1.319,1.3194,1.3206,1.3201,1.3201,1.2973,1.2693,1.252,1.1813,1.1226,-1.7225,-1.7099,-1.6239,-1.6041,-1.6325,-1.6334,-1.6325,-1.6325,-1.6325,-1.6147,-1.5817,-1.6193,-1.6096,-1.5735,-1.5735,0.0,-1.5638,-1.5146,-1.493,-1.4872,-1.4328,-1.4098,-1.4098,-1.4107,-1.4051,-1.4033,-1.4024,-1.3955,-1.3769,-1.3731,-1.3467,-1.2981,-1.3125,-1.3064,-1.2736,-1.2552,-1.2328,-1.2058,-1.2058,-1.1872,-1.1498,-1.1272,-0.9926,-0.7293,-0.7674,-0.7045,-0.5209,-0.4996,-0.4748,-0.4439,-0.4333,-0.4032,-0.3449,0.0,0.0,0.0,0.0,0.0,0.0,0.0,0.0,0.0,0.0,0.0,0.0,0.0,0.0,0.0,0.5203,0.0,0.5628,0.6177,0.0,0.0,0.0,0.8072,0.8119,0.7972,0.8037,0.8415,0.0,0.0,0.885,0.8831,0.8857,0.9106,0.9054,0.9087,0.9368,0.9316,0.9316,0.9562,0.9706,0.9799,0.9766,0.9844,0.9921,0.987,0.9844,0.9747,0.9818,1.0574,1.1191,1.135,1.232,1.3069,1.312,1.2789,1.2554,1.2463,1.2456,1.2345,1.1984,1.1425,1.1034,-1.7548,-1.6991,-1.7198,-1.7017,-1.6546,-1.6511,-1.6537,-1.6546,-1.6693,-1.6707,-1.6624,-1.6725,-1.643,-1.5915,-1.6099,-1.5827,-1.5227,-1.5276,-1.5199,-1.5053,-1.4909,-1.4824,-1.4833,-1.4833,-1.4611,-1.4254,-1.4245,-1.4026,-1.3588,-1.3316,-1.2981,-1.2613,-1.2459,-1.2336,-1.2243,-1.2212,-1.2027,-1.1716,-1.1716,-1.1296,-1.0401,-1.0243,-0.9227,-0.7274,-0.7173,-0.657,-0.5405,-0.5147,-0.4892,-0.4577,-0.4379,-0.4137,-0.3715,-0.3125,0.0,0.0,0.0,0.0,0.0,0.0,0.0,0.0,0.0,0.371,0.3522,0.0,0.5069,0.0,0.5171,0.5496,0.5987,0.6014,0.0,0.0,0.7278,0.7391,0.6788,0.7321,0.7616,0.7333,0.7521,0.7842,0.8321,0.8235,0.8276,0.8679,0.8896,0.914,0.9491,0.9432,0.9413,0.9562,0.9621,0.9647,0.9647,0.9595,0.9524,0.9394,0.9472,0.9498,0.9491,1.0438,1.12,1.1317,1.2181,1.273,1.2522,1.2345,1.2021,1.1473,1.138,1.1433,1.1314,1.0874,1.0469,-1.7768,-1.7309,-1.7382,-1.7084,-1.6599,-1.6776,-1.6774,-1.6612,-1.6716,-1.6751,-1.6751,-1.6665,-1.6435,-1.616,-1.6228,-1.6077,-1.5618,-1.5517,-1.538,-1.5263,-1.5031,-1.4928,-1.4928,-1.4928,-1.4783,-1.4487,-1.4286,-1.4071,-1.3773,-1.3394,-1.3052,-1.2725,-1.2572,-1.2411,-1.226,-1.2022,-1.1747,-1.1466,-1.1076,-1.0433,-0.9474,-0.9346,-0.8441,-0.6732,-0.6798,-0.6424,-0.5434,-0.5197,-0.4974,-0.4682,-0.4422,-0.4058,-0.3551,-0.3073,-0.2348,0.0,0.0,0.0,0.0,0.0,0.0,0.0,0.0,0.0,0.0,0.0,0.4512,0.4708,0.4763,0.5038,0.5582,0.5496,0.5582,0.5987,0.6453,0.6593,0.6232,0.6712,0.7004,0.6906,0.709,0.7392,0.7815,0.7883,0.7978,0.8243,0.8527,0.8844,0.9093,0.9171,0.9283,0.9413,0.9536,0.9614,0.9614,0.9491,0.938,0.9387,0.9543,0.9692,0.9777,1.0676,1.1435,1.1485,1.1978,1.2363,1.2113,1.1727,1.1322,1.0927,1.066,1.0654,1.0715,1.0469,1.0186,-1.7906,-1.7692,-1.7239,-1.6813,-1.66,-1.6972,-1.692,-1.6533,-1.6533,-1.6568,-1.6612,-1.6377,-1.6307,-1.6307,-1.6307,-1.6281,-1.6228,-1.5765,-1.5539,-1.5522,-1.5042,-1.4829,-1.4754,-1.4763,-1.4729,-1.4612,-1.4264,-1.4065,-1.3991,-1.36,-1.33,-1.2998,-1.2964,-1.2796,-1.2463,-1.193,-1.1529,-1.1203,-1.039,-0.95,-0.8608,-0.8538,-0.767,-0.602,-0.6441,-0.6309,-0.5392,-0.519,-0.499,-0.4731,-0.4434,-0.3933,-0.3226,-0.2788,-0.1778,0.0,0.0378,0.0,0.0,0.0,0.0,0.0,0.0,0.0,0.0,0.338,0.3858,0.4459,0.4355,0.4448,0.4908,0.4932,0.5072,0.5349,0.5635,0.5949,0.623,0.6253,0.6423,0.6831,0.6886,0.704,0.7421,0.7663,0.7785,0.791,0.8096,0.8315,0.8494,0.8765,0.9001,0.914,0.9361,0.9491,0.9465,0.9387,0.9361,0.9484,0.9736,0.9994,1.0087,1.0981,1.1694,1.1683,1.1822,1.1897,1.1821,1.1157,1.0605,1.0512,1.0267,1.0117,1.0244,1.0186,1.0088,-1.7817,-1.7544,-1.7601,-1.7168,-1.6463,-1.669,-1.6571,-1.6202,-1.6307,-1.6438,-1.6568,-1.6412,-1.6307,-1.6307,-1.6307,-1.614,-1.5903,-1.5957,-1.5896,-1.5729,-1.5625,-1.5408,-1.5103,-1.5103,-1.478,-1.4235,-1.4116,-1.3938,-1.3608,-1.3258,-1.3065,-1.299,-1.2729,-1.2485,-1.2274,0.0,0.0,0.0,-1.011,-0.9224,-0.7962,-0.7637,-0.699,-0.5954,-0.5848,0.0,-0.5186,-0.512,-0.4891,-0.4431,-0.4164,0.0,0.0,0.0,0.0,0.0,0.0,0.0,0.0,0.0,0.0,0.0,0.2344,0.219,0.2385,0.3213,0.3952,0.4458,0.4557,0.4755,0.511,0.5247,0.5426,0.5757,0.5956,0.6163,0.6493,0.6611,0.6733,0.6792,0.6822,0.6919,0.7189,0.7207,0.7322,0.7645,0.7702,0.7756,0.8002,0.8427,0.8712,0.885,0.9035,0.9087,0.8962,0.9061,0.9087,0.9035,0.9465,0.984,0.9994,1.093,1.1669,1.1676,1.1803,1.1755,1.1391,1.0949,1.0452,1.019,1.0037,1.0029,1.0049,1.0039,0.998,-1.788,0.0,-1.767,-1.7273,0.0,-1.6586,-1.6319,-1.5964,-1.6132,-1.6228,-1.6333,-1.6132,-1.6079,-1.6035,-1.6035,-1.5973,-1.5805,-1.5903,-1.5894,-1.5805,-1.5576,-1.539,-1.5196,-1.4991,-1.468,-1.4336,-1.4195,-1.4003,-1.3778,-1.3422,-1.3107,-1.2783,-1.2445,-1.2017,-1.1519,-1.0989,-1.0581,-1.0342,-0.9223,-0.8258,-0.7474,-0.6957,-0.6404,-0.5785,-0.565,0.0,0.0,0.0,0.0,0.0,0.0,0.0,0.0,0.0,0.0,0.0737,0.1609,0.2549,0.3485,0.3438,0.3424,0.3658,0.3357,0.2935,0.2445,0.3285,0.4071,0.4552,0.468,0.4859,0.5268,0.5373,0.5525,0.5858,0.5975,0.6121,0.6396,0.6607,0.666,0.6572,0.6637,0.6673,0.6687,0.6797,0.6922,0.7182,0.7381,0.7547,0.7708,0.8156,0.8553,0.8778,0.8857,0.9001,0.9237,0.9159,0.929,0.9629,1.0061,1.037,1.0523,1.1284,1.1848,1.164,1.1499,1.1243,1.0832,1.0329,0.9934,0.9848,0.9664,0.9655,0.9902,0.9873,0.9734,-1.7991,-1.7965,-1.7629,-1.7252,-1.6893,-1.6553,-1.6173,-1.5891,0.0,0.0,0.0,-1.5894,-1.5832,-1.5832,-1.5797,-1.5805,-1.5805,-1.5805,-1.5761,-1.5682,-1.5346,-1.5133,-1.4991,-1.4669,-1.4425,-1.4238,-1.4093,-1.3876,-1.3688,-1.3368,-1.2929,-1.2342,-1.1946,-1.1358,-1.0617,-0.9564,-0.9282,-0.9699,-0.828,-0.7354,-0.7018,-0.647,-0.598,-0.5617,-0.5547,-0.5352,-0.5057,-0.4725,-0.4464,-0.4197,-0.346,-0.2787,-0.2385,-0.1411,-0.0134,0.1475,0.2178,0.3218,0.4694,0.4428,0.4273,0.4536,0.4509,0.3997,0.2886,0.3547,0.4189,0.4614,0.4676,0.487,0.539,0.5459,0.5613,0.5955,0.6012,0.6139,0.6354,0.6559,0.6596,0.6431,0.6501,0.6496,0.6285,0.6491,0.6715,0.6874,0.7246,0.7628,0.7762,0.8103,0.8427,0.8699,0.8798,0.9001,0.9484,0.9491,0.9595,1.0164,1.0557,1.0896,1.115,1.1569,1.1749,1.1381,1.1026,1.0645,1.0237,0.9703,0.9386,0.9634,0.9397,0.9308,0.9842,0.9813,0.9646,-1.7991,-1.7965,-1.7629,-1.7252,-1.6893,-1.647,-1.6274,-1.6233,-1.5969,-1.5929,-1.6096,-1.5903,-1.5894,-1.6035,-1.5867,-1.5805,-1.5805,-1.5805,-1.562,-1.5275,-1.524,-1.4875,-1.4274,-1.4201,-1.3731,-1.2966,-1.3339,-1.3046,-1.215,-1.2174,-1.1909,-1.1335,-1.0907,-1.0475,-0.9944,-0.8897,-0.8295,-0.8199,-0.7758,-0.7129,-0.6342,-0.6086,-0.5818,-0.5617,-0.5319,-0.5057,-0.4827,-0.4531,-0.4195,-0.3894,-0.3324,-0.2757,-0.222,-0.0369,0.1039,0.1642,0.3282,0.4425,0.4761,0.4891,0.4865,0.4711,0.5039,0.4794,0.3747,0.4105,0.4411,0.4463,0.4598,0.4865,0.5499,0.5741,0.5965,0.6262,0.6465,0.6595,0.6606,0.6731,0.678,0.6617,0.6763,0.6687,0.6416,0.6487,0.6829,0.7242,0.7488,0.7788,0.8427,0.8295,0.8189,0.8527,0.8725,0.8988,0.9432,0.9543,0.964,0.9725,1.0241,1.0557,1.0684,1.1082,1.1286,1.0889,1.0504,1.0139,0.9787,0.9355,0.9292,0.9578,0.9558,0.9677,1.0137,1.0088,0.999,-1.7991,-1.7974,-1.7852,-1.756,-1.7175,-1.6602,-1.6336,-1.6283,-1.6173,-1.6168,-1.6232,-1.5952,-1.5842,-1.5903,-1.5611,-1.5576,-1.577,-1.5355,-1.4974,-1.4681,-1.4078,-1.3564,-1.3127,-1.2908,-1.2556,-1.215,-1.2378,-1.2114,-1.1446,-1.1471,-1.1099,-1.0271,-0.9468,-0.8783,-0.8325,-0.7707,-0.7338,-0.7202,-0.6949,-0.6539,-0.605,-0.5851,-0.565,-0.5491,-0.5223,-0.499,-0.4691,-0.4328,-0.3894,-0.3391,-0.2855,-0.2354,-0.1849,-0.0168,0.1006,0.1609,0.3013,0.4123,0.4761,0.516,0.5358,0.5365,0.5716,0.5698,0.5095,0.5085,0.5083,0.5052,0.5221,0.5379,0.5609,0.5885,0.6119,0.6284,0.6359,0.6472,0.6519,0.6586,0.655,0.6471,0.68,0.6942,0.6659,0.691,0.7269,0.766,0.7863,0.8242,0.8831,0.8646,0.8513,0.8844,0.8995,0.9249,0.971,0.9744,0.995,1.0387,1.06,1.0735,1.0821,1.1031,1.0798,1.0454,1.0086,0.9809,0.9624,0.938,0.9417,0.9824,0.9746,0.9864,1.0244,1.0458,1.0361,-1.7991,-1.7991,-1.7991,-1.7698,-1.7133,-1.6484,-1.6211,-1.6241,-1.6221,-1.6304,-1.6427,-1.5988,-1.5794,-1.5743,-1.5204,-1.5133,-1.5319,-1.4645,-1.4135,-1.3759,-1.2945,-1.2395,-1.2168,-1.1811,-1.1632,-1.1515,-1.1558,-1.1267,-1.0738,-1.0663,-1.0088,-0.913,-0.8197,-0.7519,-0.7053,-0.6807,-0.6662,-0.6553,-0.6275,-0.604,-0.5877,-0.5776,-0.5594,-0.5329,-0.5189,-0.4919,-0.4531,-0.4161,-0.3661,-0.3023,-0.2488,-0.1918,-0.1311,0.0,0.1107,0.1944,0.2948,0.392,0.4791,0.5319,0.5686,0.5892,0.6218,0.6346,0.6276,0.6079,0.591,0.5811,0.584,0.5877,0.6046,0.6141,0.6342,0.6597,0.6645,0.682,0.6861,0.6865,0.6795,0.6672,0.711,0.7415,0.7321,0.762,0.7975,0.8253,0.8558,0.8851,0.9009,0.9015,0.9113,0.9263,0.9309,0.951,1.0097,1.0097,1.0293,1.1049,1.0922,1.0845,1.0956,1.0904,1.0642,1.026,1.0043,0.9841,0.9663,0.9478,0.9617,1.0079,1.002,0.9981,1.0535,1.0766,1.0699,-1.8,-1.7991,-1.7951,-1.7289,-1.6245,-1.5816,-1.5816,-1.6055,-1.5739,-1.6024,-1.653,-1.61,-1.5766,-1.5645,-1.4597,-1.4214,-1.4386,-1.3665,-1.304,-1.2558,-1.2382,-1.2094,-1.1744,-1.1706,-1.1409,-1.0925,-1.1037,-1.0513,-0.9506,-0.9306,-0.8689,-0.7787,-0.7579,-0.7404,-0.7159,-0.6877,-0.662,-0.6406,-0.6054,-0.5834,-0.5844,-0.598,-0.5741,-0.5163,-0.5114,-0.4847,-0.4381,-0.3995,-0.3558,-0.3023,-0.2488,-0.1647,-0.0469,0.0804,0.1944,0.2947,0.392,0.4658,0.5057,0.5385,0.5719,0.5892,0.6218,0.6519,0.6782,0.6942,0.6835,0.6465,0.6104,0.6334,0.706,0.6761,0.6859,0.7712,0.7867,0.8113,0.8135,0.8312,0.8233,0.8026,0.8011,0.8238,0.8015,0.8287,0.865,0.903,0.939,0.963,0.9582,0.9584,0.9636,0.9758,0.9732,0.9777,1.0146,1.0385,1.0437,1.0598,1.0598,1.065,1.0795,1.1006,1.1027,1.0499,1.0334,1.0257,0.991,0.9599,0.9766,1.0215,1.0322,1.0361,1.0747,1.0891,1.0794,-1.7465,-1.7245,-1.7245,-1.6635,-1.5723,-1.5277,-1.513,-1.513,-1.4984,-1.4921,-1.4862,-1.4609,-1.4606,-1.478,-1.3536,-1.315,-1.3411,-1.2682,-1.2144,-1.1731,-1.1285,-1.0919,-1.0663,-1.0625,-1.0368,-0.9954,-0.9997,-0.9544,-0.8675,-0.8246,-0.7846,-0.7392,-0.7317,-0.7209,-0.7043,-0.6743,-0.661,-0.6493,-0.6252,-0.5985,-0.5765,-0.5748,-0.561,-0.5332,-0.4977,-0.4626,-0.4248,-0.3885,-0.3347,-0.2594,-0.2322,-0.1512,-0.0034,0.1039,0.2078,0.3147,0.4389,0.5126,0.5259,0.5591,0.5851,0.6083,0.6383,0.6679,0.6913,0.7368,0.7657,0.7591,0.7158,0.699,0.7251,0.7214,0.7447,0.7952,0.8079,0.8128,0.8185,0.8156,0.7973,0.7747,0.8031,0.8276,0.8233,0.861,0.9064,0.9407,0.9659,0.9696,0.9695,0.9681,0.9706,0.9751,0.9732,0.9844,1.0102,1.0265,1.0368,1.047,1.0718,1.0947,1.0998,1.1086,1.1164,1.0868,1.0695,1.0588,1.0526,1.0173,1.0137,1.0458,1.0641,1.0728,1.0881,1.0871,1.0852,-1.696,-1.6576,-1.6281,-1.5703,-1.4907,-1.4557,-1.4329,-1.4165,-1.4083,-1.3886,-1.3708,-1.3351,-1.334,-1.3424,-1.2576,-1.2329,-1.2442,-1.174,-1.1301,-1.1026,-1.0408,-1.003,-0.9884,-0.9771,-0.9587,-0.9322,-0.9094,-0.8599,-0.7944,-0.7676,-0.7381,-0.7225,-0.7198,-0.7118,-0.6885,-0.6652,-0.6532,-0.6505,-0.6262,-0.5983,-0.5709,-0.5479,-0.5341,-0.5207,-0.4868,-0.4501,-0.4109,-0.3677,-0.3076,-0.2285,-0.1975,-0.1084,0.0537,0.1442,0.2445,0.3649,0.4755,0.5428,0.5455,0.5789,0.6053,0.6247,0.6609,0.6876,0.7077,0.7596,0.8117,0.8382,0.8149,0.7874,0.7902,0.7902,0.8064,0.8409,0.8513,0.8581,0.8663,0.8579,0.8573,0.8299,0.8703,0.8676,0.8688,0.9119,0.9512,0.9587,0.9624,0.9635,0.974,0.9821,0.988,1.0002,1.0138,1.0172,1.0198,1.0385,1.0462,1.0744,1.115,1.1368,1.1444,1.1483,1.1493,1.1384,1.0884,1.0669,1.086,1.0706,1.0458,1.0718,1.0862,1.0843,1.0843,1.0784,1.0674,-1.6617,-1.6239,-1.524,-1.4364,-1.3747,-1.3552,-1.3461,-1.34,-1.296,-1.3207,-1.3635,-1.2623,-1.2094,-1.2146,-1.1894,-1.1806,-1.1658,-1.1033,-1.0623,-1.0412,-1.0051,-0.9895,-0.9884,-0.9506,-0.9327,-0.9132,-0.856,-0.7987,-0.7561,-0.7518,-0.7407,-0.7211,-0.7176,-0.7099,-0.6862,-0.6513,-0.6291,-0.6282,-0.5972,-0.5732,-0.5632,-0.5234,-0.4906,-0.4703,-0.4728,-0.4434,-0.3862,-0.3378,-0.2836,-0.2276,-0.1429,-0.0241,0.138,0.2281,0.3387,0.4752,0.5226,0.5491,0.5653,0.5947,0.6247,0.6453,0.6839,0.7171,0.7237,0.7689,0.8149,0.8479,0.87,0.892,0.9151,0.8753,0.8818,0.9504,0.9748,0.9875,1.0091,1.0039,1.0407,1.0199,0.9912,0.9738,0.9735,0.995,0.9904,0.9852,0.9924,1.0097,1.0211,1.031,1.0523,1.0854,1.0998,1.1006,1.0702,1.0735,1.1065,1.1318,1.1452,1.1728,1.1877,1.1987,1.1994,1.1978,1.1823,1.161,1.1378,1.1104,1.0818,1.0822,1.0803,1.0803,1.0918,1.0746,1.0683,-1.4914,-1.4406,-1.3578,-1.2997,-1.2625,-1.254,-1.2412,-1.2326,-1.2112,-1.2112,-1.218,-1.1764,-1.1472,-1.1363,-1.1436,-1.1282,-1.0993,-1.0708,-1.0554,-1.0463,-1.006,-0.9867,-0.9728,-0.934,-0.887,-0.8536,-0.8217,-0.791,-0.7522,-0.7369,-0.7257,-0.718,-0.6949,-0.6791,-0.6665,-0.6433,-0.6211,-0.6055,-0.5902,-0.5669,-0.5281,-0.5096,-0.4766,-0.4323,-0.4311,-0.4092,-0.3505,-0.3196,-0.2555,-0.1438,-0.0826,0.0271,0.1981,0.3353,0.4325,0.5024,0.5352,0.5653,0.5947,0.6181,0.6445,0.6712,0.7007,0.7302,0.7531,0.7824,0.8214,0.87,0.8926,0.9183,0.951,0.935,0.9312,0.967,0.983,0.9952,1.0017,1.0096,1.0122,1.0033,0.9893,0.9874,1.0005,1.0024,1.0153,1.0322,1.0455,1.0615,1.0794,1.0871,1.1006,1.1133,1.1209,1.1284,1.1594,1.1343,1.1393,1.1594,1.1803,1.2101,1.2298,1.2529,1.259,1.2497,1.2463,1.2001,1.155,1.1123,1.0905,1.0888,1.0859,1.0973,1.1048,1.1029,1.1049,-1.3584,-1.2905,-1.2283,-1.1989,-1.1914,-1.178,-1.1699,-1.157,-1.157,-1.144,-1.1311,-1.1311,-1.1209,-1.1144,-1.1236,-1.115,-1.0833,-1.0753,-1.0664,-1.0495,-1.0101,-0.9782,-0.9498,-0.9079,-0.862,-0.8207,-0.7893,-0.7638,-0.7407,-0.7176,-0.7065,-0.6988,-0.6714,-0.6521,-0.637,-0.6257,-0.606,-0.5828,-0.5667,-0.5392,-0.5004,-0.4813,-0.454,-0.4155,-0.3884,-0.362,-0.3213,-0.2784,-0.2093,-0.0996,-0.007,0.1194,0.2889,0.4187,0.4994,0.5253,0.5521,0.5848,0.6247,0.6449,0.6683,0.6975,0.7204,0.7428,0.7759,0.8019,0.8436,0.8856,0.9151,0.9382,0.9798,0.9919,0.9919,0.9894,0.9926,0.9945,1.0053,1.0298,1.0467,1.0578,1.0624,1.0545,1.0451,1.0489,1.0632,1.0847,1.0895,1.1023,1.1292,1.1451,1.161,1.171,1.1819,1.1993,1.22,1.2126,1.2026,1.22,1.22,1.248,1.2627,1.2905,1.3001,1.295,1.2642,1.2128,1.163,1.1203,1.1042,1.1031,1.1132,1.1282,1.1348,1.1442,1.1432,-1.2607,-1.2037,-1.1521,-1.1521,-1.1656,-1.144,-1.1348,-1.1311,-1.1311,-1.1311,-1.1311,-1.1267,-1.1246,-1.1251,-1.1165,-1.1241,-1.1123,-1.0942,-1.0695,-1.0339,-1.0007,-0.9615,-0.92,-0.8774,-0.8443,-0.8247,-0.7561,-0.7223,-0.7184,-0.6984,-0.683,-0.6676,-0.656,-0.6328,-0.5938,-0.5902,-0.5789,-0.5556,-0.524,-0.5002,-0.4927,-0.4465,-0.4116,-0.3962,-0.3413,-0.302,-0.2937,-0.2068,-0.1331,-0.0658,0.0904,0.2616,0.4017,0.4788,0.5253,0.555,0.5752,0.6053,0.6383,0.6683,0.6909,0.7204,0.7396,0.7657,0.7987,0.8312,0.8673,0.9022,0.9312,0.9702,1.0206,1.0534,1.0559,1.0174,1.0326,1.0433,1.0559,1.1038,1.1637,1.1838,1.1878,1.1911,1.1648,1.1386,1.131,1.1301,1.1274,1.1385,1.1792,1.1974,1.2298,1.2652,1.2627,1.2554,1.2735,1.2891,1.2866,1.2856,1.2759,1.2832,1.2808,1.2954,1.2942,1.2875,1.2434,1.1951,1.1767,1.1388,1.1314,1.1319,1.1449,1.1579,1.1664,1.1719,1.1737,-1.186,-1.157,-1.1564,-1.1527,-1.144,-1.1348,-1.1311,-1.1311,-1.1311,-1.1311,-1.1219,-1.0949,-1.0992,-1.1089,-1.0694,-1.0559,-1.0761,-1.0479,-1.0368,-1.0343,-0.9781,-0.9329,-0.8987,-0.8487,-0.7979,-0.7606,-0.7327,-0.7103,-0.6988,-0.6791,-0.6676,-0.656,-0.6289,-0.6057,-0.586,-0.5628,-0.5398,-0.5162,-0.4929,-0.4659,-0.4428,-0.4196,-0.3884,-0.3415,-0.2782,-0.2115,-0.1213,-0.0848,-0.015,0.091,0.2214,0.3513,0.4624,0.5123,0.5388,0.5583,0.5789,0.6119,0.6544,0.6712,0.697,0.7358,0.7657,0.7987,0.8317,0.8668,0.8996,0.928,0.9446,0.9766,1.0333,1.0717,1.0986,1.1024,1.1274,1.1492,1.1663,1.1965,1.2219,1.2362,1.2383,1.232,1.2255,1.209,1.202,1.2052,1.1973,1.2026,1.2295,1.2365,1.2578,1.2856,1.2881,1.2934,1.3027,1.3075,1.3089,1.3113,1.3113,1.3075,1.3027,1.3118,1.3056,1.2761,1.2315,1.1984,1.1819,1.167,1.1589,1.1641,1.1799,1.1902,1.1975,1.2011,1.2066,-1.1587,-1.1585,-1.1554,-1.1587,-1.1585,-1.1482,-1.1434,-1.1439,-1.1264,-1.1261,-1.1192,-1.0814,-1.0727,-1.0862,-1.0472,-1.0294,-1.0337,-0.9946,-0.9907,-1.0033,-0.9607,-0.9096,-0.8691,-0.8084,-0.7718,-0.7417,-0.7157,-0.6944,-0.6837,-0.6631,-0.6447,-0.6293,-0.6018,-0.5744,-0.5589,-0.5318,-0.5046,-0.481,-0.4582,-0.435,-0.4121,-0.3845,-0.3532,-0.3022,-0.2077,-0.1017,0.0,0.077,0.1542,0.2291,0.3266,0.4261,0.513,0.5388,0.5587,0.5818,0.6017,0.6284,0.6708,0.6839,0.7031,0.7461,0.7819,0.8155,0.8511,0.8926,0.9434,0.9734,1.0104,1.051,1.1108,1.1624,1.1981,1.2381,1.2228,1.2381,1.2634,1.2826,1.3039,1.3174,1.3312,1.326,1.3207,1.2869,1.2756,1.2806,1.2564,1.2269,1.2416,1.2402,1.2551,1.2623,1.2564,1.2752,1.3132,1.3234,1.3296,1.3344,1.3392,1.332,1.3272,1.3505,1.3588,1.3032,1.2562,1.2274,1.2091,1.1927,1.1818,1.1993,1.2174,1.2276,1.2365,1.2449,1.249,-1.165,-1.2013,-1.158,-1.165,-1.2008,-1.1756,-1.1609,-1.1554,-1.1193,-1.1069,-1.1077,-1.0689,-1.0549,-1.0549,-1.0337,-1.0077,-0.9907,-0.9432,-0.9213,-0.9257,-0.9126,-0.8834,-0.8174,-0.7731,-0.7605,-0.756,-0.6995,-0.6724,-0.6683,-0.6467,-0.6145,-0.5902,-0.5825,-0.5589,-0.516,-0.4963,-0.4735,-0.4423,-0.4192,-0.4079,-0.3962,-0.3374,-0.2904,-0.2707,-0.1096,0.0156,0.1093,0.2676,0.3497,0.3235,0.4094,0.4831,0.5296,0.5521,0.5785,0.6115,0.6317,0.6548,0.6843,0.704,0.7265,0.7489,0.7949,0.8214,0.8732,0.946,1.0034,1.0333,1.0905,1.1593,1.2135,1.272,1.3299,1.3761,1.323,1.307,1.348,1.3571,1.3761,1.4198,1.4455,1.4455,1.4252,1.3677,1.336,1.3257,1.2789,1.234,1.2262,1.2326,1.2239,1.2407,1.2729,1.3081,1.36,1.3644,1.3705,1.3776,1.3823,1.3858,1.3614,1.3797,1.38,1.327,1.2923,1.2625,1.2393,1.2226,1.2222,1.2401,1.2556,1.2674,1.277,1.2866,1.2961,-1.1981,-1.2073,-1.1959,-1.1981,-1.2038,-1.1603,-1.1312,-1.1179,-1.0985,-1.0691,-1.042,-1.0207,-1.0164,-1.0081,-0.9432,-0.9262,-0.9301,-0.8815,-0.8508,-0.8508,-0.8464,-0.8253,-0.7857,-0.7762,-0.7544,-0.7261,-0.7007,-0.6708,-0.6361,-0.6275,-0.6005,-0.5676,-0.5398,-0.516,-0.4963,-0.4579,-0.4309,-0.4155,-0.3958,-0.3645,-0.3256,-0.2702,-0.1957,-0.094,0.0352,0.168,0.2884,0.4411,0.5104,0.4837,0.4964,0.5163,0.5442,0.5657,0.5888,0.6053,0.6412,0.6708,0.6909,0.7138,0.7297,0.7554,0.8431,0.9113,0.953,1.0225,1.0667,1.0888,1.1281,1.1741,1.2297,1.2942,1.361,1.4198,1.4019,1.392,1.4139,1.4237,1.4327,1.4485,1.4485,1.4485,1.4359,1.3855,1.3368,1.3347,1.2901,1.2368,1.2453,1.2719,1.2852,1.3238,1.3573,1.3832,1.4063,1.4084,1.4142,1.4235,1.4385,1.457,1.4225,1.3961,1.3769,1.3376,1.3305,1.3062,1.2807,1.2579,1.2698,1.2968,1.2944,1.3059,1.318,1.3277,1.3458,-1.2208,-1.2328,-1.1944,-1.1884,-1.1942,-1.1402,-1.1005,-1.0788,-1.0572,-1.031,-1.0003,-0.9781,-0.9733,-0.9646,-0.913,-0.8867,-0.8771,-0.8376,-0.8201,-0.8113,-0.8069,-0.8015,-0.784,-0.7694,-0.7375,-0.7218,-0.6881,-0.6569,-0.6285,-0.6068,-0.5683,-0.5344,-0.5046,-0.4813,-0.4579,-0.4311,-0.3921,-0.3647,-0.3331,-0.2818,-0.2193,-0.1407,-0.0625,0.0469,0.172,0.3203,0.46,0.5434,0.5707,0.5544,0.5512,0.5583,0.5719,0.5888,0.6086,0.6214,0.6544,0.6905,0.7363,0.7559,0.7842,0.8361,0.9262,0.9741,1.0155,1.0825,1.1334,1.1389,1.1818,1.2313,1.2812,1.3428,1.398,1.4387,1.4485,1.4485,1.4485,1.4455,1.4485,1.4485,1.4485,1.4485,1.4467,1.3791,1.3552,1.3489,1.3109,1.2836,1.28,1.3225,1.3586,1.3878,1.4082,1.4236,1.4504,1.4617,1.4766,1.4846,1.4892,1.5108,1.4832,1.4408,1.4309,1.4105,1.3816,1.3552,1.3342,1.3301,1.3593,1.3728,1.3564,1.3674,1.3939,1.3951,1.4104,-1.2371,-1.263,-1.1728,-1.1606,-1.1754,-1.1091,-1.0679,-1.0454,-1.014,-0.9876,-0.971,-0.9432,-0.9301,-0.917,-0.8995,-0.8775,-0.8201,-0.8113,-0.7981,-0.7896,-0.7812,-0.779,-0.7807,-0.7324,-0.7198,-0.7192,-0.6603,-0.6347,-0.6124,-0.5738,-0.5325,-0.4999,-0.4766,-0.4474,-0.4157,-0.3921,-0.3528,-0.2979,-0.2231,-0.1563,-0.0781,0.0117,0.0938,0.1718,0.3163,0.4453,0.5431,0.5918,0.5886,0.5627,0.5728,0.5857,0.604,0.6152,0.6346,0.6646,0.6839,0.7358,0.8037,0.8301,0.871,0.9454,1.0047,1.049,1.078,1.1483,1.1903,1.1895,1.2544,1.3003,1.348,1.4109,1.4446,1.4625,1.4625,1.4595,1.4654,1.4565,1.4485,1.4515,1.4515,1.4565,1.4392,1.4062,1.3742,1.4461,1.4026,1.3938,1.3988,1.4379,1.4435,1.4306,1.4429,1.4508,1.4835,1.5142,1.5334,1.5491,1.5491,1.5545,1.5431,1.5169,1.5155,1.4941,1.4301,1.4064,1.4036,1.4162,1.4428,1.4458,1.4306,1.474,1.5172,1.4972,1.4962,-1.248,-1.216,-1.1928,-1.1642,-1.1331,-1.0751,-1.0297,-1.0027,-0.9884,-0.9485,-0.9063,-0.917,-0.8947,-0.8464,-0.8464,-0.8248,-0.7848,-0.7676,-0.7591,-0.7547,-0.7367,-0.7319,-0.7312,-0.7051,-0.7027,-0.6902,-0.6602,-0.6158,-0.5769,-0.5535,-0.5194,-0.465,-0.4334,-0.4234,-0.3975,-0.3057,-0.2543,-0.2151,-0.1133,-0.0234,0.043,0.1367,0.2344,0.3242,0.4608,0.5431,0.5864,0.6254,0.6325,0.6199,0.6089,0.6086,0.6071,0.6234,0.6461,0.6773,0.7423,0.8042,0.849,0.9134,0.9671,1.0275,1.0804,1.1368,1.205,1.2212,1.2406,1.2467,1.2805,1.3224,1.3821,1.4258,1.4675,1.4951,1.5069,1.5264,1.5604,1.5069,1.4654,1.4645,1.4893,1.5069,1.507,1.5186,1.5113,1.5341,1.5305,1.518,1.5326,1.5526,1.5337,1.5082,1.5104,1.5219,1.5206,1.5491,1.5625,1.5752,1.576,1.583,1.5709,1.5468,1.528,1.499,1.4598,1.457,1.4849,1.4789,1.4992,1.5022,1.5158,1.5595,1.5899,1.5793,1.5894,-1.2139,-1.1732,-1.1388,-1.1096,-1.0752,-1.0261,-0.9807,-0.9558,-0.9465,-0.9076,-0.8573,-0.8688,-0.8508,-0.8072,-0.8025,-0.776,-0.7095,-0.6786,-0.6656,-0.67,-0.6789,-0.6966,-0.6833,-0.6653,-0.6432,-0.6476,-0.6204,-0.5832,-0.5534,-0.5152,-0.477,-0.4333,-0.3796,-0.3348,-0.3144,-0.2124,-0.1369,-0.0742,0.0156,0.1093,0.1953,0.2852,0.3791,0.4613,0.5509,0.598,0.6251,0.6444,0.663,0.663,0.6575,0.6413,0.6328,0.6538,0.6801,0.7344,0.7842,0.8839,0.9474,1.0078,1.0616,1.1195,1.1562,1.1942,1.2367,1.2529,1.259,1.2621,1.2767,1.3164,1.4001,1.4597,1.5001,1.5381,1.5526,1.5748,1.6054,1.5719,1.541,1.5517,1.5786,1.5901,1.5997,1.6047,1.6066,1.6122,1.6081,1.5991,1.615,1.6301,1.6197,1.6029,1.6001,1.5929,1.575,1.5792,1.5846,1.5855,1.5792,1.5839,1.5819,1.552,1.5171,1.5068,1.5085,1.5649,1.591,1.577,1.5756,1.6156,1.642,1.6572,1.6705,1.683,1.6948,-1.1648,-1.1308,-1.0681,-1.0364,-1.0212,-0.9784,-0.9393,-0.9125,-0.9017,-0.8716,-0.8291,-0.8157,-0.7981,-0.7672,-0.754,-0.6959,-0.6248,-0.5894,-0.5897,-0.6254,-0.6254,-0.6254,-0.6074,-0.5583,-0.5179,-0.5714,-0.563,-0.5442,-0.4952,-0.4569,-0.3929,-0.3624,-0.2843,-0.2197,-0.1776,-0.0991,-0.0078,0.0742,0.168,0.25,0.34,0.4263,0.5007,0.5589,0.5941,0.6212,0.6525,0.6707,0.6927,0.7194,0.7256,0.7189,0.7138,0.7086,0.7487,0.8333,0.8775,0.9532,1.049,1.1024,1.1476,1.2151,1.2243,1.2305,1.2398,1.2529,1.259,1.2705,1.2889,1.3329,1.4124,1.4874,1.5459,1.5874,1.6017,1.6179,1.6492,1.6567,1.6624,1.6518,1.6546,1.6641,1.6725,1.6781,1.6813,1.6855,1.6846,1.6887,1.708,1.7146,1.7087,1.6788,1.6667,1.6332,1.6112,1.5871,1.596,1.5879,1.5807,1.5646,1.5714,1.5574,1.5342,1.5653,1.5863,1.6289,1.6581,1.6494,1.6697,1.7291,1.7409,1.7283,1.7505,1.7855,1.7848,-1.1016,-1.0555,-1.0475,-1.0167,-0.9747,-0.9518,-0.9291,-0.9045,-0.8716,-0.844,-0.8132,-0.7981,-0.7272,-0.6647,-0.6422,-0.6115,-0.5583,-0.527,-0.5539,-0.5852,-0.5628,-0.5134,-0.469,-0.3976,-0.3395,-0.3349,-0.402,-0.4366,-0.3778,-0.3421,-0.2808,-0.1764,-0.1306,-0.0952,-0.0244,0.0674,0.1412,0.2118,0.3093,0.391,0.4421,0.4968,0.5437,0.598,0.6251,0.6525,0.6718,0.7099,0.7391,0.7512,0.8383,0.8795,0.8771,0.8385,0.8614,0.9233,0.9926,1.0561,1.1188,1.1763,1.2143,1.2428,1.2529,1.2537,1.256,1.2621,1.2713,1.2942,1.3442,1.4004,1.4174,1.5187,1.5931,1.6343,1.6542,1.6814,1.7468,1.7634,1.7418,1.7146,1.7202,1.7379,1.7484,1.763,1.7783,1.7863,1.7923,1.8055,1.825,1.8219,1.8099,1.7701,1.7255,1.6803,1.637,1.6115,1.598,1.5866,1.5687,1.5197,1.5283,1.5455,1.5559,1.5471,1.5815,1.6259,1.6553,1.6969,1.7211,1.7475,1.7652,1.7828,1.7889,1.7963,1.8003,-1.0519,-1.0146,-1.0057,-0.9821,-0.9546,-0.9288,-0.9064,-0.8847,-0.8448,-0.7822,-0.7262,-0.6959,-0.6293,-0.5445,-0.5176,-0.4779,-0.4202,-0.3978,-0.4067,-0.4111,-0.3974,-0.3751,-0.335,-0.2593,-0.2281,-0.2146,-0.2683,-0.2816,-0.2325,-0.2146,-0.1555,-0.0879,-0.0172,0.0466,0.1084,0.203,0.2876,0.3578,0.4217,0.4776,0.5168,0.5556,0.5983,0.6251,0.6556,0.683,0.7176,0.7783,0.8271,0.8699,0.9436,1.0073,1.0313,1.0341,1.0147,1.049,1.0973,1.14,1.1731,1.2182,1.2367,1.256,1.259,1.259,1.2652,1.2744,1.2972,1.3472,1.3923,1.4688,1.5167,1.5835,1.6428,1.6835,1.6959,1.7312,1.7865,1.8057,1.7925,1.7738,1.8066,1.8267,1.8321,1.8498,1.8709,1.8866,1.8946,1.9119,1.9303,1.9097,1.8828,1.8487,1.7955,1.7451,1.6986,1.6659,1.6294,1.6087,1.5782,1.5296,1.5016,1.5278,1.5048,1.476,1.5288,1.6363,1.697,1.7511,1.7605,1.7645,1.7767,1.7882,1.7949,1.8009,1.8109,-1.0054,-0.9819,-0.9644,-0.9526,-0.9441,-0.9048,-0.8789,-0.8505,-0.7931,-0.7065,-0.6077,-0.5755,-0.509,-0.4111,-0.3666,-0.3175,-0.2372,-0.2417,-0.2371,-0.2459,-0.2369,-0.2323,-0.2012,-0.1476,-0.0939,-0.0671,-0.0537,-0.0671,-0.0985,-0.085,-0.0447,0.0398,0.1397,0.1988,0.2568,0.3321,0.4272,0.4713,0.4959,0.5212,0.5715,0.6141,0.6451,0.6676,0.6868,0.7173,0.7778,0.8385,0.914,0.9777,1.0495,1.1208,1.1839,1.2137,1.2106,1.1864,1.193,1.2141,1.2327,1.2469,1.2585,1.2606,1.2598,1.2621,1.2836,1.3103,1.3511,1.4124,1.4776,1.5245,1.5833,1.6464,1.6864,1.7127,1.7306,1.7462,1.7893,1.8166,1.841,1.8506,1.8934,1.896,1.8842,1.9001,1.9172,1.9277,1.9356,1.9539,1.9657,1.9521,1.9271,1.9064,1.8648,1.8138,1.7691,1.7336,1.6921,1.6572,1.6228,1.5798,1.5425,1.5208,1.5046,1.5187,1.5842,1.6868,1.7496,1.7841,1.7814,1.7801,1.7882,1.8003,1.8135,1.8293,1.8411,-0.964,-0.9644,-0.9462,-0.9292,-0.9052,-0.8672,-0.839,-0.7984,-0.6879,-0.613,-0.5484,-0.4821,-0.3844,-0.2774,-0.1881,-0.1792,-0.1836,-0.1656,-0.17,-0.1923,-0.1386,-0.0894,-0.0492,0.0537,0.0762,0.0896,0.1389,0.1121,0.0538,0.0448,0.1253,0.2312,0.2648,0.3236,0.4025,0.4369,0.4859,0.5314,0.5471,0.5715,0.6141,0.6451,0.6676,0.6903,0.7173,0.7706,0.8571,0.921,0.9857,1.0671,1.1594,1.2201,1.2611,1.3397,1.361,1.3531,1.3333,1.3138,1.3003,1.2877,1.2798,1.271,1.2645,1.2744,1.3164,1.3722,1.4154,1.4183,1.5177,1.5911,1.6283,1.6797,1.7155,1.7278,1.7306,1.7601,1.8002,1.8306,1.8533,1.8987,1.9303,1.9225,1.9093,1.933,1.9565,1.9668,1.9798,1.9939,2.0105,2.0028,1.9949,1.9807,1.9483,1.8959,1.853,1.8163,1.7689,1.7202,1.6817,1.6445,1.6185,1.6028,1.6182,1.6449,1.6976,1.7057,1.7267,1.7537,1.7792,1.7983,1.8049,1.8214,1.8397,1.8553,1.8765,-0.9136,-0.9211,-0.9088,-0.8871,-0.8557,-0.7685,-0.7181,-0.683,-0.5676,-0.4734,-0.4111,-0.3576,-0.2596,-0.1568,-0.0897,-0.0762,-0.0806,-0.0582,-0.0403,-0.0671,-0.0045,0.0493,0.0851,0.1345,0.175,0.2019,0.22,0.2109,0.1749,0.1972,0.2686,0.3304,0.3871,0.4289,0.4988,0.5147,0.5443,0.576,0.6037,0.6264,0.649,0.6795,0.7211,0.7736,0.805,0.8727,0.9588,1.0479,1.1013,1.1761,1.2599,1.3163,1.3375,1.3869,1.4216,1.4159,1.4116,1.3839,1.3416,1.313,1.2964,1.2948,1.2935,1.3164,1.3821,1.449,1.5128,1.5575,1.6036,1.6446,1.6701,1.7088,1.7222,1.7306,1.7306,1.7772,1.8143,1.8402,1.8712,1.92,1.9656,1.9578,1.9539,1.963,1.9837,1.9991,2.0118,2.0271,2.0548,2.0769,2.0737,2.0678,2.0307,1.9856,1.9472,1.9073,1.8588,1.8099,1.776,1.7407,1.7176,1.7087,1.7347,1.7282,1.739,1.7385,1.7253,1.752,1.8027,1.8169,1.8254,1.8495,1.8765,1.9128,1.9328,-0.8013,-0.7967,-0.8135,-0.7941,-0.7462,-0.6313,-0.5847,-0.5652,-0.4499,-0.3489,-0.2731,-0.215,-0.1344,-0.0672,-0.0314,-0.009,0.0179,0.0448,0.0807,0.1076,0.1301,0.148,0.1705,0.193,0.2064,0.2289,0.2691,0.2738,0.296,0.3317,0.3762,0.3807,0.4509,0.5039,0.53,0.5594,0.5893,0.6062,0.6349,0.6686,0.7057,0.7365,0.8003,0.8647,0.9216,0.9782,1.082,1.1452,1.1983,1.2703,1.3229,1.3681,1.3863,1.4137,1.4382,1.4406,1.4431,1.4511,1.4104,1.3757,1.3331,1.3315,1.3583,1.4022,1.4706,1.5352,1.5826,1.6371,1.6655,1.6948,1.7183,1.7278,1.7306,1.7306,1.7306,1.7881,1.8363,1.8605,1.8924,1.9384,1.9811,2.0169,2.0093,2.0016,2.0118,2.0321,2.0472,2.0598,2.0871,2.1191,2.1175,2.1081,2.0941,2.0516,2.0147,1.9759,1.9342,1.9164,1.8802,1.8639,1.8576,1.8522,1.8655,1.8469,1.8219,1.8142,1.8259,1.8275,1.8288,1.8489,1.8702,1.8879,1.9161,1.9548,1.9815,-0.5812,-0.5264,-0.6362,-0.6176,-0.525,-0.4833,-0.4614,-0.4399,-0.3406,-0.2642,-0.188,-0.0896,-0.0314,0.0,0.0224,0.0448,0.0673,0.0942,0.1211,0.1436,0.166,0.1885,0.2154,0.2334,0.2513,0.2648,0.3139,0.3452,0.3765,0.4433,0.4567,0.4469,0.5041,0.5458,0.5712,0.5945,0.611,0.6304,0.662,0.7176,0.774,0.8271,0.8912,0.9814,1.019,1.0671,1.1786,1.2087,1.2505,1.3273,1.3645,1.3928,1.4109,1.4325,1.4461,1.4533,1.4748,1.4956,1.4995,1.4525,1.4106,1.4181,1.4559,1.5077,1.5557,1.6134,1.6524,1.6694,1.6959,1.7155,1.7278,1.7306,1.7306,1.7334,1.7473,1.7936,1.8429,1.8806,1.9135,1.9578,2.0016,2.0447,2.0673,2.0598,2.056,2.0734,2.0883,2.1019,2.1093,2.1337,2.1337,2.1321,2.1334,2.1036,2.0657,2.0424,2.0475,2.0512,2.0353,2.0307,2.0302,2.0244,1.9993,1.9933,1.9735,1.9502,1.923,1.9159,1.9093,1.9059,1.9139,1.9291,1.953,1.9854,2.0063,-0.4656,-0.3888,-0.4068,-0.4293,-0.4471,-0.386,-0.3491,-0.3267,-0.2284,-0.1389,-0.0806,-0.0224,0.0179,0.0448,0.0673,0.0942,0.1166,0.1391,0.166,0.184,0.2019,0.22,0.2423,0.2736,0.3004,0.3274,0.3765,0.4166,0.4387,0.5146,0.528,0.5346,0.5706,0.5872,0.6141,0.621,0.6294,0.6606,0.7099,0.7812,0.8118,0.9135,0.9965,1.0832,1.123,1.1755,1.2586,1.2842,1.3222,1.3601,1.3855,1.4065,1.4274,1.4461,1.4605,1.474,1.5062,1.5551,1.5729,1.5299,1.5041,1.5606,1.5973,1.6285,1.6461,1.6884,1.6991,1.7138,1.7166,1.7306,1.7306,1.7306,1.7306,1.739,1.7684,1.8127,1.8563,1.903,1.9567,2.0118,2.0523,2.0921,2.1068,2.1166,2.1142,2.1177,2.1313,2.1385,2.1385,2.1385,2.1385,2.1385,2.1385,2.1482,2.1128,2.1348,2.1684,2.1722,2.1739,2.1733,2.1643,2.1485,2.1285,2.1243,2.1045,2.0597,2.0258,2.0038,1.9819,1.9593,1.9545,1.9654,1.9904,2.0168,2.0235,-0.34,-0.2551,-0.2239,-0.2596,-0.3309,-0.2642,-0.2374,-0.224,-0.1524,-0.0673,0.0,0.0224,0.0538,0.0897,0.1166,0.1436,0.1615,0.184,0.2064,0.22,0.2289,0.2513,0.2826,0.3139,0.3451,0.3855,0.4344,0.4743,0.4921,0.5502,0.5858,0.6166,0.6637,0.6766,0.6304,0.6525,0.6745,0.7277,0.8008,0.8832,0.9135,1.004,1.1093,1.1811,1.2211,1.2622,1.3149,1.3411,1.3601,1.3891,1.4072,1.4253,1.4461,1.4705,1.4919,1.5196,1.5621,1.6175,1.6287,1.6181,1.6171,1.6738,1.7062,1.7281,1.7456,1.751,1.7494,1.725,1.7278,1.7317,1.7345,1.7462,1.759,1.7744,1.8182,1.8629,1.9042,1.9501,2.0093,2.0648,2.097,2.1142,2.124,2.1313,2.1272,2.1272,2.1337,2.1385,2.1385,2.1385,2.1385,2.1385,2.1385,2.1506,2.1612,2.1833,2.2049,2.2412,2.2494,2.2812,2.2768,2.2591,2.2431,2.2344,2.2031,2.1569,2.1115,2.0688,2.0299,1.9952,1.9955,1.9957,2.0045,2.0252,2.027,-0.1884,-0.1166,-0.1166,-0.13,-0.1569,-0.1256,-0.1166,-0.1256,-0.1031,-0.0538,0.0179,0.0718,0.1122,0.1391,0.1615,0.184,0.2064,0.2155,0.2334,0.2558,0.2693,0.296,0.3363,0.3721,0.4032,0.4387,0.4966,0.5369,0.5591,0.6387,0.6745,0.7258,0.7924,0.7896,0.6629,0.732,0.8144,0.8889,0.9501,1.011,1.0671,1.1279,1.215,1.2673,1.301,1.3339,1.3564,1.3754,1.3899,1.4101,1.4418,1.4561,1.4669,1.5409,1.5727,1.5824,1.6481,1.7173,1.7794,1.7449,1.7504,1.7763,1.7999,1.8094,1.8019,1.7977,1.7813,1.7558,1.7426,1.7389,1.7512,1.7705,1.7886,1.824,1.8682,1.9042,1.9488,1.9914,2.0472,2.0835,2.1019,2.1215,2.1313,2.1372,2.1342,2.1342,2.1372,2.1382,2.1301,2.1353,2.1308,2.1427,2.146,2.1838,2.2002,2.218,2.2434,2.2822,2.3179,2.3465,2.3674,2.3571,2.3456,2.336,2.29,2.2313,2.1753,2.1239,2.0673,2.0144,2.0198,2.0218,2.0287,2.0339,2.0407,-0.1301,-0.1076,-0.0762,-0.0762,-0.0897,-0.0852,-0.0762,-0.0583,-0.0269,0.0224,0.0718,0.1166,0.1436,0.1705,0.193,0.22,0.2379,0.2424,0.2603,0.3184,0.3229,0.3587,0.4032,0.452,0.4788,0.5102,0.5638,0.6561,0.7305,0.7661,0.8404,0.9043,0.9388,0.9357,0.8949,0.9094,0.932,0.9699,1.029,1.0895,1.1378,1.2181,1.2826,1.3236,1.3455,1.3681,1.3863,1.3935,1.4109,1.4353,1.4705,1.5089,1.5338,1.607,1.649,1.6655,1.7207,1.7959,1.8543,1.8624,1.8682,1.8779,1.8775,1.8834,1.8765,1.855,1.8221,1.7915,1.7864,1.7845,1.7906,1.7963,1.8174,1.8735,1.9146,1.9448,1.9824,2.0258,2.0674,2.0873,2.1057,2.1229,2.135,2.1479,2.1468,2.1495,2.156,2.1144,2.0971,2.1121,2.1204,2.14,2.1592,2.2079,2.2394,2.2507,2.2839,2.329,2.3659,2.3994,2.4177,2.4198,2.4112,2.383,2.3436,2.3009,2.2197,2.1414,2.0767,2.0364,2.0423,2.0392,2.0357,2.0494,2.0677,-0.0942,-0.0807,-0.0538,-0.0359,-0.0359,-0.0404,-0.0314,-0.0045,0.0404,0.0852,0.1166,0.1436,0.175,0.2019,0.22,0.2424,0.2649,0.2827,0.2962,0.3676,0.4119,0.4652,0.5181,0.5714,0.6416,0.6643,0.7129,0.7874,0.8571,0.8829,0.9614,1.0532,1.1017,1.1159,1.1017,1.0937,1.0701,1.1153,1.1771,1.21,1.2412,1.2849,1.3382,1.3535,1.371,1.3928,1.4044,1.4145,1.4281,1.4633,1.5161,1.5675,1.6035,1.6655,1.7173,1.7482,1.8003,1.8687,1.9131,1.9297,1.9278,1.93,1.9393,1.9361,1.9357,1.9296,1.8874,1.8594,1.8484,1.8435,1.8437,1.8464,1.8818,1.9356,1.9668,1.9965,2.0144,2.0574,2.0724,2.0898,2.1095,2.1267,2.1492,2.1539,2.1634,2.1699,2.1741,2.1236,2.0808,2.0949,2.1165,2.1375,2.1578,2.1954,2.2403,2.2744,2.3159,2.3736,2.4036,2.4281,2.4281,2.424,2.4281,2.4281,2.3922,2.3372,2.2358,2.1559,2.0943,2.0657,2.0712,2.0629,2.0494,2.0662,2.0893,-0.0583,-0.0404,-0.0359,-0.009,0.0269,0.0135,0.0224,0.0448,0.0897,0.1256,0.1436,0.1705,0.2064,0.2424,0.2515,0.2694,0.3096,0.3452,0.3808,0.4253,0.5092,0.5885,0.6719,0.7376,0.7906,0.8738,0.9179,0.9056,0.9662,1.0351,1.1139,1.1875,1.225,1.2614,1.275,1.2638,1.2343,1.27,1.2878,1.3074,1.3195,1.3404,1.3652,1.3754,1.3891,1.4101,1.4281,1.4497,1.4605,1.4991,1.5507,1.5824,1.6376,1.7276,1.7755,1.824,1.8865,1.9208,1.9473,1.9539,1.9605,1.9638,1.9857,1.9705,1.972,1.9913,1.9606,1.9321,1.9214,1.9171,1.9122,1.9379,1.9618,1.9991,2.0283,2.046,2.0561,2.0724,2.0812,2.0961,2.1158,2.1412,2.1775,2.1913,2.1838,2.1902,2.1898,2.1621,2.1212,2.0991,2.1196,2.1368,2.1566,2.1768,2.2257,2.3074,2.3447,2.4021,2.4114,2.4281,2.4281,2.4302,2.4281,2.4287,2.4261,2.369,2.2645,2.18,2.1127,2.0989,2.099,2.0942,2.0844,2.091,2.1119,-0.0448,-0.0359,0.0,0.0269,0.0448,0.0807,0.0987,0.0942,0.1391,0.166,0.1705,0.211,0.2424,0.2515,0.305,0.332,0.3764,0.434,0.505,0.5667,0.6502,0.7335,0.8034,0.8603,0.9087,0.944,0.9749,1.0274,1.0971,1.1789,1.2522,1.3173,1.3336,1.3808,1.3959,1.4006,1.3892,1.3805,1.3842,1.3762,1.3673,1.3704,1.3792,1.387,1.4137,1.4353,1.4533,1.5125,1.5338,1.5586,1.6689,1.731,1.7448,1.824,1.8798,1.8931,1.9208,1.9374,1.9572,1.9736,1.9802,1.9955,2.0312,2.0602,2.0525,2.0426,2.0342,2.0238,2.0125,2.0086,1.9897,1.9987,2.0169,2.0372,2.0612,2.0674,2.0749,2.0848,2.0972,2.135,2.1533,2.1864,2.223,2.2084,2.2037,2.2113,2.2103,2.1928,2.1671,2.1456,2.1348,2.155,2.1802,2.2044,2.2943,2.3793,2.3983,2.4209,2.4281,2.4302,2.4364,2.4364,2.4302,2.4215,2.4102,2.3623,2.2885,2.2111,2.1424,2.1247,2.1214,2.1214,2.1214,2.1308,2.1417,-0.0179,-0.0045,0.0269,0.0538,0.0852,0.1346,0.1525,0.157,0.184,0.1974,0.211,0.2558,0.2826,0.3139,0.3853,0.4342,0.4474,0.5536,0.6287,0.6939,0.799,0.8825,0.9435,1.0,1.0567,1.0702,1.0966,1.1574,1.2186,1.2875,1.361,1.3942,1.4159,1.4328,1.4468,1.4601,1.4712,1.4552,1.4352,1.4166,1.4027,1.3963,1.3991,1.408,1.4418,1.4812,1.5018,1.5824,1.6175,1.635,1.7482,1.7959,1.8104,1.8697,1.9308,1.944,1.9539,1.9671,1.9802,1.9911,1.9944,2.0107,2.0542,2.092,2.1362,2.1526,2.141,2.1284,2.1188,2.1039,2.0711,2.0476,2.0578,2.0688,2.075,2.0812,2.0898,2.0959,2.1313,2.1779,2.2133,2.248,2.255,2.2373,2.2374,2.2716,2.2882,2.2782,2.2437,2.2049,2.1884,2.1894,2.2147,2.2435,2.3406,2.4132,2.4148,2.4194,2.4281,2.4323,2.439,2.4369,2.4302,2.4084,2.3853,2.3349,2.2821,2.2376,2.182,2.1656,2.1569,2.1693,2.1693,2.1631,2.1766,0.018,0.0404,0.0448,0.0852,0.1436,0.175,0.1974,0.2244,0.2423,0.2467,0.2647,0.3093,0.354,0.3985,0.4961,0.5492,0.5933,0.6814,0.7603,0.803,0.9305,1.0226,1.088,1.1709,1.188,1.2534,1.2839,1.2662,1.3094,1.361,1.4026,1.4398,1.4398,1.4524,1.4741,1.4915,1.4962,1.4907,1.4896,1.485,1.4486,1.4426,1.4533,1.4617,1.5188,1.5868,1.6035,1.6481,1.7001,1.7207,1.7619,1.8138,1.8519,1.8865,1.944,1.9704,1.9802,1.99,1.9976,2.0053,2.0161,2.0256,2.038,2.121,2.1914,2.1957,2.1745,2.2071,2.2041,2.1615,2.1249,2.103,2.1029,2.0936,2.0882,2.1148,2.1488,2.1855,2.2623,2.3018,2.3348,2.3606,2.3434,2.3319,2.3526,2.3687,2.3841,2.3818,2.3625,2.3152,2.2884,2.2727,2.2847,2.3156,2.3555,2.4132,2.4066,2.4117,2.4338,2.4594,2.4843,2.4649,2.4304,2.42,2.4065,2.3326,2.2752,2.2503,2.2275,2.1956,2.1959,2.2197,2.2197,2.2022,2.202,0.0448,0.0673,0.0987,0.1391,0.175,0.2155,0.2379,0.2513,0.3626,0.3671,0.327,0.3894,0.4561,0.5092,0.6239,0.677,0.7078,0.8173,0.8917,0.9609,1.0621,1.123,1.1837,1.24,1.2839,1.3009,1.3228,1.3525,1.3822,1.411,1.4314,1.4608,1.465,1.4741,1.511,1.5235,1.5202,1.536,1.5507,1.5607,1.5415,1.5064,1.5023,1.5561,1.6263,1.6515,1.6828,1.732,1.7619,1.7857,1.8586,1.8998,1.9264,1.944,1.9638,1.9846,1.9966,2.0096,2.0205,2.0335,2.0506,2.0953,2.1319,2.2048,2.2381,2.2064,2.2141,2.2611,2.2706,2.2242,2.1851,2.1655,2.1485,2.1288,2.1156,2.1654,2.2138,2.3017,2.3903,2.4244,2.459,2.4553,2.4356,2.4432,2.4634,2.4874,2.5183,2.5281,2.5296,2.4998,2.4605,2.4374,2.391,2.408,2.433,2.4528,2.4694,2.469,2.4881,2.5092,2.5291,2.5233,2.5067,2.4659,2.4294,2.3702,2.3274,2.3095,2.2828,2.2456,2.2185,2.2333,2.2409,2.2293,2.2257,0.0667,0.0941,0.1391,0.1795,0.2199,0.2957,0.3358,0.3671,0.4823,0.5267,0.5001,0.5487,0.5885,0.6416,0.7562,0.8177,0.844,0.971,1.0361,1.1015,1.1402,1.2009,1.2571,1.2918,1.3094,1.327,1.361,1.3955,1.4328,1.4447,1.4608,1.4824,1.4908,1.5193,1.5636,1.5696,1.5782,1.615,1.6295,1.6375,1.6412,1.6171,1.5901,1.6456,1.6879,1.7198,1.7584,1.807,1.8385,1.8553,1.8998,1.9374,1.9572,1.9704,1.9802,2.0042,2.0259,2.0474,2.0571,2.0784,2.106,2.1573,2.1837,2.236,2.283,2.2618,2.2888,2.3306,2.3504,2.3117,2.2714,2.2425,2.2419,2.2298,2.2386,2.2707,2.3455,2.4308,2.478,2.497,2.5197,2.5176,2.5029,2.5067,2.5241,2.5341,2.5734,2.5962,2.6138,2.6627,2.6306,2.6038,2.5601,2.5238,2.5356,2.5546,2.5676,2.5625,2.5481,2.5513,2.5664,2.5868,2.5852,2.5219,2.471,2.4331,2.3969,2.359,2.3317,2.2962,2.2656,2.2415,2.2491,2.2567,2.2483,0.1052,0.1427,0.1875,0.2416,0.3004,0.4069,0.4645,0.4959,0.6107,0.6882,0.7176,0.7413,0.7518,0.8002,0.8965,0.9492,1.0106,1.0799,1.1451,1.1843,1.21,1.2577,1.2918,1.3222,1.3476,1.3737,1.4033,1.437,1.4741,1.4824,1.495,1.5124,1.545,1.5775,1.6366,1.6686,1.6746,1.7063,1.7235,1.7333,1.7342,1.7341,1.7058,1.7178,1.7609,1.8104,1.8375,1.862,1.9031,1.9142,1.9274,1.9769,2.0085,2.0248,2.0399,2.0603,2.0965,2.1187,2.1313,2.1616,2.1916,2.2207,2.2266,2.2548,2.3069,2.3372,2.3615,2.3757,2.3955,2.3825,2.3393,2.3276,2.3259,2.3335,2.3502,2.3897,2.4765,2.5549,2.5732,2.5851,2.5875,2.5884,2.5788,2.5788,2.5912,2.5975,2.6098,2.6221,2.6566,2.7319,2.7596,2.7531,2.7381,2.7032,2.6639,2.6411,2.6514,2.6383,2.6231,2.6065,2.6003,2.6222,2.6082,2.5446,2.4995,2.4773,2.4314,2.3836,2.3596,2.3558,2.3105,2.2818,2.2858,2.2892,2.2712,0.1926,0.3051,0.3314,0.3917,0.4814,0.5484,0.5758,0.6021,0.7244,0.8016,0.8451,0.9425,0.9671,0.9179,1.0409,1.0933,1.0933,1.1628,1.1972,1.2277,1.2625,1.3009,1.3355,1.3652,1.4075,1.4363,1.458,1.479,1.5318,1.5367,1.5333,1.5499,1.6263,1.6583,1.6764,1.7192,1.7839,1.8017,1.8128,1.8239,1.8021,1.8017,1.8037,1.8259,1.8697,1.8865,1.8931,1.8998,1.9065,1.9164,1.9462,2.0139,2.0688,2.0965,2.1092,2.1365,2.1741,2.1865,2.2051,2.2267,2.25,2.2864,2.3001,2.317,2.3568,2.38,2.3955,2.3964,2.4029,2.3885,2.3642,2.3916,2.4,2.418,2.4367,2.5234,2.6141,2.6618,2.6927,2.6976,2.7001,2.684,2.6558,2.6696,2.7013,2.7133,2.7361,2.751,2.7937,2.8418,2.876,2.8792,2.8768,2.851,2.7952,2.7294,2.7187,2.7075,2.6879,2.6543,2.6425,2.6554,2.6286,2.5799,2.5479,2.5256,2.4746,2.4335,2.4364,2.4294,2.3642,2.3289,2.3376,2.3353,2.3315]}]]